<?xml version="1.0" encoding="UTF-8"?><gpx xmlns="http://www.topografix.com/GPX/1/1" version="1.1" creator="iOrient"><trk><name>RAGEин</name><trkseg><trkpt lat="55.7583439" lon="48.7452930"><time>2021-10-23T13:34:53.170</time></trkpt><trkpt lat="55.7582971" lon="48.7452994"><time>2021-10-23T13:34:57.173</time></trkpt><trkpt lat="55.7582477" lon="48.7453279"><time>2021-10-23T13:35:01.190</time></trkpt><trkpt lat="55.7582099" lon="48.7453851"><time>2021-10-23T13:35:06.183</time></trkpt><trkpt lat="55.7581947" lon="48.7454781"><time>2021-10-23T13:35:11.173</time></trkpt><trkpt lat="55.7581791" lon="48.7455692"><time>2021-10-23T13:35:16.183</time></trkpt><trkpt lat="55.7581440" lon="48.7456481"><time>2021-10-23T13:35:24.170</time></trkpt><trkpt lat="55.7580967" lon="48.7456838"><time>2021-10-23T13:35:29.170</time></trkpt><trkpt lat="55.7580567" lon="48.7457264"><time>2021-10-23T13:35:34.177</time></trkpt><trkpt lat="55.7580172" lon="48.7457841"><time>2021-10-23T13:35:38.170</time></trkpt><trkpt lat="55.7579804" lon="48.7458429"><time>2021-10-23T13:35:42.160</time></trkpt><trkpt lat="55.7579575" lon="48.7459211"><time>2021-10-23T13:35:47.167</time></trkpt><trkpt lat="55.7579388" lon="48.7459990"><time>2021-10-23T13:35:52.170</time></trkpt><trkpt lat="55.7578984" lon="48.7460411"><time>2021-10-23T13:35:56.167</time></trkpt><trkpt lat="55.7578510" lon="48.7460606"><time>2021-10-23T13:36:00.173</time></trkpt><trkpt lat="55.7577938" lon="48.7460788"><time>2021-10-23T13:36:04.177</time></trkpt><trkpt lat="55.7577343" lon="48.7460910"><time>2021-10-23T13:36:08.167</time></trkpt><trkpt lat="55.7576890" lon="48.7461038"><time>2021-10-23T13:36:11.173</time></trkpt><trkpt lat="55.7576419" lon="48.7461197"><time>2021-10-23T13:36:14.173</time></trkpt><trkpt lat="55.7575952" lon="48.7461307"><time>2021-10-23T13:36:17.183</time></trkpt><trkpt lat="55.7575475" lon="48.7461595"><time>2021-10-23T13:36:20.173</time></trkpt><trkpt lat="55.7574967" lon="48.7461747"><time>2021-10-23T13:36:23.173</time></trkpt><trkpt lat="55.7574473" lon="48.7462108"><time>2021-10-23T13:36:27.177</time></trkpt><trkpt lat="55.7574034" lon="48.7462303"><time>2021-10-23T13:36:30.177</time></trkpt><trkpt lat="55.7573570" lon="48.7462642"><time>2021-10-23T13:36:36.177</time></trkpt><trkpt lat="55.7573062" lon="48.7462629"><time>2021-10-23T13:36:41.177</time></trkpt><trkpt lat="55.7572529" lon="48.7462702"><time>2021-10-23T13:36:46.170</time></trkpt><trkpt lat="55.7572083" lon="48.7462584"><time>2021-10-23T13:36:50.177</time></trkpt><trkpt lat="55.7571572" lon="48.7462630"><time>2021-10-23T13:36:55.173</time></trkpt><trkpt lat="55.7570991" lon="48.7462795"><time>2021-10-23T13:36:59.173</time></trkpt><trkpt lat="55.7570980" lon="48.7463696"><time>2021-10-23T13:37:12.177</time></trkpt><trkpt lat="55.7571276" lon="48.7464418"><time>2021-10-23T13:37:15.173</time></trkpt><trkpt lat="55.7571548" lon="48.7465423"><time>2021-10-23T13:37:18.170</time></trkpt><trkpt lat="55.7571893" lon="48.7466188"><time>2021-10-23T13:37:22.170</time></trkpt><trkpt lat="55.7572193" lon="48.7466815"><time>2021-10-23T13:37:26.170</time></trkpt><trkpt lat="55.7572562" lon="48.7467561"><time>2021-10-23T13:37:30.177</time></trkpt><trkpt lat="55.7572903" lon="48.7468292"><time>2021-10-23T13:37:35.177</time></trkpt><trkpt lat="55.7573163" lon="48.7469155"><time>2021-10-23T13:37:39.180</time></trkpt><trkpt lat="55.7573405" lon="48.7470044"><time>2021-10-23T13:37:43.167</time></trkpt><trkpt lat="55.7573729" lon="48.7470877"><time>2021-10-23T13:37:47.170</time></trkpt><trkpt lat="55.7574143" lon="48.7471532"><time>2021-10-23T13:37:51.173</time></trkpt><trkpt lat="55.7574552" lon="48.7472186"><time>2021-10-23T13:37:55.163</time></trkpt><trkpt lat="55.7574922" lon="48.7472944"><time>2021-10-23T13:37:59.173</time></trkpt><trkpt lat="55.7575178" lon="48.7473737"><time>2021-10-23T13:38:03.183</time></trkpt><trkpt lat="55.7575428" lon="48.7474428"><time>2021-10-23T13:38:06.177</time></trkpt><trkpt lat="55.7575809" lon="48.7475046"><time>2021-10-23T13:38:10.190</time></trkpt><trkpt lat="55.7576095" lon="48.7475828"><time>2021-10-23T13:38:14.177</time></trkpt><trkpt lat="55.7576306" lon="48.7476580"><time>2021-10-23T13:38:18.170</time></trkpt><trkpt lat="55.7576646" lon="48.7477441"><time>2021-10-23T13:38:22.170</time></trkpt><trkpt lat="55.7576925" lon="48.7478232"><time>2021-10-23T13:38:26.177</time></trkpt><trkpt lat="55.7577247" lon="48.7479099"><time>2021-10-23T13:38:30.180</time></trkpt><trkpt lat="55.7577557" lon="48.7479920"><time>2021-10-23T13:38:34.177</time></trkpt><trkpt lat="55.7577864" lon="48.7480793"><time>2021-10-23T13:38:38.180</time></trkpt><trkpt lat="55.7578133" lon="48.7481614"><time>2021-10-23T13:38:42.180</time></trkpt><trkpt lat="55.7578504" lon="48.7482463"><time>2021-10-23T13:38:46.170</time></trkpt><trkpt lat="55.7578814" lon="48.7483240"><time>2021-10-23T13:38:50.177</time></trkpt><trkpt lat="55.7579104" lon="48.7483914"><time>2021-10-23T13:38:54.177</time></trkpt><trkpt lat="55.7579380" lon="48.7484609"><time>2021-10-23T13:38:58.173</time></trkpt><trkpt lat="55.7579664" lon="48.7485370"><time>2021-10-23T13:39:04.167</time></trkpt><trkpt lat="55.7579909" lon="48.7486135"><time>2021-10-23T13:39:09.170</time></trkpt><trkpt lat="55.7580244" lon="48.7486707"><time>2021-10-23T13:39:14.173</time></trkpt><trkpt lat="55.7580624" lon="48.7487455"><time>2021-10-23T13:39:19.170</time></trkpt><trkpt lat="55.7580900" lon="48.7488184"><time>2021-10-23T13:39:24.173</time></trkpt><trkpt lat="55.7581209" lon="48.7488863"><time>2021-10-23T13:39:28.177</time></trkpt><trkpt lat="55.7581684" lon="48.7489373"><time>2021-10-23T13:39:33.180</time></trkpt><trkpt lat="55.7582095" lon="48.7489932"><time>2021-10-23T13:39:37.170</time></trkpt><trkpt lat="55.7582526" lon="48.7490646"><time>2021-10-23T13:39:41.200</time></trkpt><trkpt lat="55.7582909" lon="48.7491307"><time>2021-10-23T13:39:45.187</time></trkpt><trkpt lat="55.7583271" lon="48.7492079"><time>2021-10-23T13:39:49.190</time></trkpt><trkpt lat="55.7583633" lon="48.7492815"><time>2021-10-23T13:39:53.210</time></trkpt><trkpt lat="55.7583902" lon="48.7493681"><time>2021-10-23T13:39:57.160</time></trkpt><trkpt lat="55.7584182" lon="48.7494558"><time>2021-10-23T13:40:01.170</time></trkpt><trkpt lat="55.7584496" lon="48.7495363"><time>2021-10-23T13:40:05.180</time></trkpt><trkpt lat="55.7584844" lon="48.7495944"><time>2021-10-23T13:40:10.177</time></trkpt><trkpt lat="55.7585219" lon="48.7496550"><time>2021-10-23T13:40:15.163</time></trkpt><trkpt lat="55.7585543" lon="48.7497301"><time>2021-10-23T13:40:20.187</time></trkpt><trkpt lat="55.7585854" lon="48.7497937"><time>2021-10-23T13:40:24.170</time></trkpt><trkpt lat="55.7586182" lon="48.7498732"><time>2021-10-23T13:40:28.177</time></trkpt><trkpt lat="55.7586554" lon="48.7499280"><time>2021-10-23T13:40:32.180</time></trkpt><trkpt lat="55.7586965" lon="48.7499951"><time>2021-10-23T13:40:36.177</time></trkpt><trkpt lat="55.7587373" lon="48.7500657"><time>2021-10-23T13:40:41.170</time></trkpt><trkpt lat="55.7587768" lon="48.7501394"><time>2021-10-23T13:40:45.167</time></trkpt><trkpt lat="55.7588168" lon="48.7502106"><time>2021-10-23T13:40:50.173</time></trkpt><trkpt lat="55.7588521" lon="48.7502796"><time>2021-10-23T13:40:54.170</time></trkpt><trkpt lat="55.7588828" lon="48.7503554"><time>2021-10-23T13:40:58.167</time></trkpt><trkpt lat="55.7589228" lon="48.7504172"><time>2021-10-23T13:41:02.173</time></trkpt><trkpt lat="55.7589634" lon="48.7504833"><time>2021-10-23T13:41:06.173</time></trkpt><trkpt lat="55.7589959" lon="48.7505469"><time>2021-10-23T13:41:09.170</time></trkpt><trkpt lat="55.7590210" lon="48.7506180"><time>2021-10-23T13:41:13.173</time></trkpt><trkpt lat="55.7590506" lon="48.7506952"><time>2021-10-23T13:41:17.187</time></trkpt><trkpt lat="55.7590869" lon="48.7507535"><time>2021-10-23T13:41:22.173</time></trkpt><trkpt lat="55.7591181" lon="48.7508244"><time>2021-10-23T13:41:26.180</time></trkpt><trkpt lat="55.7591567" lon="48.7508763"><time>2021-10-23T13:41:31.177</time></trkpt><trkpt lat="55.7591910" lon="48.7509307"><time>2021-10-23T13:41:35.177</time></trkpt><trkpt lat="55.7592261" lon="48.7510009"><time>2021-10-23T13:41:39.163</time></trkpt><trkpt lat="55.7592667" lon="48.7510676"><time>2021-10-23T13:41:44.170</time></trkpt><trkpt lat="55.7593090" lon="48.7511262"><time>2021-10-23T13:41:49.177</time></trkpt><trkpt lat="55.7593441" lon="48.7511881"><time>2021-10-23T13:41:54.177</time></trkpt><trkpt lat="55.7593787" lon="48.7512577"><time>2021-10-23T13:41:59.180</time></trkpt><trkpt lat="55.7594127" lon="48.7513136"><time>2021-10-23T13:42:02.173</time></trkpt><trkpt lat="55.7594513" lon="48.7513869"><time>2021-10-23T13:42:07.173</time></trkpt><trkpt lat="55.7594736" lon="48.7514566"><time>2021-10-23T13:42:11.180</time></trkpt><trkpt lat="55.7595066" lon="48.7515292"><time>2021-10-23T13:42:15.383</time></trkpt><trkpt lat="55.7595411" lon="48.7515843"><time>2021-10-23T13:42:19.183</time></trkpt><trkpt lat="55.7595704" lon="48.7516502"><time>2021-10-23T13:42:23.177</time></trkpt><trkpt lat="55.7595978" lon="48.7517373"><time>2021-10-23T13:42:27.170</time></trkpt><trkpt lat="55.7596263" lon="48.7518018"><time>2021-10-23T13:42:31.380</time></trkpt><trkpt lat="55.7596556" lon="48.7518771"><time>2021-10-23T13:42:50.370</time></trkpt><trkpt lat="55.7596647" lon="48.7519650"><time>2021-10-23T13:42:54.180</time></trkpt><trkpt lat="55.7597006" lon="48.7520219"><time>2021-10-23T13:43:29.393</time></trkpt><trkpt lat="55.7597375" lon="48.7520766"><time>2021-10-23T13:43:32.360</time></trkpt><trkpt lat="55.7597927" lon="48.7520831"><time>2021-10-23T13:43:36.383</time></trkpt><trkpt lat="55.7598392" lon="48.7520509"><time>2021-10-23T13:43:39.387</time></trkpt><trkpt lat="55.7598866" lon="48.7520230"><time>2021-10-23T13:43:43.397</time></trkpt><trkpt lat="55.7599325" lon="48.7520377"><time>2021-10-23T13:43:46.177</time></trkpt><trkpt lat="55.7599793" lon="48.7520716"><time>2021-10-23T13:43:50.187</time></trkpt><trkpt lat="55.7600206" lon="48.7521270"><time>2021-10-23T13:43:53.377</time></trkpt><trkpt lat="55.7600580" lon="48.7522002"><time>2021-10-23T13:43:57.343</time></trkpt><trkpt lat="55.7601154" lon="48.7522327"><time>2021-10-23T13:44:01.377</time></trkpt><trkpt lat="55.7601582" lon="48.7522948"><time>2021-10-23T13:44:05.553</time></trkpt><trkpt lat="55.7601709" lon="48.7523841"><time>2021-10-23T13:44:09.380</time></trkpt><trkpt lat="55.7601785" lon="48.7524645"><time>2021-10-23T13:44:12.400</time></trkpt><trkpt lat="55.7601896" lon="48.7525528"><time>2021-10-23T13:44:17.373</time></trkpt><trkpt lat="55.7602136" lon="48.7526411"><time>2021-10-23T13:44:21.177</time></trkpt><trkpt lat="55.7602264" lon="48.7527187"><time>2021-10-23T13:44:24.173</time></trkpt><trkpt lat="55.7602429" lon="48.7528021"><time>2021-10-23T13:44:27.367</time></trkpt><trkpt lat="55.7602563" lon="48.7528879"><time>2021-10-23T13:44:31.350</time></trkpt><trkpt lat="55.7602677" lon="48.7529742"><time>2021-10-23T13:44:35.380</time></trkpt><trkpt lat="55.7602780" lon="48.7530761"><time>2021-10-23T13:44:39.370</time></trkpt><trkpt lat="55.7602918" lon="48.7531729"><time>2021-10-23T13:44:43.347</time></trkpt><trkpt lat="55.7603157" lon="48.7532597"><time>2021-10-23T13:44:47.180</time></trkpt><trkpt lat="55.7603363" lon="48.7533602"><time>2021-10-23T13:44:51.347</time></trkpt><trkpt lat="55.7603461" lon="48.7534445"><time>2021-10-23T13:44:54.393</time></trkpt><trkpt lat="55.7603551" lon="48.7535457"><time>2021-10-23T13:44:58.183</time></trkpt><trkpt lat="55.7603633" lon="48.7536741"><time>2021-10-23T13:45:03.267</time></trkpt><trkpt lat="55.7603673" lon="48.7537605"><time>2021-10-23T13:45:06.177</time></trkpt><trkpt lat="55.7603743" lon="48.7538521"><time>2021-10-23T13:45:10.177</time></trkpt><trkpt lat="55.7603893" lon="48.7539472"><time>2021-10-23T13:45:14.173</time></trkpt><trkpt lat="55.7604017" lon="48.7540417"><time>2021-10-23T13:45:18.177</time></trkpt><trkpt lat="55.7604087" lon="48.7541281"><time>2021-10-23T13:45:22.173</time></trkpt><trkpt lat="55.7604196" lon="48.7542100"><time>2021-10-23T13:45:26.177</time></trkpt><trkpt lat="55.7604510" lon="48.7542751"><time>2021-10-23T13:45:37.173</time></trkpt><trkpt lat="55.7604542" lon="48.7543735"><time>2021-10-23T13:45:41.177</time></trkpt><trkpt lat="55.7604562" lon="48.7544571"><time>2021-10-23T13:45:44.173</time></trkpt><trkpt lat="55.7604575" lon="48.7545554"><time>2021-10-23T13:45:48.170</time></trkpt><trkpt lat="55.7604660" lon="48.7546357"><time>2021-10-23T13:45:51.170</time></trkpt><trkpt lat="55.7604799" lon="48.7547362"><time>2021-10-23T13:45:55.170</time></trkpt><trkpt lat="55.7604963" lon="48.7548267"><time>2021-10-23T13:45:59.380</time></trkpt><trkpt lat="55.7605132" lon="48.7549218"><time>2021-10-23T13:46:05.360</time></trkpt><trkpt lat="55.7605230" lon="48.7550008"><time>2021-10-23T13:46:11.407</time></trkpt><trkpt lat="55.7605436" lon="48.7550846"><time>2021-10-23T13:46:15.423</time></trkpt><trkpt lat="55.7605567" lon="48.7551766"><time>2021-10-23T13:46:20.343</time></trkpt><trkpt lat="55.7605681" lon="48.7552795"><time>2021-10-23T13:46:24.353</time></trkpt><trkpt lat="55.7605854" lon="48.7553820"><time>2021-10-23T13:46:28.380</time></trkpt><trkpt lat="55.7605992" lon="48.7554859"><time>2021-10-23T13:46:31.367</time></trkpt><trkpt lat="55.7606157" lon="48.7555639"><time>2021-10-23T13:46:34.387</time></trkpt><trkpt lat="55.7606351" lon="48.7556367"><time>2021-10-23T13:46:38.367</time></trkpt><trkpt lat="55.7606464" lon="48.7557255"><time>2021-10-23T13:46:42.227</time></trkpt><trkpt lat="55.7606512" lon="48.7558179"><time>2021-10-23T13:46:45.520</time></trkpt><trkpt lat="55.7606595" lon="48.7558976"><time>2021-10-23T13:46:48.180</time></trkpt><trkpt lat="55.7606726" lon="48.7559775"><time>2021-10-23T13:46:52.170</time></trkpt><trkpt lat="55.7606995" lon="48.7560775"><time>2021-10-23T13:46:59.173</time></trkpt><trkpt lat="55.7607071" lon="48.7561665"><time>2021-10-23T13:47:01.467</time></trkpt><trkpt lat="55.7607147" lon="48.7562481"><time>2021-10-23T13:47:03.167</time></trkpt><trkpt lat="55.7607262" lon="48.7563423"><time>2021-10-23T13:47:06.180</time></trkpt><trkpt lat="55.7607341" lon="48.7564457"><time>2021-10-23T13:47:10.177</time></trkpt><trkpt lat="55.7607415" lon="48.7565401"><time>2021-10-23T13:47:14.177</time></trkpt><trkpt lat="55.7607425" lon="48.7566314"><time>2021-10-23T13:47:17.173</time></trkpt><trkpt lat="55.7607519" lon="48.7567332"><time>2021-10-23T13:47:20.173</time></trkpt><trkpt lat="55.7607681" lon="48.7568139"><time>2021-10-23T13:47:23.177</time></trkpt><trkpt lat="55.7607808" lon="48.7569053"><time>2021-10-23T13:47:27.173</time></trkpt><trkpt lat="55.7607881" lon="48.7570693"><time>2021-10-23T13:47:33.207</time></trkpt><trkpt lat="55.7607947" lon="48.7571654"><time>2021-10-23T13:47:36.167</time></trkpt><trkpt lat="55.7608072" lon="48.7572634"><time>2021-10-23T13:47:40.170</time></trkpt><trkpt lat="55.7608166" lon="48.7573692"><time>2021-10-23T13:47:43.170</time></trkpt><trkpt lat="55.7608265" lon="48.7574515"><time>2021-10-23T13:47:46.167</time></trkpt><trkpt lat="55.7608388" lon="48.7575639"><time>2021-10-23T13:47:50.187</time></trkpt><trkpt lat="55.7608525" lon="48.7576454"><time>2021-10-23T13:47:53.170</time></trkpt><trkpt lat="55.7608723" lon="48.7577462"><time>2021-10-23T13:47:57.173</time></trkpt><trkpt lat="55.7608895" lon="48.7578483"><time>2021-10-23T13:48:02.173</time></trkpt><trkpt lat="55.7608933" lon="48.7579551"><time>2021-10-23T13:48:05.167</time></trkpt><trkpt lat="55.7608974" lon="48.7580373"><time>2021-10-23T13:48:08.170</time></trkpt><trkpt lat="55.7609056" lon="48.7581232"><time>2021-10-23T13:48:11.173</time></trkpt><trkpt lat="55.7609110" lon="48.7582050"><time>2021-10-23T13:48:14.170</time></trkpt><trkpt lat="55.7609145" lon="48.7582893"><time>2021-10-23T13:48:18.360</time></trkpt><trkpt lat="55.7609262" lon="48.7583688"><time>2021-10-23T13:48:21.377</time></trkpt><trkpt lat="55.7609382" lon="48.7584732"><time>2021-10-23T13:48:25.380</time></trkpt><trkpt lat="55.7609511" lon="48.7585544"><time>2021-10-23T13:48:28.397</time></trkpt><trkpt lat="55.7609659" lon="48.7586327"><time>2021-10-23T13:48:33.343</time></trkpt><trkpt lat="55.7609778" lon="48.7587189"><time>2021-10-23T13:48:38.350</time></trkpt><trkpt lat="55.7609817" lon="48.7588100"><time>2021-10-23T13:48:42.453</time></trkpt><trkpt lat="55.7609903" lon="48.7589071"><time>2021-10-23T13:48:46.350</time></trkpt><trkpt lat="55.7610000" lon="48.7589987"><time>2021-10-23T13:48:50.167</time></trkpt><trkpt lat="55.7610071" lon="48.7590903"><time>2021-10-23T13:48:54.350</time></trkpt><trkpt lat="55.7610165" lon="48.7591749"><time>2021-10-23T13:48:58.173</time></trkpt><trkpt lat="55.7610281" lon="48.7592726"><time>2021-10-23T13:49:02.170</time></trkpt><trkpt lat="55.7610350" lon="48.7593631"><time>2021-10-23T13:49:06.387</time></trkpt><trkpt lat="55.7610467" lon="48.7594480"><time>2021-10-23T13:49:10.377</time></trkpt><trkpt lat="55.7610556" lon="48.7595315"><time>2021-10-23T13:49:14.413</time></trkpt><trkpt lat="55.7610638" lon="48.7596206"><time>2021-10-23T13:49:18.367</time></trkpt><trkpt lat="55.7610899" lon="48.7596997"><time>2021-10-23T13:49:22.177</time></trkpt><trkpt lat="55.7610957" lon="48.7597089"><time>2021-10-23T13:49:30.637</time></trkpt><trkpt lat="55.7610738" lon="48.7596141"><time>2021-10-23T13:49:42.173</time></trkpt><trkpt lat="55.7610634" lon="48.7595327"><time>2021-10-23T13:49:47.383</time></trkpt><trkpt lat="55.7610418" lon="48.7594461"><time>2021-10-23T13:49:53.370</time></trkpt><trkpt lat="55.7610197" lon="48.7593560"><time>2021-10-23T13:49:59.377</time></trkpt><trkpt lat="55.7609995" lon="48.7592660"><time>2021-10-23T13:50:05.367</time></trkpt><trkpt lat="55.7609887" lon="48.7591832"><time>2021-10-23T13:50:10.177</time></trkpt><trkpt lat="55.7609831" lon="48.7590986"><time>2021-10-23T13:50:15.170</time></trkpt><trkpt lat="55.7609743" lon="48.7590117"><time>2021-10-23T13:50:19.473</time></trkpt><trkpt lat="55.7609647" lon="48.7589318"><time>2021-10-23T13:50:22.170</time></trkpt><trkpt lat="55.7609502" lon="48.7588470"><time>2021-10-23T13:50:26.173</time></trkpt><trkpt lat="55.7609405" lon="48.7587544"><time>2021-10-23T13:50:30.173</time></trkpt><trkpt lat="55.7609397" lon="48.7586615"><time>2021-10-23T13:50:35.170</time></trkpt><trkpt lat="55.7609349" lon="48.7585658"><time>2021-10-23T13:50:39.383</time></trkpt><trkpt lat="55.7609292" lon="48.7584724"><time>2021-10-23T13:50:43.357</time></trkpt><trkpt lat="55.7609235" lon="48.7583892"><time>2021-10-23T13:50:47.367</time></trkpt><trkpt lat="55.7609026" lon="48.7583124"><time>2021-10-23T13:50:51.387</time></trkpt><trkpt lat="55.7608869" lon="48.7582224"><time>2021-10-23T13:50:55.417</time></trkpt><trkpt lat="55.7608763" lon="48.7581279"><time>2021-10-23T13:50:59.370</time></trkpt><trkpt lat="55.7608721" lon="48.7580246"><time>2021-10-23T13:51:03.357</time></trkpt><trkpt lat="55.7608662" lon="48.7579212"><time>2021-10-23T13:51:07.367</time></trkpt><trkpt lat="55.7608553" lon="48.7578291"><time>2021-10-23T13:51:11.367</time></trkpt><trkpt lat="55.7608445" lon="48.7577380"><time>2021-10-23T13:51:15.380</time></trkpt><trkpt lat="55.7608399" lon="48.7576505"><time>2021-10-23T13:51:19.347</time></trkpt><trkpt lat="55.7608319" lon="48.7575643"><time>2021-10-23T13:51:23.173</time></trkpt><trkpt lat="55.7608216" lon="48.7574730"><time>2021-10-23T13:51:27.370</time></trkpt><trkpt lat="55.7608108" lon="48.7573801"><time>2021-10-23T13:51:31.373</time></trkpt><trkpt lat="55.7607910" lon="48.7572874"><time>2021-10-23T13:51:35.393</time></trkpt><trkpt lat="55.7607774" lon="48.7571964"><time>2021-10-23T13:51:39.393</time></trkpt><trkpt lat="55.7607671" lon="48.7571047"><time>2021-10-23T13:51:43.380</time></trkpt><trkpt lat="55.7607588" lon="48.7570115"><time>2021-10-23T13:51:47.180</time></trkpt><trkpt lat="55.7607417" lon="48.7569233"><time>2021-10-23T13:51:51.347</time></trkpt><trkpt lat="55.7607306" lon="48.7568459"><time>2021-10-23T13:51:55.383</time></trkpt><trkpt lat="55.7607138" lon="48.7567475"><time>2021-10-23T13:51:59.360</time></trkpt><trkpt lat="55.7606940" lon="48.7566674"><time>2021-10-23T13:52:03.350</time></trkpt><trkpt lat="55.7606759" lon="48.7565816"><time>2021-10-23T13:52:07.380</time></trkpt><trkpt lat="55.7606735" lon="48.7564902"><time>2021-10-23T13:52:10.387</time></trkpt><trkpt lat="55.7606623" lon="48.7563922"><time>2021-10-23T13:52:15.380</time></trkpt><trkpt lat="55.7606566" lon="48.7562942"><time>2021-10-23T13:52:19.360</time></trkpt><trkpt lat="55.7606405" lon="48.7562123"><time>2021-10-23T13:52:24.387</time></trkpt><trkpt lat="55.7606245" lon="48.7561217"><time>2021-10-23T13:52:28.367</time></trkpt><trkpt lat="55.7606135" lon="48.7560242"><time>2021-10-23T13:52:31.370</time></trkpt><trkpt lat="55.7606016" lon="48.7559457"><time>2021-10-23T13:52:34.367</time></trkpt><trkpt lat="55.7605867" lon="48.7558681"><time>2021-10-23T13:52:37.397</time></trkpt><trkpt lat="55.7605730" lon="48.7557757"><time>2021-10-23T13:52:40.397</time></trkpt><trkpt lat="55.7605594" lon="48.7556817"><time>2021-10-23T13:52:44.397</time></trkpt><trkpt lat="55.7605573" lon="48.7555843"><time>2021-10-23T13:52:48.393</time></trkpt><trkpt lat="55.7605441" lon="48.7554785"><time>2021-10-23T13:52:53.390</time></trkpt><trkpt lat="55.7605294" lon="48.7553803"><time>2021-10-23T13:52:57.390</time></trkpt><trkpt lat="55.7605109" lon="48.7552992"><time>2021-10-23T13:53:01.187</time></trkpt><trkpt lat="55.7604900" lon="48.7552048"><time>2021-10-23T13:53:05.373</time></trkpt><trkpt lat="55.7604845" lon="48.7551116"><time>2021-10-23T13:53:09.350</time></trkpt><trkpt lat="55.7604692" lon="48.7550244"><time>2021-10-23T13:53:13.370</time></trkpt><trkpt lat="55.7604611" lon="48.7549420"><time>2021-10-23T13:53:16.387</time></trkpt><trkpt lat="55.7604447" lon="48.7548624"><time>2021-10-23T13:53:20.387</time></trkpt><trkpt lat="55.7604228" lon="48.7547729"><time>2021-10-23T13:53:24.177</time></trkpt><trkpt lat="55.7604041" lon="48.7546896"><time>2021-10-23T13:53:29.347</time></trkpt><trkpt lat="55.7603896" lon="48.7546026"><time>2021-10-23T13:53:34.343</time></trkpt><trkpt lat="55.7603777" lon="48.7545166"><time>2021-10-23T13:53:38.380</time></trkpt><trkpt lat="55.7603770" lon="48.7544339"><time>2021-10-23T13:53:41.367</time></trkpt><trkpt lat="55.7603701" lon="48.7543436"><time>2021-10-23T13:53:45.357</time></trkpt><trkpt lat="55.7603512" lon="48.7542588"><time>2021-10-23T13:53:49.350</time></trkpt><trkpt lat="55.7603378" lon="48.7541701"><time>2021-10-23T13:53:54.347</time></trkpt><trkpt lat="55.7603274" lon="48.7540737"><time>2021-10-23T13:53:58.347</time></trkpt><trkpt lat="55.7603162" lon="48.7539719"><time>2021-10-23T13:54:03.343</time></trkpt><trkpt lat="55.7603102" lon="48.7538909"><time>2021-10-23T13:54:06.347</time></trkpt><trkpt lat="55.7602957" lon="48.7537971"><time>2021-10-23T13:54:10.347</time></trkpt><trkpt lat="55.7602854" lon="48.7537010"><time>2021-10-23T13:54:13.353</time></trkpt><trkpt lat="55.7602688" lon="48.7536165"><time>2021-10-23T13:54:19.350</time></trkpt><trkpt lat="55.7602488" lon="48.7535205"><time>2021-10-23T13:54:24.350</time></trkpt><trkpt lat="55.7602329" lon="48.7534378"><time>2021-10-23T13:54:28.363</time></trkpt><trkpt lat="55.7602143" lon="48.7533494"><time>2021-10-23T13:54:33.370</time></trkpt><trkpt lat="55.7601910" lon="48.7532709"><time>2021-10-23T13:54:37.363</time></trkpt><trkpt lat="55.7601723" lon="48.7531770"><time>2021-10-23T13:54:41.383</time></trkpt><trkpt lat="55.7601469" lon="48.7531054"><time>2021-10-23T13:54:45.383</time></trkpt><trkpt lat="55.7601154" lon="48.7530330"><time>2021-10-23T13:54:50.387</time></trkpt><trkpt lat="55.7600895" lon="48.7529393"><time>2021-10-23T13:54:54.387</time></trkpt><trkpt lat="55.7600802" lon="48.7528418"><time>2021-10-23T13:54:57.397</time></trkpt><trkpt lat="55.7600718" lon="48.7527396"><time>2021-10-23T13:55:00.177</time></trkpt><trkpt lat="55.7600623" lon="48.7526377"><time>2021-10-23T13:55:03.177</time></trkpt><trkpt lat="55.7600546" lon="48.7525446"><time>2021-10-23T13:55:07.380</time></trkpt><trkpt lat="55.7600407" lon="48.7524490"><time>2021-10-23T13:55:11.277</time></trkpt><trkpt lat="55.7600288" lon="48.7523714"><time>2021-10-23T13:55:14.387</time></trkpt><trkpt lat="55.7600056" lon="48.7522947"><time>2021-10-23T13:55:17.370</time></trkpt><trkpt lat="55.7599752" lon="48.7522192"><time>2021-10-23T13:55:20.367</time></trkpt><trkpt lat="55.7599180" lon="48.7521562"><time>2021-10-23T13:55:25.390</time></trkpt><trkpt lat="55.7598648" lon="48.7521331"><time>2021-10-23T13:55:29.177</time></trkpt><trkpt lat="55.7598082" lon="48.7521003"><time>2021-10-23T13:55:33.180</time></trkpt><trkpt lat="55.7597608" lon="48.7520767"><time>2021-10-23T13:55:36.363</time></trkpt><trkpt lat="55.7597092" lon="48.7520477"><time>2021-10-23T13:55:39.367</time></trkpt><trkpt lat="55.7596642" lon="48.7520175"><time>2021-10-23T13:55:42.383</time></trkpt><trkpt lat="55.7596193" lon="48.7520144"><time>2021-10-23T13:55:46.173</time></trkpt><trkpt lat="55.7595673" lon="48.7520364"><time>2021-10-23T13:55:50.367</time></trkpt><trkpt lat="55.7595147" lon="48.7520569"><time>2021-10-23T13:55:54.370</time></trkpt><trkpt lat="55.7594692" lon="48.7520797"><time>2021-10-23T13:55:57.367</time></trkpt><trkpt lat="55.7594260" lon="48.7521153"><time>2021-10-23T13:56:01.390</time></trkpt><trkpt lat="55.7593768" lon="48.7521649"><time>2021-10-23T13:56:06.180</time></trkpt><trkpt lat="55.7593250" lon="48.7521909"><time>2021-10-23T13:56:10.387</time></trkpt><trkpt lat="55.7592740" lon="48.7522162"><time>2021-10-23T13:56:13.383</time></trkpt><trkpt lat="55.7592306" lon="48.7522465"><time>2021-10-23T13:56:16.377</time></trkpt><trkpt lat="55.7591853" lon="48.7522746"><time>2021-10-23T13:56:19.387</time></trkpt><trkpt lat="55.7591387" lon="48.7523143"><time>2021-10-23T13:56:23.397</time></trkpt><trkpt lat="55.7590942" lon="48.7523571"><time>2021-10-23T13:56:27.177</time></trkpt><trkpt lat="55.7590412" lon="48.7523969"><time>2021-10-23T13:56:31.380</time></trkpt><trkpt lat="55.7589988" lon="48.7524297"><time>2021-10-23T13:56:34.370</time></trkpt><trkpt lat="55.7589612" lon="48.7524864"><time>2021-10-23T13:56:39.360</time></trkpt><trkpt lat="55.7589092" lon="48.7525196"><time>2021-10-23T13:56:43.380</time></trkpt><trkpt lat="55.7588660" lon="48.7525478"><time>2021-10-23T13:56:46.183</time></trkpt><trkpt lat="55.7588141" lon="48.7525810"><time>2021-10-23T13:56:50.173</time></trkpt><trkpt lat="55.7587710" lon="48.7526064"><time>2021-10-23T13:56:53.173</time></trkpt><trkpt lat="55.7587208" lon="48.7526387"><time>2021-10-23T13:56:57.177</time></trkpt><trkpt lat="55.7586726" lon="48.7526514"><time>2021-10-23T13:57:01.173</time></trkpt><trkpt lat="55.7586258" lon="48.7526794"><time>2021-10-23T13:57:05.170</time></trkpt><trkpt lat="55.7585780" lon="48.7527172"><time>2021-10-23T13:57:09.383</time></trkpt><trkpt lat="55.7585250" lon="48.7527528"><time>2021-10-23T13:57:12.363</time></trkpt><trkpt lat="55.7584835" lon="48.7527861"><time>2021-10-23T13:57:15.177</time></trkpt><trkpt lat="55.7584219" lon="48.7528057"><time>2021-10-23T13:57:19.377</time></trkpt><trkpt lat="55.7583687" lon="48.7528336"><time>2021-10-23T13:57:23.377</time></trkpt><trkpt lat="55.7583245" lon="48.7528634"><time>2021-10-23T13:57:26.387</time></trkpt><trkpt lat="55.7582662" lon="48.7528952"><time>2021-10-23T13:57:30.177</time></trkpt><trkpt lat="55.7582236" lon="48.7529216"><time>2021-10-23T13:57:34.350</time></trkpt><trkpt lat="55.7581761" lon="48.7529539"><time>2021-10-23T13:57:38.367</time></trkpt><trkpt lat="55.7581211" lon="48.7529923"><time>2021-10-23T13:57:42.363</time></trkpt><trkpt lat="55.7580754" lon="48.7530162"><time>2021-10-23T13:57:45.380</time></trkpt><trkpt lat="55.7580337" lon="48.7530496"><time>2021-10-23T13:57:49.370</time></trkpt><trkpt lat="55.7579885" lon="48.7530795"><time>2021-10-23T13:57:53.383</time></trkpt><trkpt lat="55.7579323" lon="48.7531083"><time>2021-10-23T13:57:57.380</time></trkpt><trkpt lat="55.7578902" lon="48.7531500"><time>2021-10-23T13:58:01.377</time></trkpt><trkpt lat="55.7578366" lon="48.7531868"><time>2021-10-23T13:58:05.390</time></trkpt><trkpt lat="55.7577939" lon="48.7532169"><time>2021-10-23T13:58:08.370</time></trkpt><trkpt lat="55.7577452" lon="48.7532500"><time>2021-10-23T13:58:12.367</time></trkpt><trkpt lat="55.7576907" lon="48.7532976"><time>2021-10-23T13:58:17.367</time></trkpt><trkpt lat="55.7576385" lon="48.7533270"><time>2021-10-23T13:58:21.353</time></trkpt><trkpt lat="55.7575928" lon="48.7533526"><time>2021-10-23T13:58:24.397</time></trkpt><trkpt lat="55.7575393" lon="48.7533868"><time>2021-10-23T13:58:28.180</time></trkpt><trkpt lat="55.7574935" lon="48.7534128"><time>2021-10-23T13:58:32.370</time></trkpt><trkpt lat="55.7574502" lon="48.7534355"><time>2021-10-23T13:58:36.383</time></trkpt><trkpt lat="55.7574043" lon="48.7534731"><time>2021-10-23T13:58:41.173</time></trkpt><trkpt lat="55.7573550" lon="48.7535119"><time>2021-10-23T13:58:47.397</time></trkpt><trkpt lat="55.7573095" lon="48.7535241"><time>2021-10-23T13:58:53.367</time></trkpt><trkpt lat="55.7572596" lon="48.7535529"><time>2021-10-23T13:59:00.167</time></trkpt><trkpt lat="55.7572005" lon="48.7535667"><time>2021-10-23T13:59:03.393</time></trkpt><trkpt lat="55.7571482" lon="48.7535908"><time>2021-10-23T13:59:07.180</time></trkpt><trkpt lat="55.7570960" lon="48.7536255"><time>2021-10-23T13:59:11.177</time></trkpt><trkpt lat="55.7570470" lon="48.7536414"><time>2021-10-23T13:59:14.380</time></trkpt><trkpt lat="55.7569998" lon="48.7536647"><time>2021-10-23T13:59:17.370</time></trkpt><trkpt lat="55.7569618" lon="48.7537311"><time>2021-10-23T13:59:25.380</time></trkpt><trkpt lat="55.7569097" lon="48.7537538"><time>2021-10-23T13:59:29.180</time></trkpt><trkpt lat="55.7568576" lon="48.7537661"><time>2021-10-23T13:59:34.167</time></trkpt><trkpt lat="55.7568071" lon="48.7537856"><time>2021-10-23T13:59:38.170</time></trkpt><trkpt lat="55.7567607" lon="48.7538177"><time>2021-10-23T13:59:42.173</time></trkpt><trkpt lat="55.7567000" lon="48.7538324"><time>2021-10-23T13:59:46.390</time></trkpt><trkpt lat="55.7566495" lon="48.7538374"><time>2021-10-23T13:59:49.177</time></trkpt><trkpt lat="55.7566020" lon="48.7538662"><time>2021-10-23T13:59:53.387</time></trkpt><trkpt lat="55.7565556" lon="48.7538927"><time>2021-10-23T13:59:57.367</time></trkpt><trkpt lat="55.7565027" lon="48.7539165"><time>2021-10-23T14:00:01.173</time></trkpt><trkpt lat="55.7564554" lon="48.7539450"><time>2021-10-23T14:00:05.350</time></trkpt><trkpt lat="55.7564016" lon="48.7539683"><time>2021-10-23T14:00:09.373</time></trkpt><trkpt lat="55.7563482" lon="48.7539805"><time>2021-10-23T14:00:13.350</time></trkpt><trkpt lat="55.7562917" lon="48.7539773"><time>2021-10-23T14:00:17.347</time></trkpt><trkpt lat="55.7562354" lon="48.7539588"><time>2021-10-23T14:00:21.397</time></trkpt><trkpt lat="55.7561875" lon="48.7539364"><time>2021-10-23T14:00:25.357</time></trkpt><trkpt lat="55.7561439" lon="48.7538864"><time>2021-10-23T14:00:30.350</time></trkpt><trkpt lat="55.7560853" lon="48.7538864"><time>2021-10-23T14:00:35.377</time></trkpt><trkpt lat="55.7560395" lon="48.7538728"><time>2021-10-23T14:00:38.353</time></trkpt><trkpt lat="55.7559877" lon="48.7538379"><time>2021-10-23T14:00:41.357</time></trkpt><trkpt lat="55.7559326" lon="48.7537999"><time>2021-10-23T14:00:44.453</time></trkpt><trkpt lat="55.7558781" lon="48.7537767"><time>2021-10-23T14:00:47.393</time></trkpt><trkpt lat="55.7558309" lon="48.7537604"><time>2021-10-23T14:00:50.353</time></trkpt><trkpt lat="55.7557861" lon="48.7537693"><time>2021-10-23T14:00:54.357</time></trkpt><trkpt lat="55.7557353" lon="48.7537760"><time>2021-10-23T14:00:57.393</time></trkpt><trkpt lat="55.7556721" lon="48.7537604"><time>2021-10-23T14:01:00.397</time></trkpt><trkpt lat="55.7556265" lon="48.7537436"><time>2021-10-23T14:01:03.350</time></trkpt><trkpt lat="55.7555758" lon="48.7537777"><time>2021-10-23T14:01:08.400</time></trkpt><trkpt lat="55.7555510" lon="48.7538711"><time>2021-10-23T14:01:13.407</time></trkpt><trkpt lat="55.7555243" lon="48.7539443"><time>2021-10-23T14:01:17.383</time></trkpt><trkpt lat="55.7554872" lon="48.7540243"><time>2021-10-23T14:01:21.397</time></trkpt><trkpt lat="55.7554559" lon="48.7540926"><time>2021-10-23T14:01:24.353</time></trkpt><trkpt lat="55.7554206" lon="48.7541702"><time>2021-10-23T14:01:28.397</time></trkpt><trkpt lat="55.7553844" lon="48.7542370"><time>2021-10-23T14:01:32.183</time></trkpt><trkpt lat="55.7553439" lon="48.7542721"><time>2021-10-23T14:01:36.373</time></trkpt><trkpt lat="55.7552999" lon="48.7542949"><time>2021-10-23T14:01:39.383</time></trkpt><trkpt lat="55.7552489" lon="48.7543322"><time>2021-10-23T14:01:43.367</time></trkpt><trkpt lat="55.7552027" lon="48.7543475"><time>2021-10-23T14:01:46.383</time></trkpt><trkpt lat="55.7551444" lon="48.7543458"><time>2021-10-23T14:01:49.177</time></trkpt><trkpt lat="55.7550890" lon="48.7543587"><time>2021-10-23T14:01:53.383</time></trkpt><trkpt lat="55.7550366" lon="48.7543907"><time>2021-10-23T14:01:57.393</time></trkpt><trkpt lat="55.7549865" lon="48.7544309"><time>2021-10-23T14:02:01.397</time></trkpt><trkpt lat="55.7549301" lon="48.7544423"><time>2021-10-23T14:02:05.383</time></trkpt><trkpt lat="55.7548807" lon="48.7544591"><time>2021-10-23T14:02:10.373</time></trkpt><trkpt lat="55.7548333" lon="48.7544601"><time>2021-10-23T14:02:14.377</time></trkpt><trkpt lat="55.7547794" lon="48.7544507"><time>2021-10-23T14:02:19.397</time></trkpt><trkpt lat="55.7547298" lon="48.7544315"><time>2021-10-23T14:02:24.377</time></trkpt><trkpt lat="55.7546805" lon="48.7544381"><time>2021-10-23T14:02:28.363</time></trkpt><trkpt lat="55.7546292" lon="48.7544667"><time>2021-10-23T14:02:32.177</time></trkpt><trkpt lat="55.7545844" lon="48.7544836"><time>2021-10-23T14:02:35.177</time></trkpt><trkpt lat="55.7545399" lon="48.7545021"><time>2021-10-23T14:02:41.380</time></trkpt><trkpt lat="55.7544896" lon="48.7545218"><time>2021-10-23T14:02:47.377</time></trkpt><trkpt lat="55.7544438" lon="48.7545369"><time>2021-10-23T14:02:50.380</time></trkpt><trkpt lat="55.7543933" lon="48.7545465"><time>2021-10-23T14:02:53.393</time></trkpt><trkpt lat="55.7543399" lon="48.7545447"><time>2021-10-23T14:02:57.397</time></trkpt><trkpt lat="55.7542911" lon="48.7545422"><time>2021-10-23T14:03:00.400</time></trkpt><trkpt lat="55.7542444" lon="48.7545418"><time>2021-10-23T14:03:04.397</time></trkpt><trkpt lat="55.7541987" lon="48.7545679"><time>2021-10-23T14:03:08.400</time></trkpt><trkpt lat="55.7541597" lon="48.7546095"><time>2021-10-23T14:03:12.377</time></trkpt><trkpt lat="55.7541080" lon="48.7546149"><time>2021-10-23T14:03:17.387</time></trkpt><trkpt lat="55.7540622" lon="48.7546192"><time>2021-10-23T14:03:20.373</time></trkpt><trkpt lat="55.7540137" lon="48.7546316"><time>2021-10-23T14:03:23.340</time></trkpt><trkpt lat="55.7539571" lon="48.7546333"><time>2021-10-23T14:03:28.383</time></trkpt><trkpt lat="55.7539109" lon="48.7546245"><time>2021-10-23T14:03:31.177</time></trkpt><trkpt lat="55.7538524" lon="48.7546230"><time>2021-10-23T14:03:35.347</time></trkpt><trkpt lat="55.7537934" lon="48.7546136"><time>2021-10-23T14:03:39.380</time></trkpt><trkpt lat="55.7537414" lon="48.7545757"><time>2021-10-23T14:03:43.383</time></trkpt><trkpt lat="55.7536936" lon="48.7545852"><time>2021-10-23T14:03:46.350</time></trkpt><trkpt lat="55.7536427" lon="48.7545900"><time>2021-10-23T14:03:49.367</time></trkpt><trkpt lat="55.7535962" lon="48.7545827"><time>2021-10-23T14:03:52.367</time></trkpt><trkpt lat="55.7535470" lon="48.7545816"><time>2021-10-23T14:03:55.400</time></trkpt><trkpt lat="55.7534980" lon="48.7545964"><time>2021-10-23T14:03:58.357</time></trkpt><trkpt lat="55.7534405" lon="48.7546100"><time>2021-10-23T14:04:02.343</time></trkpt><trkpt lat="55.7533871" lon="48.7546130"><time>2021-10-23T14:04:06.340</time></trkpt><trkpt lat="55.7533414" lon="48.7546084"><time>2021-10-23T14:04:11.367</time></trkpt><trkpt lat="55.7532880" lon="48.7546216"><time>2021-10-23T14:04:16.360</time></trkpt><trkpt lat="55.7532291" lon="48.7546209"><time>2021-10-23T14:04:20.350</time></trkpt><trkpt lat="55.7531803" lon="48.7546156"><time>2021-10-23T14:04:23.343</time></trkpt><trkpt lat="55.7531336" lon="48.7546017"><time>2021-10-23T14:04:26.343</time></trkpt><trkpt lat="55.7530947" lon="48.7545596"><time>2021-10-23T14:04:31.173</time></trkpt><trkpt lat="55.7530797" lon="48.7544728"><time>2021-10-23T14:04:35.493</time></trkpt><trkpt lat="55.7530670" lon="48.7543745"><time>2021-10-23T14:04:39.393</time></trkpt><trkpt lat="55.7530636" lon="48.7542714"><time>2021-10-23T14:04:43.383</time></trkpt><trkpt lat="55.7530556" lon="48.7541780"><time>2021-10-23T14:04:47.177</time></trkpt><trkpt lat="55.7529994" lon="48.7541678"><time>2021-10-23T14:04:51.357</time></trkpt><trkpt lat="55.7529497" lon="48.7541565"><time>2021-10-23T14:04:55.393</time></trkpt><trkpt lat="55.7528962" lon="48.7541488"><time>2021-10-23T14:04:59.390</time></trkpt><trkpt lat="55.7528475" lon="48.7541433"><time>2021-10-23T14:05:02.383</time></trkpt><trkpt lat="55.7527979" lon="48.7541446"><time>2021-10-23T14:05:06.397</time></trkpt><trkpt lat="55.7527399" lon="48.7541365"><time>2021-10-23T14:05:10.377</time></trkpt><trkpt lat="55.7526970" lon="48.7541021"><time>2021-10-23T14:05:13.400</time></trkpt><trkpt lat="55.7526514" lon="48.7540852"><time>2021-10-23T14:05:16.360</time></trkpt><trkpt lat="55.7526028" lon="48.7540802"><time>2021-10-23T14:05:19.377</time></trkpt><trkpt lat="55.7525572" lon="48.7540809"><time>2021-10-23T14:05:23.383</time></trkpt><trkpt lat="55.7525086" lon="48.7540837"><time>2021-10-23T14:05:26.393</time></trkpt><trkpt lat="55.7524569" lon="48.7540799"><time>2021-10-23T14:05:31.387</time></trkpt><trkpt lat="55.7524071" lon="48.7540612"><time>2021-10-23T14:05:34.183</time></trkpt><trkpt lat="55.7523522" lon="48.7540467"><time>2021-10-23T14:05:37.180</time></trkpt><trkpt lat="55.7522917" lon="48.7540199"><time>2021-10-23T14:05:41.403</time></trkpt><trkpt lat="55.7522390" lon="48.7539997"><time>2021-10-23T14:05:44.370</time></trkpt><trkpt lat="55.7521873" lon="48.7539790"><time>2021-10-23T14:05:47.377</time></trkpt><trkpt lat="55.7521388" lon="48.7539683"><time>2021-10-23T14:05:50.350</time></trkpt><trkpt lat="55.7520920" lon="48.7539663"><time>2021-10-23T14:05:53.383</time></trkpt><trkpt lat="55.7520434" lon="48.7539585"><time>2021-10-23T14:05:56.370</time></trkpt><trkpt lat="55.7519883" lon="48.7539631"><time>2021-10-23T14:06:01.387</time></trkpt><trkpt lat="55.7519378" lon="48.7539682"><time>2021-10-23T14:06:05.357</time></trkpt><trkpt lat="55.7518896" lon="48.7539122"><time>2021-10-23T14:06:10.373</time></trkpt><trkpt lat="55.7518448" lon="48.7538727"><time>2021-10-23T14:06:14.373</time></trkpt><trkpt lat="55.7517956" lon="48.7538616"><time>2021-10-23T14:06:18.387</time></trkpt><trkpt lat="55.7517365" lon="48.7538513"><time>2021-10-23T14:06:22.400</time></trkpt><trkpt lat="55.7516840" lon="48.7538280"><time>2021-10-23T14:06:26.400</time></trkpt><trkpt lat="55.7516263" lon="48.7538297"><time>2021-10-23T14:06:29.383</time></trkpt><trkpt lat="55.7515791" lon="48.7538233"><time>2021-10-23T14:06:32.400</time></trkpt><trkpt lat="55.7515369" lon="48.7537761"><time>2021-10-23T14:06:34.403</time></trkpt><trkpt lat="55.7514910" lon="48.7537456"><time>2021-10-23T14:06:36.367</time></trkpt><trkpt lat="55.7514485" lon="48.7537083"><time>2021-10-23T14:06:39.180</time></trkpt><trkpt lat="55.7514001" lon="48.7536746"><time>2021-10-23T14:06:42.390</time></trkpt><trkpt lat="55.7513517" lon="48.7536926"><time>2021-10-23T14:06:47.367</time></trkpt><trkpt lat="55.7513011" lon="48.7536958"><time>2021-10-23T14:06:56.397</time></trkpt><trkpt lat="55.7512522" lon="48.7536582"><time>2021-10-23T14:07:02.397</time></trkpt><trkpt lat="55.7512175" lon="48.7535796"><time>2021-10-23T14:07:06.387</time></trkpt><trkpt lat="55.7511857" lon="48.7535070"><time>2021-10-23T14:07:10.380</time></trkpt><trkpt lat="55.7511670" lon="48.7534340"><time>2021-10-23T14:07:15.397</time></trkpt><trkpt lat="55.7511170" lon="48.7534115"><time>2021-10-23T14:07:20.383</time></trkpt><trkpt lat="55.7510751" lon="48.7533791"><time>2021-10-23T14:07:24.397</time></trkpt><trkpt lat="55.7510406" lon="48.7534313"><time>2021-10-23T14:07:35.183</time></trkpt><trkpt lat="55.7510610" lon="48.7534857"><time>2021-10-23T14:07:54.867</time></trkpt><trkpt lat="55.7510788" lon="48.7534742"><time>2021-10-23T14:08:05.173</time></trkpt><trkpt lat="55.7510511" lon="48.7534070"><time>2021-10-23T14:08:13.423</time></trkpt><trkpt lat="55.7510267" lon="48.7533222"><time>2021-10-23T14:08:18.397</time></trkpt><trkpt lat="55.7510055" lon="48.7532510"><time>2021-10-23T14:08:21.177</time></trkpt><trkpt lat="55.7509784" lon="48.7531779"><time>2021-10-23T14:08:24.177</time></trkpt><trkpt lat="55.7509567" lon="48.7531044"><time>2021-10-23T14:08:28.377</time></trkpt><trkpt lat="55.7509408" lon="48.7530239"><time>2021-10-23T14:08:31.373</time></trkpt><trkpt lat="55.7509248" lon="48.7529345"><time>2021-10-23T14:08:35.367</time></trkpt><trkpt lat="55.7508959" lon="48.7528641"><time>2021-10-23T14:08:43.177</time></trkpt><trkpt lat="55.7508799" lon="48.7527786"><time>2021-10-23T14:08:48.177</time></trkpt><trkpt lat="55.7508615" lon="48.7526950"><time>2021-10-23T14:08:52.173</time></trkpt><trkpt lat="55.7508486" lon="48.7526099"><time>2021-10-23T14:08:56.173</time></trkpt><trkpt lat="55.7508370" lon="48.7525261"><time>2021-10-23T14:09:00.173</time></trkpt><trkpt lat="55.7508219" lon="48.7524466"><time>2021-10-23T14:09:05.183</time></trkpt><trkpt lat="55.7508089" lon="48.7523573"><time>2021-10-23T14:09:15.370</time></trkpt><trkpt lat="55.7508128" lon="48.7522657"><time>2021-10-23T14:09:19.387</time></trkpt><trkpt lat="55.7508157" lon="48.7521704"><time>2021-10-23T14:09:22.383</time></trkpt><trkpt lat="55.7508250" lon="48.7520915"><time>2021-10-23T14:09:25.407</time></trkpt><trkpt lat="55.7508422" lon="48.7519964"><time>2021-10-23T14:09:30.380</time></trkpt><trkpt lat="55.7508574" lon="48.7519078"><time>2021-10-23T14:09:34.177</time></trkpt><trkpt lat="55.7508700" lon="48.7518312"><time>2021-10-23T14:09:38.177</time></trkpt><trkpt lat="55.7508895" lon="48.7517548"><time>2021-10-23T14:09:44.190</time></trkpt><trkpt lat="55.7508991" lon="48.7516633"><time>2021-10-23T14:09:49.400</time></trkpt><trkpt lat="55.7509092" lon="48.7515696"><time>2021-10-23T14:09:54.357</time></trkpt><trkpt lat="55.7509250" lon="48.7514686"><time>2021-10-23T14:09:58.407</time></trkpt><trkpt lat="55.7509512" lon="48.7513251"><time>2021-10-23T14:10:02.433</time></trkpt><trkpt lat="55.7509625" lon="48.7512403"><time>2021-10-23T14:10:05.390</time></trkpt><trkpt lat="55.7509731" lon="48.7511557"><time>2021-10-23T14:10:09.390</time></trkpt><trkpt lat="55.7509868" lon="48.7510634"><time>2021-10-23T14:10:14.393</time></trkpt><trkpt lat="55.7509982" lon="48.7509684"><time>2021-10-23T14:10:18.383</time></trkpt><trkpt lat="55.7510072" lon="48.7508761"><time>2021-10-23T14:10:22.177</time></trkpt><trkpt lat="55.7509841" lon="48.7506999"><time>2021-10-23T14:10:29.460</time></trkpt><trkpt lat="55.7509362" lon="48.7506294"><time>2021-10-23T14:10:33.363</time></trkpt><trkpt lat="55.7508963" lon="48.7505734"><time>2021-10-23T14:10:36.363</time></trkpt><trkpt lat="55.7508470" lon="48.7505156"><time>2021-10-23T14:10:40.417</time></trkpt><trkpt lat="55.7507935" lon="48.7504657"><time>2021-10-23T14:10:43.180</time></trkpt><trkpt lat="55.7507472" lon="48.7504216"><time>2021-10-23T14:10:46.390</time></trkpt><trkpt lat="55.7506943" lon="48.7503821"><time>2021-10-23T14:10:50.177</time></trkpt><trkpt lat="55.7506405" lon="48.7503562"><time>2021-10-23T14:10:54.347</time></trkpt><trkpt lat="55.7506103" lon="48.7502968"><time>2021-10-23T14:10:58.380</time></trkpt><trkpt lat="55.7506138" lon="48.7501981"><time>2021-10-23T14:11:02.380</time></trkpt><trkpt lat="55.7506308" lon="48.7501043"><time>2021-10-23T14:11:06.353</time></trkpt><trkpt lat="55.7506470" lon="48.7500107"><time>2021-10-23T14:11:11.383</time></trkpt><trkpt lat="55.7506561" lon="48.7499281"><time>2021-10-23T14:11:15.387</time></trkpt><trkpt lat="55.7506687" lon="48.7498498"><time>2021-10-23T14:11:19.393</time></trkpt><trkpt lat="55.7506738" lon="48.7497661"><time>2021-10-23T14:11:22.367</time></trkpt><trkpt lat="55.7506817" lon="48.7496789"><time>2021-10-23T14:11:26.357</time></trkpt><trkpt lat="55.7506746" lon="48.7495958"><time>2021-10-23T14:11:30.397</time></trkpt><trkpt lat="55.7506435" lon="48.7495191"><time>2021-10-23T14:11:34.380</time></trkpt><trkpt lat="55.7505942" lon="48.7494879"><time>2021-10-23T14:11:38.357</time></trkpt><trkpt lat="55.7505381" lon="48.7494739"><time>2021-10-23T14:11:42.183</time></trkpt><trkpt lat="55.7504926" lon="48.7494778"><time>2021-10-23T14:11:46.400</time></trkpt><trkpt lat="55.7504383" lon="48.7494710"><time>2021-10-23T14:11:57.380</time></trkpt><trkpt lat="55.7503906" lon="48.7494661"><time>2021-10-23T14:12:02.407</time></trkpt><trkpt lat="55.7503433" lon="48.7494662"><time>2021-10-23T14:12:06.383</time></trkpt><trkpt lat="55.7502949" lon="48.7494769"><time>2021-10-23T14:12:10.390</time></trkpt><trkpt lat="55.7502390" lon="48.7494804"><time>2021-10-23T14:12:16.177</time></trkpt><trkpt lat="55.7501849" lon="48.7494671"><time>2021-10-23T14:12:20.350</time></trkpt><trkpt lat="55.7501379" lon="48.7494607"><time>2021-10-23T14:12:23.360</time></trkpt><trkpt lat="55.7500910" lon="48.7494682"><time>2021-10-23T14:12:27.260</time></trkpt><trkpt lat="55.7500398" lon="48.7494632"><time>2021-10-23T14:12:31.377</time></trkpt><trkpt lat="55.7499853" lon="48.7494756"><time>2021-10-23T14:12:35.370</time></trkpt><trkpt lat="55.7499381" lon="48.7494841"><time>2021-10-23T14:12:39.343</time></trkpt><trkpt lat="55.7498889" lon="48.7495030"><time>2021-10-23T14:12:43.177</time></trkpt><trkpt lat="55.7498429" lon="48.7495131"><time>2021-10-23T14:12:46.357</time></trkpt><trkpt lat="55.7497976" lon="48.7495313"><time>2021-10-23T14:12:49.347</time></trkpt><trkpt lat="55.7497416" lon="48.7495368"><time>2021-10-23T14:12:53.347</time></trkpt><trkpt lat="55.7496935" lon="48.7495204"><time>2021-10-23T14:12:57.367</time></trkpt><trkpt lat="55.7496426" lon="48.7495070"><time>2021-10-23T14:13:01.353</time></trkpt><trkpt lat="55.7495971" lon="48.7494792"><time>2021-10-23T14:13:05.370</time></trkpt><trkpt lat="55.7495542" lon="48.7494534"><time>2021-10-23T14:13:08.383</time></trkpt><trkpt lat="55.7495024" lon="48.7494208"><time>2021-10-23T14:13:11.370</time></trkpt><trkpt lat="55.7494572" lon="48.7493942"><time>2021-10-23T14:13:14.383</time></trkpt><trkpt lat="55.7494082" lon="48.7493653"><time>2021-10-23T14:13:17.380</time></trkpt><trkpt lat="55.7493563" lon="48.7493230"><time>2021-10-23T14:13:21.177</time></trkpt><trkpt lat="55.7493135" lon="48.7492884"><time>2021-10-23T14:13:24.387</time></trkpt><trkpt lat="55.7492689" lon="48.7492502"><time>2021-10-23T14:13:28.367</time></trkpt><trkpt lat="55.7492253" lon="48.7492151"><time>2021-10-23T14:13:33.373</time></trkpt><trkpt lat="55.7491813" lon="48.7491626"><time>2021-10-23T14:13:37.377</time></trkpt><trkpt lat="55.7491286" lon="48.7491198"><time>2021-10-23T14:13:41.373</time></trkpt><trkpt lat="55.7490792" lon="48.7490846"><time>2021-10-23T14:13:45.180</time></trkpt><trkpt lat="55.7490290" lon="48.7490345"><time>2021-10-23T14:13:49.320</time></trkpt><trkpt lat="55.7489767" lon="48.7489885"><time>2021-10-23T14:13:53.343</time></trkpt><trkpt lat="55.7489291" lon="48.7489494"><time>2021-10-23T14:13:57.370</time></trkpt><trkpt lat="55.7488831" lon="48.7488982"><time>2021-10-23T14:14:01.393</time></trkpt><trkpt lat="55.7488454" lon="48.7488533"><time>2021-10-23T14:14:04.367</time></trkpt><trkpt lat="55.7488075" lon="48.7488105"><time>2021-10-23T14:14:08.373</time></trkpt><trkpt lat="55.7487647" lon="48.7487585"><time>2021-10-23T14:14:13.383</time></trkpt><trkpt lat="55.7487198" lon="48.7487012"><time>2021-10-23T14:14:17.410</time></trkpt><trkpt lat="55.7486783" lon="48.7486616"><time>2021-10-23T14:14:20.387</time></trkpt><trkpt lat="55.7486357" lon="48.7486112"><time>2021-10-23T14:14:24.357</time></trkpt><trkpt lat="55.7485924" lon="48.7485719"><time>2021-10-23T14:14:28.407</time></trkpt><trkpt lat="55.7485585" lon="48.7485181"><time>2021-10-23T14:14:33.393</time></trkpt><trkpt lat="55.7485088" lon="48.7484876"><time>2021-10-23T14:14:38.360</time></trkpt><trkpt lat="55.7484619" lon="48.7484544"><time>2021-10-23T14:14:43.187</time></trkpt><trkpt lat="55.7484074" lon="48.7484451"><time>2021-10-23T14:14:48.197</time></trkpt><trkpt lat="55.7483603" lon="48.7484489"><time>2021-10-23T14:14:52.183</time></trkpt><trkpt lat="55.7483147" lon="48.7484321"><time>2021-10-23T14:14:56.177</time></trkpt><trkpt lat="55.7483222" lon="48.7484382"><time>2021-10-23T14:15:18.603</time></trkpt><trkpt lat="55.7482901" lon="48.7483514"><time>2021-10-23T14:15:33.363</time></trkpt><trkpt lat="55.7482443" lon="48.7482976"><time>2021-10-23T14:15:37.373</time></trkpt><trkpt lat="55.7482085" lon="48.7482491"><time>2021-10-23T14:15:40.400</time></trkpt><trkpt lat="55.7481564" lon="48.7482097"><time>2021-10-23T14:15:43.410</time></trkpt><trkpt lat="55.7481094" lon="48.7481769"><time>2021-10-23T14:15:46.193</time></trkpt><trkpt lat="55.7480599" lon="48.7481499"><time>2021-10-23T14:15:50.403</time></trkpt><trkpt lat="55.7480070" lon="48.7481235"><time>2021-10-23T14:15:54.380</time></trkpt><trkpt lat="55.7479536" lon="48.7480892"><time>2021-10-23T14:15:58.387</time></trkpt><trkpt lat="55.7479025" lon="48.7480895"><time>2021-10-23T14:16:02.373</time></trkpt><trkpt lat="55.7478580" lon="48.7480779"><time>2021-10-23T14:16:06.183</time></trkpt><trkpt lat="55.7478036" lon="48.7481116"><time>2021-10-23T14:16:12.410</time></trkpt><trkpt lat="55.7477613" lon="48.7481508"><time>2021-10-23T14:16:15.393</time></trkpt><trkpt lat="55.7477137" lon="48.7481678"><time>2021-10-23T14:16:19.183</time></trkpt><trkpt lat="55.7476799" lon="48.7482207"><time>2021-10-23T14:16:23.373</time></trkpt><trkpt lat="55.7476694" lon="48.7483018"><time>2021-10-23T14:16:27.387</time></trkpt><trkpt lat="55.7476787" lon="48.7483965"><time>2021-10-23T14:16:32.407</time></trkpt><trkpt lat="55.7476646" lon="48.7484954"><time>2021-10-23T14:16:38.367</time></trkpt><trkpt lat="55.7476557" lon="48.7485893"><time>2021-10-23T14:16:42.397</time></trkpt><trkpt lat="55.7476388" lon="48.7486708"><time>2021-10-23T14:16:45.293</time></trkpt><trkpt lat="55.7476137" lon="48.7487416"><time>2021-10-23T14:16:48.400</time></trkpt><trkpt lat="55.7475819" lon="48.7488171"><time>2021-10-23T14:16:51.180</time></trkpt><trkpt lat="55.7475448" lon="48.7488902"><time>2021-10-23T14:16:54.367</time></trkpt><trkpt lat="55.7475180" lon="48.7489551"><time>2021-10-23T14:16:57.180</time></trkpt><trkpt lat="55.7474810" lon="48.7490297"><time>2021-10-23T14:17:00.170</time></trkpt><trkpt lat="55.7474516" lon="48.7491046"><time>2021-10-23T14:17:03.347</time></trkpt><trkpt lat="55.7474268" lon="48.7491735"><time>2021-10-23T14:17:06.967</time></trkpt><trkpt lat="55.7474089" lon="48.7492709"><time>2021-10-23T14:17:10.177</time></trkpt><trkpt lat="55.7473821" lon="48.7493483"><time>2021-10-23T14:17:14.180</time></trkpt><trkpt lat="55.7473500" lon="48.7494181"><time>2021-10-23T14:17:19.173</time></trkpt><trkpt lat="55.7473158" lon="48.7494871"><time>2021-10-23T14:17:33.177</time></trkpt><trkpt lat="55.7472833" lon="48.7495701"><time>2021-10-23T14:17:38.183</time></trkpt><trkpt lat="55.7472662" lon="48.7496487"><time>2021-10-23T14:17:42.340</time></trkpt><trkpt lat="55.7472488" lon="48.7497303"><time>2021-10-23T14:17:46.180</time></trkpt><trkpt lat="55.7472202" lon="48.7498075"><time>2021-10-23T14:17:49.190</time></trkpt><trkpt lat="55.7472020" lon="48.7499053"><time>2021-10-23T14:17:53.177</time></trkpt><trkpt lat="55.7471731" lon="48.7499995"><time>2021-10-23T14:17:57.380</time></trkpt><trkpt lat="55.7471486" lon="48.7500681"><time>2021-10-23T14:18:01.473</time></trkpt><trkpt lat="55.7471193" lon="48.7501606"><time>2021-10-23T14:18:06.370</time></trkpt><trkpt lat="55.7470894" lon="48.7502579"><time>2021-10-23T14:18:10.383</time></trkpt><trkpt lat="55.7470703" lon="48.7503414"><time>2021-10-23T14:18:13.180</time></trkpt><trkpt lat="55.7470400" lon="48.7504266"><time>2021-10-23T14:18:17.377</time></trkpt><trkpt lat="55.7470202" lon="48.7505066"><time>2021-10-23T14:18:21.193</time></trkpt><trkpt lat="55.7469927" lon="48.7505934"><time>2021-10-23T14:18:26.183</time></trkpt><trkpt lat="55.7469687" lon="48.7506705"><time>2021-10-23T14:18:30.377</time></trkpt><trkpt lat="55.7469452" lon="48.7507535"><time>2021-10-23T14:18:34.383</time></trkpt><trkpt lat="55.7469218" lon="48.7508312"><time>2021-10-23T14:18:38.357</time></trkpt><trkpt lat="55.7468995" lon="48.7509221"><time>2021-10-23T14:18:42.360</time></trkpt><trkpt lat="55.7468673" lon="48.7510113"><time>2021-10-23T14:18:46.187</time></trkpt><trkpt lat="55.7468501" lon="48.7510893"><time>2021-10-23T14:18:49.377</time></trkpt><trkpt lat="55.7468241" lon="48.7511870"><time>2021-10-23T14:18:53.377</time></trkpt><trkpt lat="55.7468005" lon="48.7512627"><time>2021-10-23T14:18:56.357</time></trkpt><trkpt lat="55.7467776" lon="48.7513457"><time>2021-10-23T14:19:00.377</time></trkpt><trkpt lat="55.7467540" lon="48.7514322"><time>2021-10-23T14:19:04.383</time></trkpt><trkpt lat="55.7467283" lon="48.7515095"><time>2021-10-23T14:19:08.397</time></trkpt><trkpt lat="55.7467027" lon="48.7515882"><time>2021-10-23T14:19:12.377</time></trkpt><trkpt lat="55.7466830" lon="48.7516635"><time>2021-10-23T14:19:15.373</time></trkpt><trkpt lat="55.7466754" lon="48.7517428"><time>2021-10-23T14:19:19.377</time></trkpt><trkpt lat="55.7466403" lon="48.7517946"><time>2021-10-23T14:19:27.397</time></trkpt><trkpt lat="55.7465958" lon="48.7518243"><time>2021-10-23T14:19:32.390</time></trkpt><trkpt lat="55.7465589" lon="48.7517740"><time>2021-10-23T14:19:38.380</time></trkpt><trkpt lat="55.7465108" lon="48.7517463"><time>2021-10-23T14:19:41.347</time></trkpt><trkpt lat="55.7464583" lon="48.7517155"><time>2021-10-23T14:19:45.390</time></trkpt><trkpt lat="55.7464131" lon="48.7517010"><time>2021-10-23T14:19:48.183</time></trkpt><trkpt lat="55.7463592" lon="48.7516701"><time>2021-10-23T14:19:53.177</time></trkpt><trkpt lat="55.7463166" lon="48.7516342"><time>2021-10-23T14:19:56.360</time></trkpt><trkpt lat="55.7462678" lon="48.7516015"><time>2021-10-23T14:19:59.397</time></trkpt><trkpt lat="55.7462270" lon="48.7515632"><time>2021-10-23T14:20:02.407</time></trkpt><trkpt lat="55.7461856" lon="48.7515297"><time>2021-10-23T14:20:05.377</time></trkpt><trkpt lat="55.7461400" lon="48.7514802"><time>2021-10-23T14:20:09.393</time></trkpt><trkpt lat="55.7460924" lon="48.7514444"><time>2021-10-23T14:20:13.363</time></trkpt><trkpt lat="55.7460446" lon="48.7514117"><time>2021-10-23T14:20:17.367</time></trkpt><trkpt lat="55.7460043" lon="48.7513710"><time>2021-10-23T14:20:20.183</time></trkpt><trkpt lat="55.7459555" lon="48.7513420"><time>2021-10-23T14:20:24.187</time></trkpt><trkpt lat="55.7459057" lon="48.7512956"><time>2021-10-23T14:20:28.413</time></trkpt><trkpt lat="55.7458621" lon="48.7512637"><time>2021-10-23T14:20:31.363</time></trkpt><trkpt lat="55.7458157" lon="48.7512206"><time>2021-10-23T14:20:35.183</time></trkpt><trkpt lat="55.7457630" lon="48.7511830"><time>2021-10-23T14:20:39.380</time></trkpt><trkpt lat="55.7457129" lon="48.7511520"><time>2021-10-23T14:20:43.177</time></trkpt><trkpt lat="55.7456566" lon="48.7511123"><time>2021-10-23T14:20:48.183</time></trkpt><trkpt lat="55.7456064" lon="48.7510735"><time>2021-10-23T14:20:52.413</time></trkpt><trkpt lat="55.7455635" lon="48.7510423"><time>2021-10-23T14:20:55.187</time></trkpt><trkpt lat="55.7455086" lon="48.7510032"><time>2021-10-23T14:20:59.397</time></trkpt><trkpt lat="55.7454583" lon="48.7509649"><time>2021-10-23T14:21:04.390</time></trkpt><trkpt lat="55.7454161" lon="48.7509314"><time>2021-10-23T14:21:07.377</time></trkpt><trkpt lat="55.7453668" lon="48.7508942"><time>2021-10-23T14:21:11.390</time></trkpt><trkpt lat="55.7453230" lon="48.7508482"><time>2021-10-23T14:21:15.187</time></trkpt><trkpt lat="55.7452775" lon="48.7508210"><time>2021-10-23T14:21:18.363</time></trkpt><trkpt lat="55.7452298" lon="48.7507779"><time>2021-10-23T14:21:22.387</time></trkpt><trkpt lat="55.7451787" lon="48.7507275"><time>2021-10-23T14:21:26.380</time></trkpt><trkpt lat="55.7451317" lon="48.7506784"><time>2021-10-23T14:21:30.380</time></trkpt><trkpt lat="55.7450845" lon="48.7506347"><time>2021-10-23T14:21:34.397</time></trkpt><trkpt lat="55.7450356" lon="48.7505836"><time>2021-10-23T14:21:39.363</time></trkpt><trkpt lat="55.7449841" lon="48.7505396"><time>2021-10-23T14:21:43.403</time></trkpt><trkpt lat="55.7449407" lon="48.7504907"><time>2021-10-23T14:21:47.187</time></trkpt><trkpt lat="55.7448965" lon="48.7504583"><time>2021-10-23T14:21:50.180</time></trkpt><trkpt lat="55.7448525" lon="48.7504162"><time>2021-10-23T14:21:54.400</time></trkpt><trkpt lat="55.7448135" lon="48.7503731"><time>2021-10-23T14:21:58.377</time></trkpt><trkpt lat="55.7447686" lon="48.7503227"><time>2021-10-23T14:22:02.383</time></trkpt><trkpt lat="55.7447287" lon="48.7502720"><time>2021-10-23T14:22:06.363</time></trkpt><trkpt lat="55.7446866" lon="48.7502321"><time>2021-10-23T14:22:10.387</time></trkpt><trkpt lat="55.7446447" lon="48.7501942"><time>2021-10-23T14:22:14.387</time></trkpt><trkpt lat="55.7446054" lon="48.7501510"><time>2021-10-23T14:22:18.400</time></trkpt><trkpt lat="55.7445674" lon="48.7500966"><time>2021-10-23T14:22:22.400</time></trkpt><trkpt lat="55.7445300" lon="48.7500513"><time>2021-10-23T14:22:26.403</time></trkpt><trkpt lat="55.7444867" lon="48.7500025"><time>2021-10-23T14:22:30.387</time></trkpt><trkpt lat="55.7444476" lon="48.7499607"><time>2021-10-23T14:22:33.383</time></trkpt><trkpt lat="55.7444043" lon="48.7499111"><time>2021-10-23T14:22:37.403</time></trkpt><trkpt lat="55.7443629" lon="48.7498643"><time>2021-10-23T14:22:41.183</time></trkpt><trkpt lat="55.7443228" lon="48.7498095"><time>2021-10-23T14:22:45.373</time></trkpt><trkpt lat="55.7442811" lon="48.7497561"><time>2021-10-23T14:22:49.183</time></trkpt><trkpt lat="55.7442987" lon="48.7496701"><time>2021-10-23T14:23:00.380</time></trkpt><trkpt lat="55.7442889" lon="48.7495782"><time>2021-10-23T14:23:05.407</time></trkpt><trkpt lat="55.7442785" lon="48.7494849"><time>2021-10-23T14:23:09.400</time></trkpt><trkpt lat="55.7442950" lon="48.7493968"><time>2021-10-23T14:23:14.357</time></trkpt><trkpt lat="55.7443277" lon="48.7493313"><time>2021-10-23T14:23:19.400</time></trkpt><trkpt lat="55.7443600" lon="48.7492679"><time>2021-10-23T14:23:24.410</time></trkpt><trkpt lat="55.7443613" lon="48.7491838"><time>2021-10-23T14:23:33.390</time></trkpt><trkpt lat="55.7443232" lon="48.7491329"><time>2021-10-23T14:23:46.390</time></trkpt><trkpt lat="55.7442790" lon="48.7491165"><time>2021-10-23T14:23:49.177</time></trkpt><trkpt lat="55.7442429" lon="48.7490529"><time>2021-10-23T14:23:54.377</time></trkpt><trkpt lat="55.7442191" lon="48.7489816"><time>2021-10-23T14:23:59.397</time></trkpt><trkpt lat="55.7442172" lon="48.7488998"><time>2021-10-23T14:24:03.403</time></trkpt><trkpt lat="55.7442034" lon="48.7488099"><time>2021-10-23T14:24:09.407</time></trkpt><trkpt lat="55.7442087" lon="48.7487092"><time>2021-10-23T14:24:13.403</time></trkpt><trkpt lat="55.7442385" lon="48.7486450"><time>2021-10-23T14:24:17.253</time></trkpt><trkpt lat="55.7442823" lon="48.7486114"><time>2021-10-23T14:24:23.167</time></trkpt><trkpt lat="55.7442917" lon="48.7485809"><time>2021-10-23T14:24:25.253</time></trkpt><trkpt lat="55.7442921" lon="48.7485320"><time>2021-10-23T14:24:29.180</time></trkpt><trkpt lat="55.7442840" lon="48.7484434"><time>2021-10-23T14:24:33.180</time></trkpt><trkpt lat="55.7442629" lon="48.7483526"><time>2021-10-23T14:24:38.177</time></trkpt><trkpt lat="55.7442159" lon="48.7483510"><time>2021-10-23T14:24:45.367</time></trkpt><trkpt lat="55.7441699" lon="48.7483527"><time>2021-10-23T14:24:49.907</time></trkpt><trkpt lat="55.7441306" lon="48.7483105"><time>2021-10-23T14:24:56.337</time></trkpt><trkpt lat="55.7441964" lon="48.7483128"><time>2021-10-23T14:25:01.190</time></trkpt><trkpt lat="55.7443108" lon="48.7483386"><time>2021-10-23T14:25:11.083</time></trkpt><trkpt lat="55.7443612" lon="48.7483182"><time>2021-10-23T14:25:19.827</time></trkpt><trkpt lat="55.7444508" lon="48.7482209"><time>2021-10-23T14:25:25.433</time></trkpt><trkpt lat="55.7444042" lon="48.7482757"><time>2021-10-23T14:25:25.477</time></trkpt><trkpt lat="55.7444626" lon="48.7482066"><time>2021-10-23T14:25:28.730</time></trkpt><trkpt lat="55.7445163" lon="48.7481141"><time>2021-10-23T14:25:33.280</time></trkpt><trkpt lat="55.7445522" lon="48.7480556"><time>2021-10-23T14:25:37.743</time></trkpt><trkpt lat="55.7445824" lon="48.7479895"><time>2021-10-23T14:25:40.177</time></trkpt><trkpt lat="55.7446148" lon="48.7479152"><time>2021-10-23T14:25:44.180</time></trkpt><trkpt lat="55.7446456" lon="48.7478463"><time>2021-10-23T14:25:48.183</time></trkpt><trkpt lat="55.7446830" lon="48.7477892"><time>2021-10-23T14:25:52.190</time></trkpt><trkpt lat="55.7447245" lon="48.7476961"><time>2021-10-23T14:26:01.327</time></trkpt><trkpt lat="55.7447591" lon="48.7476427"><time>2021-10-23T14:26:01.413</time></trkpt><trkpt lat="55.7447878" lon="48.7475727"><time>2021-10-23T14:26:09.760</time></trkpt><trkpt lat="55.7448235" lon="48.7475020"><time>2021-10-23T14:26:15.100</time></trkpt><trkpt lat="55.7449254" lon="48.7471851"><time>2021-10-23T14:26:30.880</time></trkpt><trkpt lat="55.7449503" lon="48.7471124"><time>2021-10-23T14:26:35.177</time></trkpt><trkpt lat="55.7449779" lon="48.7470333"><time>2021-10-23T14:26:39.460</time></trkpt><trkpt lat="55.7450064" lon="48.7469586"><time>2021-10-23T14:26:43.790</time></trkpt><trkpt lat="55.7451498" lon="48.7465919"><time>2021-10-23T14:27:02.447</time></trkpt><trkpt lat="55.7451729" lon="48.7465202"><time>2021-10-23T14:27:08.787</time></trkpt><trkpt lat="55.7452049" lon="48.7464386"><time>2021-10-23T14:27:10.180</time></trkpt><trkpt lat="55.7452336" lon="48.7463555"><time>2021-10-23T14:27:14.183</time></trkpt><trkpt lat="55.7452666" lon="48.7462708"><time>2021-10-23T14:27:18.387</time></trkpt><trkpt lat="55.7453011" lon="48.7461961"><time>2021-10-23T14:27:22.860</time></trkpt><trkpt lat="55.7453416" lon="48.7461019"><time>2021-10-23T14:27:27.840</time></trkpt><trkpt lat="55.7453074" lon="48.7461832"><time>2021-10-23T14:27:27.857</time></trkpt><trkpt lat="55.7453503" lon="48.7460847"><time>2021-10-23T14:27:28.183</time></trkpt><trkpt lat="55.7453762" lon="48.7460103"><time>2021-10-23T14:27:32.187</time></trkpt><trkpt lat="55.7454060" lon="48.7459391"><time>2021-10-23T14:27:36.190</time></trkpt><trkpt lat="55.7454332" lon="48.7458598"><time>2021-10-23T14:27:41.657</time></trkpt><trkpt lat="55.7455118" lon="48.7458154"><time>2021-10-23T14:27:49.877</time></trkpt><trkpt lat="55.7455523" lon="48.7457474"><time>2021-10-23T14:27:54.180</time></trkpt><trkpt lat="55.7455953" lon="48.7456645"><time>2021-10-23T14:28:01.333</time></trkpt><trkpt lat="55.7456441" lon="48.7455290"><time>2021-10-23T14:28:05.757</time></trkpt><trkpt lat="55.7456851" lon="48.7454178"><time>2021-10-23T14:28:11.120</time></trkpt><trkpt lat="55.7456598" lon="48.7454883"><time>2021-10-23T14:28:11.130</time></trkpt><trkpt lat="55.7456941" lon="48.7453987"><time>2021-10-23T14:28:11.187</time></trkpt><trkpt lat="55.7457285" lon="48.7452963"><time>2021-10-23T14:28:17.560</time></trkpt><trkpt lat="55.7457029" lon="48.7453788"><time>2021-10-23T14:28:17.653</time></trkpt><trkpt lat="55.7457429" lon="48.7452501"><time>2021-10-23T14:28:18.200</time></trkpt><trkpt lat="55.7457675" lon="48.7451826"><time>2021-10-23T14:28:25.490</time></trkpt><trkpt lat="55.7457987" lon="48.7451146"><time>2021-10-23T14:28:29.887</time></trkpt><trkpt lat="55.7458297" lon="48.7450388"><time>2021-10-23T14:28:35.227</time></trkpt><trkpt lat="55.7458532" lon="48.7449623"><time>2021-10-23T14:28:35.267</time></trkpt><trkpt lat="55.7458773" lon="48.7448806"><time>2021-10-23T14:28:40.603</time></trkpt><trkpt lat="55.7458961" lon="48.7448032"><time>2021-10-23T14:28:45.950</time></trkpt><trkpt lat="55.7459134" lon="48.7447146"><time>2021-10-23T14:28:51.297</time></trkpt><trkpt lat="55.7459335" lon="48.7446269"><time>2021-10-23T14:28:51.307</time></trkpt><trkpt lat="55.7459452" lon="48.7445353"><time>2021-10-23T14:28:55.187</time></trkpt><trkpt lat="55.7459521" lon="48.7444486"><time>2021-10-23T14:29:00.187</time></trkpt><trkpt lat="55.7459828" lon="48.7443646"><time>2021-10-23T14:29:06.767</time></trkpt><trkpt lat="55.7460084" lon="48.7442976"><time>2021-10-23T14:29:11.253</time></trkpt><trkpt lat="55.7460462" lon="48.7442406"><time>2021-10-23T14:29:13.180</time></trkpt><trkpt lat="55.7460959" lon="48.7442520"><time>2021-10-23T14:29:17.187</time></trkpt><trkpt lat="55.7461490" lon="48.7442743"><time>2021-10-23T14:29:24.020</time></trkpt><trkpt lat="55.7462060" lon="48.7442984"><time>2021-10-23T14:29:24.083</time></trkpt><trkpt lat="55.7462673" lon="48.7443041"><time>2021-10-23T14:29:27.453</time></trkpt><trkpt lat="55.7463742" lon="48.7442301"><time>2021-10-23T14:29:37.157</time></trkpt><trkpt lat="55.7464274" lon="48.7441931"><time>2021-10-23T14:29:42.377</time></trkpt><trkpt lat="55.7464759" lon="48.7442069"><time>2021-10-23T14:29:45.187</time></trkpt><trkpt lat="55.7465280" lon="48.7442163"><time>2021-10-23T14:29:49.183</time></trkpt><trkpt lat="55.7465840" lon="48.7441966"><time>2021-10-23T14:29:53.177</time></trkpt><trkpt lat="55.7466278" lon="48.7441730"><time>2021-10-23T14:29:56.183</time></trkpt><trkpt lat="55.7466746" lon="48.7441498"><time>2021-10-23T14:30:00.567</time></trkpt><trkpt lat="55.7467278" lon="48.7441185"><time>2021-10-23T14:30:07.043</time></trkpt><trkpt lat="55.7467774" lon="48.7441358"><time>2021-10-23T14:30:11.387</time></trkpt><trkpt lat="55.7468292" lon="48.7441347"><time>2021-10-23T14:30:11.413</time></trkpt><trkpt lat="55.7468785" lon="48.7441465"><time>2021-10-23T14:30:16.983</time></trkpt><trkpt lat="55.7469264" lon="48.7440901"><time>2021-10-23T14:30:24.320</time></trkpt><trkpt lat="55.7469571" lon="48.7440281"><time>2021-10-23T14:30:25.380</time></trkpt><trkpt lat="55.7470065" lon="48.7440099"><time>2021-10-23T14:30:33.837</time></trkpt><trkpt lat="55.7470509" lon="48.7441624"><time>2021-10-23T14:30:33.920</time></trkpt><trkpt lat="55.7470877" lon="48.7442184"><time>2021-10-23T14:30:39.173</time></trkpt><trkpt lat="55.7470906" lon="48.7442500"><time>2021-10-23T14:30:46.320</time></trkpt><trkpt lat="55.7470655" lon="48.7441433"><time>2021-10-23T14:31:04.253</time></trkpt><trkpt lat="55.7470238" lon="48.7441023"><time>2021-10-23T14:31:20.387</time></trkpt><trkpt lat="55.7469612" lon="48.7440974"><time>2021-10-23T14:31:24.437</time></trkpt><trkpt lat="55.7469091" lon="48.7440945"><time>2021-10-23T14:31:27.180</time></trkpt><trkpt lat="55.7468582" lon="48.7440945"><time>2021-10-23T14:31:31.180</time></trkpt><trkpt lat="55.7468208" lon="48.7440392"><time>2021-10-23T14:31:36.177</time></trkpt><trkpt lat="55.7467720" lon="48.7440126"><time>2021-10-23T14:31:40.187</time></trkpt><trkpt lat="55.7467292" lon="48.7439701"><time>2021-10-23T14:31:44.183</time></trkpt><trkpt lat="55.7466749" lon="48.7439147"><time>2021-10-23T14:31:48.390</time></trkpt><trkpt lat="55.7466301" lon="48.7438941"><time>2021-10-23T14:31:51.387</time></trkpt><trkpt lat="55.7465811" lon="48.7438640"><time>2021-10-23T14:31:55.187</time></trkpt><trkpt lat="55.7465191" lon="48.7438259"><time>2021-10-23T14:31:59.353</time></trkpt><trkpt lat="55.7464756" lon="48.7437901"><time>2021-10-23T14:32:01.357</time></trkpt><trkpt lat="55.7464236" lon="48.7437419"><time>2021-10-23T14:32:04.400</time></trkpt><trkpt lat="55.7463805" lon="48.7436865"><time>2021-10-23T14:32:07.380</time></trkpt><trkpt lat="55.7463366" lon="48.7436268"><time>2021-10-23T14:32:11.390</time></trkpt><trkpt lat="55.7462858" lon="48.7436169"><time>2021-10-23T14:32:16.397</time></trkpt><trkpt lat="55.7462517" lon="48.7436893"><time>2021-10-23T14:32:20.377</time></trkpt><trkpt lat="55.7462193" lon="48.7437761"><time>2021-10-23T14:32:24.390</time></trkpt><trkpt lat="55.7461940" lon="48.7438522"><time>2021-10-23T14:32:28.387</time></trkpt><trkpt lat="55.7461597" lon="48.7439078"><time>2021-10-23T14:32:32.377</time></trkpt><trkpt lat="55.7461062" lon="48.7439324"><time>2021-10-23T14:32:38.380</time></trkpt><trkpt lat="55.7460455" lon="48.7439289"><time>2021-10-23T14:32:42.393</time></trkpt><trkpt lat="55.7459798" lon="48.7439045"><time>2021-10-23T14:32:47.423</time></trkpt><trkpt lat="55.7459318" lon="48.7438817"><time>2021-10-23T14:32:50.370</time></trkpt><trkpt lat="55.7458781" lon="48.7438682"><time>2021-10-23T14:32:54.387</time></trkpt><trkpt lat="55.7458293" lon="48.7438316"><time>2021-10-23T14:32:58.180</time></trkpt><trkpt lat="55.7457826" lon="48.7438163"><time>2021-10-23T14:33:02.187</time></trkpt><trkpt lat="55.7457363" lon="48.7438684"><time>2021-10-23T14:33:06.183</time></trkpt><trkpt lat="55.7457056" lon="48.7439475"><time>2021-10-23T14:33:10.183</time></trkpt><trkpt lat="55.7456809" lon="48.7440232"><time>2021-10-23T14:33:14.370</time></trkpt><trkpt lat="55.7456461" lon="48.7440848"><time>2021-10-23T14:33:19.353</time></trkpt><trkpt lat="55.7456046" lon="48.7440472"><time>2021-10-23T14:33:22.350</time></trkpt><trkpt lat="55.7455488" lon="48.7440075"><time>2021-10-23T14:33:26.363</time></trkpt><trkpt lat="55.7455091" lon="48.7439698"><time>2021-10-23T14:33:29.367</time></trkpt><trkpt lat="55.7454638" lon="48.7439258"><time>2021-10-23T14:33:32.357</time></trkpt><trkpt lat="55.7454210" lon="48.7438894"><time>2021-10-23T14:33:35.390</time></trkpt><trkpt lat="55.7453753" lon="48.7438374"><time>2021-10-23T14:33:39.387</time></trkpt><trkpt lat="55.7453266" lon="48.7437758"><time>2021-10-23T14:33:43.177</time></trkpt><trkpt lat="55.7452781" lon="48.7437240"><time>2021-10-23T14:33:47.183</time></trkpt><trkpt lat="55.7452405" lon="48.7436749"><time>2021-10-23T14:33:51.397</time></trkpt><trkpt lat="55.7452474" lon="48.7435883"><time>2021-10-23T14:33:57.387</time></trkpt><trkpt lat="55.7452783" lon="48.7435223"><time>2021-10-23T14:34:01.380</time></trkpt><trkpt lat="55.7453003" lon="48.7434519"><time>2021-10-23T14:34:05.397</time></trkpt><trkpt lat="55.7453211" lon="48.7433812"><time>2021-10-23T14:34:09.390</time></trkpt><trkpt lat="55.7453525" lon="48.7433017"><time>2021-10-23T14:34:14.380</time></trkpt><trkpt lat="55.7453725" lon="48.7432162"><time>2021-10-23T14:34:18.350</time></trkpt><trkpt lat="55.7453965" lon="48.7431486"><time>2021-10-23T14:34:22.353</time></trkpt><trkpt lat="55.7454317" lon="48.7430794"><time>2021-10-23T14:34:27.357</time></trkpt><trkpt lat="55.7454636" lon="48.7429946"><time>2021-10-23T14:34:31.183</time></trkpt><trkpt lat="55.7454901" lon="48.7429139"><time>2021-10-23T14:34:34.180</time></trkpt><trkpt lat="55.7455118" lon="48.7428323"><time>2021-10-23T14:34:38.187</time></trkpt><trkpt lat="55.7455377" lon="48.7427515"><time>2021-10-23T14:34:42.183</time></trkpt><trkpt lat="55.7455598" lon="48.7426753"><time>2021-10-23T14:34:45.187</time></trkpt><trkpt lat="55.7455839" lon="48.7425914"><time>2021-10-23T14:34:49.180</time></trkpt><trkpt lat="55.7456126" lon="48.7425032"><time>2021-10-23T14:34:54.190</time></trkpt><trkpt lat="55.7456492" lon="48.7424265"><time>2021-10-23T14:34:58.187</time></trkpt><trkpt lat="55.7456763" lon="48.7423428"><time>2021-10-23T14:35:02.787</time></trkpt><trkpt lat="55.7456992" lon="48.7422632"><time>2021-10-23T14:35:06.180</time></trkpt><trkpt lat="55.7457201" lon="48.7421893"><time>2021-10-23T14:35:10.177</time></trkpt><trkpt lat="55.7457292" lon="48.7421076"><time>2021-10-23T14:35:14.180</time></trkpt><trkpt lat="55.7457024" lon="48.7420376"><time>2021-10-23T14:35:19.187</time></trkpt><trkpt lat="55.7456513" lon="48.7419771"><time>2021-10-23T14:35:22.397</time></trkpt><trkpt lat="55.7456084" lon="48.7419259"><time>2021-10-23T14:35:27.393</time></trkpt><trkpt lat="55.7455631" lon="48.7418728"><time>2021-10-23T14:35:30.393</time></trkpt><trkpt lat="55.7455103" lon="48.7418084"><time>2021-10-23T14:35:36.190</time></trkpt><trkpt lat="55.7454671" lon="48.7417436"><time>2021-10-23T14:35:43.183</time></trkpt><trkpt lat="55.7454219" lon="48.7416932"><time>2021-10-23T14:35:46.397</time></trkpt><trkpt lat="55.7453694" lon="48.7416225"><time>2021-10-23T14:35:52.383</time></trkpt><trkpt lat="55.7453298" lon="48.7415799"><time>2021-10-23T14:35:55.187</time></trkpt><trkpt lat="55.7452923" lon="48.7415078"><time>2021-10-23T14:36:00.400</time></trkpt><trkpt lat="55.7452523" lon="48.7414548"><time>2021-10-23T14:36:02.187</time></trkpt><trkpt lat="55.7452080" lon="48.7413805"><time>2021-10-23T14:36:08.183</time></trkpt><trkpt lat="55.7451693" lon="48.7413237"><time>2021-10-23T14:36:10.387</time></trkpt><trkpt lat="55.7451331" lon="48.7412660"><time>2021-10-23T14:36:13.190</time></trkpt><trkpt lat="55.7450950" lon="48.7411916"><time>2021-10-23T14:36:20.410</time></trkpt><trkpt lat="55.7450522" lon="48.7411217"><time>2021-10-23T14:36:24.483</time></trkpt><trkpt lat="55.7450018" lon="48.7410719"><time>2021-10-23T14:36:28.367</time></trkpt><trkpt lat="55.7449677" lon="48.7410014"><time>2021-10-23T14:36:33.187</time></trkpt><trkpt lat="55.7449318" lon="48.7409147"><time>2021-10-23T14:36:36.383</time></trkpt><trkpt lat="55.7448917" lon="48.7408615"><time>2021-10-23T14:36:38.220</time></trkpt><trkpt lat="55.7448546" lon="48.7408087"><time>2021-10-23T14:36:42.190</time></trkpt><trkpt lat="55.7448113" lon="48.7407465"><time>2021-10-23T14:36:45.397</time></trkpt><trkpt lat="55.7447619" lon="48.7406840"><time>2021-10-23T14:36:50.777</time></trkpt><trkpt lat="55.7447294" lon="48.7406289"><time>2021-10-23T14:36:55.180</time></trkpt><trkpt lat="55.7446927" lon="48.7405584"><time>2021-10-23T14:37:00.180</time></trkpt><trkpt lat="55.7446610" lon="48.7404977"><time>2021-10-23T14:37:03.387</time></trkpt><trkpt lat="55.7446112" lon="48.7404167"><time>2021-10-23T14:37:09.397</time></trkpt><trkpt lat="55.7445680" lon="48.7403548"><time>2021-10-23T14:37:12.387</time></trkpt><trkpt lat="55.7445394" lon="48.7402824"><time>2021-10-23T14:37:17.477</time></trkpt><trkpt lat="55.7445015" lon="48.7402301"><time>2021-10-23T14:37:19.190</time></trkpt><trkpt lat="55.7444635" lon="48.7401651"><time>2021-10-23T14:37:25.370</time></trkpt><trkpt lat="55.7444279" lon="48.7401074"><time>2021-10-23T14:37:27.383</time></trkpt><trkpt lat="55.7443488" lon="48.7399840"><time>2021-10-23T14:37:36.360</time></trkpt><trkpt lat="55.7443140" lon="48.7399220"><time>2021-10-23T14:37:41.397</time></trkpt><trkpt lat="55.7442728" lon="48.7398749"><time>2021-10-23T14:37:43.193</time></trkpt><trkpt lat="55.7442305" lon="48.7398152"><time>2021-10-23T14:37:46.187</time></trkpt><trkpt lat="55.7441885" lon="48.7397336"><time>2021-10-23T14:37:53.397</time></trkpt><trkpt lat="55.7441538" lon="48.7396792"><time>2021-10-23T14:37:58.187</time></trkpt><trkpt lat="55.7440945" lon="48.7396131"><time>2021-10-23T14:38:01.187</time></trkpt><trkpt lat="55.7440588" lon="48.7395503"><time>2021-10-23T14:38:05.350</time></trkpt><trkpt lat="55.7440209" lon="48.7394901"><time>2021-10-23T14:38:09.390</time></trkpt><trkpt lat="55.7439921" lon="48.7394191"><time>2021-10-23T14:38:13.390</time></trkpt><trkpt lat="55.7439605" lon="48.7393549"><time>2021-10-23T14:38:16.377</time></trkpt><trkpt lat="55.7439271" lon="48.7392923"><time>2021-10-23T14:38:19.397</time></trkpt><trkpt lat="55.7438967" lon="48.7392216"><time>2021-10-23T14:38:24.380</time></trkpt><trkpt lat="55.7438609" lon="48.7391569"><time>2021-10-23T14:38:26.367</time></trkpt><trkpt lat="55.7438249" lon="48.7391020"><time>2021-10-23T14:38:32.363</time></trkpt><trkpt lat="55.7437786" lon="48.7390398"><time>2021-10-23T14:38:35.367</time></trkpt><trkpt lat="55.7437404" lon="48.7389908"><time>2021-10-23T14:38:38.207</time></trkpt><trkpt lat="55.7437029" lon="48.7389086"><time>2021-10-23T14:38:42.260</time></trkpt><trkpt lat="55.7436606" lon="48.7388444"><time>2021-10-23T14:38:46.370</time></trkpt><trkpt lat="55.7436269" lon="48.7387864"><time>2021-10-23T14:38:49.357</time></trkpt><trkpt lat="55.7436014" lon="48.7387209"><time>2021-10-23T14:38:53.200</time></trkpt><trkpt lat="55.7435597" lon="48.7386554"><time>2021-10-23T14:38:58.370</time></trkpt><trkpt lat="55.7435168" lon="48.7385888"><time>2021-10-23T14:39:02.357</time></trkpt><trkpt lat="55.7434699" lon="48.7385287"><time>2021-10-23T14:39:06.370</time></trkpt><trkpt lat="55.7434355" lon="48.7384763"><time>2021-10-23T14:39:09.357</time></trkpt><trkpt lat="55.7433941" lon="48.7384161"><time>2021-10-23T14:39:14.353</time></trkpt><trkpt lat="55.7433645" lon="48.7383541"><time>2021-10-23T14:39:18.287</time></trkpt><trkpt lat="55.7433423" lon="48.7382812"><time>2021-10-23T14:39:24.410</time></trkpt><trkpt lat="55.7433008" lon="48.7382422"><time>2021-10-23T14:39:43.417</time></trkpt><trkpt lat="55.7432512" lon="48.7382847"><time>2021-10-23T14:39:49.410</time></trkpt><trkpt lat="55.7431985" lon="48.7383138"><time>2021-10-23T14:39:54.380</time></trkpt><trkpt lat="55.7431522" lon="48.7383358"><time>2021-10-23T14:40:00.360</time></trkpt><trkpt lat="55.7431103" lon="48.7383723"><time>2021-10-23T14:40:09.363</time></trkpt><trkpt lat="55.7430814" lon="48.7384387"><time>2021-10-23T14:40:14.413</time></trkpt><trkpt lat="55.7430379" lon="48.7384842"><time>2021-10-23T14:40:18.193</time></trkpt><trkpt lat="55.7429963" lon="48.7385342"><time>2021-10-23T14:40:23.187</time></trkpt><trkpt lat="55.7429537" lon="48.7385800"><time>2021-10-23T14:40:28.403</time></trkpt><trkpt lat="55.7428593" lon="48.7386375"><time>2021-10-23T14:40:37.387</time></trkpt><trkpt lat="55.7428134" lon="48.7386611"><time>2021-10-23T14:40:41.387</time></trkpt><trkpt lat="55.7427700" lon="48.7387012"><time>2021-10-23T14:40:44.390</time></trkpt><trkpt lat="55.7427163" lon="48.7387449"><time>2021-10-23T14:40:48.377</time></trkpt><trkpt lat="55.7426742" lon="48.7387795"><time>2021-10-23T14:40:51.393</time></trkpt><trkpt lat="55.7426295" lon="48.7388122"><time>2021-10-23T14:40:54.187</time></trkpt><trkpt lat="55.7425741" lon="48.7388322"><time>2021-10-23T14:40:57.407</time></trkpt><trkpt lat="55.7425225" lon="48.7388359"><time>2021-10-23T14:41:00.387</time></trkpt><trkpt lat="55.7424654" lon="48.7388557"><time>2021-10-23T14:41:04.410</time></trkpt><trkpt lat="55.7424133" lon="48.7388733"><time>2021-10-23T14:41:07.393</time></trkpt><trkpt lat="55.7423643" lon="48.7388811"><time>2021-10-23T14:41:10.417</time></trkpt><trkpt lat="55.7423099" lon="48.7388875"><time>2021-10-23T14:41:14.407</time></trkpt><trkpt lat="55.7422567" lon="48.7388549"><time>2021-10-23T14:41:18.187</time></trkpt><trkpt lat="55.7422091" lon="48.7388382"><time>2021-10-23T14:41:22.193</time></trkpt><trkpt lat="55.7421542" lon="48.7388281"><time>2021-10-23T14:41:26.387</time></trkpt><trkpt lat="55.7421074" lon="48.7388116"><time>2021-10-23T14:41:30.397</time></trkpt><trkpt lat="55.7420554" lon="48.7388025"><time>2021-10-23T14:41:34.377</time></trkpt><trkpt lat="55.7420031" lon="48.7387598"><time>2021-10-23T14:41:38.383</time></trkpt><trkpt lat="55.7419496" lon="48.7387405"><time>2021-10-23T14:41:42.187</time></trkpt><trkpt lat="55.7418979" lon="48.7387067"><time>2021-10-23T14:41:47.387</time></trkpt><trkpt lat="55.7418560" lon="48.7386608"><time>2021-10-23T14:41:51.373</time></trkpt><trkpt lat="55.7418083" lon="48.7386049"><time>2021-10-23T14:41:55.390</time></trkpt><trkpt lat="55.7417681" lon="48.7385583"><time>2021-10-23T14:41:59.397</time></trkpt><trkpt lat="55.7417354" lon="48.7385026"><time>2021-10-23T14:42:04.407</time></trkpt><trkpt lat="55.7417007" lon="48.7384279"><time>2021-10-23T14:42:09.377</time></trkpt><trkpt lat="55.7416624" lon="48.7383589"><time>2021-10-23T14:42:14.400</time></trkpt><trkpt lat="55.7416336" lon="48.7382944"><time>2021-10-23T14:42:19.187</time></trkpt><trkpt lat="55.7415980" lon="48.7382384"><time>2021-10-23T14:42:23.423</time></trkpt><trkpt lat="55.7415636" lon="48.7381757"><time>2021-10-23T14:42:29.367</time></trkpt><trkpt lat="55.7415325" lon="48.7380981"><time>2021-10-23T14:42:33.387</time></trkpt><trkpt lat="55.7415006" lon="48.7380312"><time>2021-10-23T14:42:47.363</time></trkpt><trkpt lat="55.7414687" lon="48.7379661"><time>2021-10-23T14:42:54.440</time></trkpt><trkpt lat="55.7414387" lon="48.7378904"><time>2021-10-23T14:42:59.427</time></trkpt><trkpt lat="55.7414087" lon="48.7378022"><time>2021-10-23T14:43:03.190</time></trkpt><trkpt lat="55.7413815" lon="48.7377320"><time>2021-10-23T14:43:07.197</time></trkpt><trkpt lat="55.7413577" lon="48.7376545"><time>2021-10-23T14:43:10.387</time></trkpt><trkpt lat="55.7413344" lon="48.7375806"><time>2021-10-23T14:43:13.393</time></trkpt><trkpt lat="55.7412991" lon="48.7375041"><time>2021-10-23T14:43:17.390</time></trkpt><trkpt lat="55.7412584" lon="48.7374617"><time>2021-10-23T14:43:23.190</time></trkpt><trkpt lat="55.7412132" lon="48.7374937"><time>2021-10-23T14:43:29.397</time></trkpt><trkpt lat="55.7411703" lon="48.7375278"><time>2021-10-23T14:43:34.407</time></trkpt><trkpt lat="55.7411270" lon="48.7375818"><time>2021-10-23T14:43:39.193</time></trkpt><trkpt lat="55.7410880" lon="48.7376342"><time>2021-10-23T14:43:44.410</time></trkpt><trkpt lat="55.7410423" lon="48.7376634"><time>2021-10-23T14:43:48.393</time></trkpt><trkpt lat="55.7410002" lon="48.7377053"><time>2021-10-23T14:43:52.397</time></trkpt><trkpt lat="55.7409529" lon="48.7377512"><time>2021-10-23T14:43:57.380</time></trkpt><trkpt lat="55.7409148" lon="48.7378021"><time>2021-10-23T14:44:01.397</time></trkpt><trkpt lat="55.7408745" lon="48.7378430"><time>2021-10-23T14:44:05.400</time></trkpt><trkpt lat="55.7408311" lon="48.7378789"><time>2021-10-23T14:44:11.217</time></trkpt><trkpt lat="55.7407943" lon="48.7379398"><time>2021-10-23T14:44:15.387</time></trkpt><trkpt lat="55.7407590" lon="48.7380045"><time>2021-10-23T14:44:19.400</time></trkpt><trkpt lat="55.7407228" lon="48.7380651"><time>2021-10-23T14:44:24.190</time></trkpt><trkpt lat="55.7406770" lon="48.7381085"><time>2021-10-23T14:44:29.390</time></trkpt><trkpt lat="55.7406312" lon="48.7381122"><time>2021-10-23T14:44:34.377</time></trkpt><trkpt lat="55.7405891" lon="48.7381437"><time>2021-10-23T14:44:42.390</time></trkpt><trkpt lat="55.7405873" lon="48.7382245"><time>2021-10-23T14:44:48.197</time></trkpt><trkpt lat="55.7405912" lon="48.7383065"><time>2021-10-23T14:44:58.357</time></trkpt><trkpt lat="55.7406502" lon="48.7383215"><time>2021-10-23T14:45:10.397</time></trkpt><trkpt lat="55.7406995" lon="48.7383281"><time>2021-10-23T14:45:17.367</time></trkpt><trkpt lat="55.7406969" lon="48.7382486"><time>2021-10-23T14:45:26.183</time></trkpt><trkpt lat="55.7406605" lon="48.7381906"><time>2021-10-23T14:45:34.183</time></trkpt><trkpt lat="55.7406370" lon="48.7381207"><time>2021-10-23T14:45:46.180</time></trkpt><trkpt lat="55.7405926" lon="48.7381457"><time>2021-10-23T14:46:22.190</time></trkpt><trkpt lat="55.7405793" lon="48.7382279"><time>2021-10-23T14:46:36.467</time></trkpt><trkpt lat="55.7406021" lon="48.7382984"><time>2021-10-23T14:46:45.193</time></trkpt><trkpt lat="55.7405607" lon="48.7383313"><time>2021-10-23T14:46:54.413</time></trkpt><trkpt lat="55.7405842" lon="48.7384063"><time>2021-10-23T14:47:11.363</time></trkpt><trkpt lat="55.7405798" lon="48.7384892"><time>2021-10-23T14:47:29.397</time></trkpt><trkpt lat="55.7406198" lon="48.7385278"><time>2021-10-23T14:47:52.197</time></trkpt><trkpt lat="55.7406423" lon="48.7385982"><time>2021-10-23T14:47:58.187</time></trkpt><trkpt lat="55.7406823" lon="48.7386458"><time>2021-10-23T14:48:02.190</time></trkpt><trkpt lat="55.7406925" lon="48.7386489"><time>2021-10-23T14:48:14.373</time></trkpt><trkpt lat="55.7406341" lon="48.7386603"><time>2021-10-23T14:48:32.193</time></trkpt><trkpt lat="55.7405778" lon="48.7387422"><time>2021-10-23T14:48:38.410</time></trkpt><trkpt lat="55.7405294" lon="48.7387792"><time>2021-10-23T14:48:43.373</time></trkpt><trkpt lat="55.7404818" lon="48.7387982"><time>2021-10-23T14:48:47.407</time></trkpt><trkpt lat="55.7404310" lon="48.7388297"><time>2021-10-23T14:48:51.370</time></trkpt><trkpt lat="55.7403844" lon="48.7388534"><time>2021-10-23T14:48:55.387</time></trkpt><trkpt lat="55.7403391" lon="48.7388587"><time>2021-10-23T14:49:04.357</time></trkpt><trkpt lat="55.7402939" lon="48.7388688"><time>2021-10-23T14:49:45.397</time></trkpt><trkpt lat="55.7402436" lon="48.7388914"><time>2021-10-23T14:49:49.400</time></trkpt><trkpt lat="55.7401960" lon="48.7389293"><time>2021-10-23T14:49:54.400</time></trkpt><trkpt lat="55.7401615" lon="48.7389881"><time>2021-10-23T14:49:58.410</time></trkpt><trkpt lat="55.7401234" lon="48.7390311"><time>2021-10-23T14:50:03.407</time></trkpt><trkpt lat="55.7400817" lon="48.7390756"><time>2021-10-23T14:50:09.363</time></trkpt><trkpt lat="55.7400403" lon="48.7391244"><time>2021-10-23T14:50:15.397</time></trkpt><trkpt lat="55.7399987" lon="48.7391629"><time>2021-10-23T14:50:21.307</time></trkpt><trkpt lat="55.7399508" lon="48.7392114"><time>2021-10-23T14:50:26.187</time></trkpt><trkpt lat="55.7399085" lon="48.7392502"><time>2021-10-23T14:50:33.197</time></trkpt><trkpt lat="55.7398594" lon="48.7392774"><time>2021-10-23T14:50:39.183</time></trkpt><trkpt lat="55.7398213" lon="48.7393231"><time>2021-10-23T14:50:46.187</time></trkpt><trkpt lat="55.7397877" lon="48.7393853"><time>2021-10-23T14:50:53.183</time></trkpt><trkpt lat="55.7397458" lon="48.7394335"><time>2021-10-23T14:51:02.243</time></trkpt><trkpt lat="55.7396980" lon="48.7394154"><time>2021-10-23T14:51:08.187</time></trkpt><trkpt lat="55.7396577" lon="48.7394566"><time>2021-10-23T14:51:13.387</time></trkpt><trkpt lat="55.7396179" lon="48.7395055"><time>2021-10-23T14:51:18.383</time></trkpt><trkpt lat="55.7395762" lon="48.7395605"><time>2021-10-23T14:51:23.383</time></trkpt><trkpt lat="55.7395546" lon="48.7396330"><time>2021-10-23T14:51:27.387</time></trkpt><trkpt lat="55.7395298" lon="48.7397031"><time>2021-10-23T14:51:33.190</time></trkpt><trkpt lat="55.7395079" lon="48.7397768"><time>2021-10-23T14:52:21.393</time></trkpt><trkpt lat="55.7394689" lon="48.7398185"><time>2021-10-23T14:52:26.377</time></trkpt><trkpt lat="55.7394334" lon="48.7398826"><time>2021-10-23T14:52:31.187</time></trkpt><trkpt lat="55.7394015" lon="48.7399392"><time>2021-10-23T14:52:35.383</time></trkpt><trkpt lat="55.7393738" lon="48.7400136"><time>2021-10-23T14:52:40.400</time></trkpt><trkpt lat="55.7393576" lon="48.7400909"><time>2021-10-23T14:52:45.397</time></trkpt><trkpt lat="55.7393785" lon="48.7401763"><time>2021-10-23T14:52:51.393</time></trkpt><trkpt lat="55.7394077" lon="48.7402374"><time>2021-10-23T14:52:56.377</time></trkpt><trkpt lat="55.7394271" lon="48.7403227"><time>2021-10-23T14:53:11.397</time></trkpt><trkpt lat="55.7394394" lon="48.7404056"><time>2021-10-23T14:53:15.367</time></trkpt><trkpt lat="55.7394653" lon="48.7404855"><time>2021-10-23T14:53:20.183</time></trkpt><trkpt lat="55.7394917" lon="48.7405619"><time>2021-10-23T14:53:26.213</time></trkpt><trkpt lat="55.7395211" lon="48.7406271"><time>2021-10-23T14:53:32.187</time></trkpt><trkpt lat="55.7395358" lon="48.7407029"><time>2021-10-23T14:54:12.387</time></trkpt><trkpt lat="55.7395637" lon="48.7407734"><time>2021-10-23T14:54:18.390</time></trkpt><trkpt lat="55.7396005" lon="48.7408399"><time>2021-10-23T14:54:24.410</time></trkpt><trkpt lat="55.7396266" lon="48.7409109"><time>2021-10-23T14:54:29.410</time></trkpt><trkpt lat="55.7396577" lon="48.7409876"><time>2021-10-23T14:54:35.407</time></trkpt><trkpt lat="55.7396847" lon="48.7410603"><time>2021-10-23T14:54:40.380</time></trkpt><trkpt lat="55.7397145" lon="48.7411224"><time>2021-10-23T14:54:45.190</time></trkpt><trkpt lat="55.7397421" lon="48.7411983"><time>2021-10-23T14:54:50.390</time></trkpt><trkpt lat="55.7397677" lon="48.7412776"><time>2021-10-23T14:54:55.190</time></trkpt><trkpt lat="55.7397909" lon="48.7413534"><time>2021-10-23T14:55:00.193</time></trkpt><trkpt lat="55.7398107" lon="48.7414359"><time>2021-10-23T14:55:05.203</time></trkpt><trkpt lat="55.7398347" lon="48.7415179"><time>2021-10-23T14:55:10.383</time></trkpt><trkpt lat="55.7398578" lon="48.7416044"><time>2021-10-23T14:55:15.187</time></trkpt><trkpt lat="55.7398826" lon="48.7416905"><time>2021-10-23T14:55:20.393</time></trkpt><trkpt lat="55.7399110" lon="48.7417721"><time>2021-10-23T14:55:25.370</time></trkpt><trkpt lat="55.7399411" lon="48.7418553"><time>2021-10-23T14:55:30.203</time></trkpt><trkpt lat="55.7399625" lon="48.7419262"><time>2021-10-23T14:55:34.370</time></trkpt><trkpt lat="55.7399862" lon="48.7420069"><time>2021-10-23T14:55:39.187</time></trkpt><trkpt lat="55.7400117" lon="48.7420886"><time>2021-10-23T14:55:44.393</time></trkpt><trkpt lat="55.7400372" lon="48.7421605"><time>2021-10-23T14:55:48.420</time></trkpt><trkpt lat="55.7400577" lon="48.7422404"><time>2021-10-23T14:56:00.413</time></trkpt><trkpt lat="55.7400824" lon="48.7423213"><time>2021-10-23T14:56:06.397</time></trkpt><trkpt lat="55.7401129" lon="48.7424036"><time>2021-10-23T14:56:11.190</time></trkpt><trkpt lat="55.7401393" lon="48.7424763"><time>2021-10-23T14:56:15.407</time></trkpt><trkpt lat="55.7401618" lon="48.7425475"><time>2021-10-23T14:56:19.420</time></trkpt><trkpt lat="55.7401883" lon="48.7426308"><time>2021-10-23T14:56:23.397</time></trkpt><trkpt lat="55.7402174" lon="48.7427023"><time>2021-10-23T14:56:28.397</time></trkpt><trkpt lat="55.7402524" lon="48.7427750"><time>2021-10-23T14:56:33.397</time></trkpt><trkpt lat="55.7402871" lon="48.7428532"><time>2021-10-23T14:56:38.190</time></trkpt><trkpt lat="55.7403166" lon="48.7429275"><time>2021-10-23T14:56:43.390</time></trkpt><trkpt lat="55.7403447" lon="48.7430088"><time>2021-10-23T14:56:48.397</time></trkpt><trkpt lat="55.7403720" lon="48.7430904"><time>2021-10-23T14:56:53.307</time></trkpt><trkpt lat="55.7403953" lon="48.7431607"><time>2021-10-23T14:56:57.400</time></trkpt><trkpt lat="55.7404207" lon="48.7432408"><time>2021-10-23T14:57:01.387</time></trkpt><trkpt lat="55.7404443" lon="48.7433099"><time>2021-10-23T14:57:05.400</time></trkpt><trkpt lat="55.7404660" lon="48.7433804"><time>2021-10-23T14:57:09.407</time></trkpt><trkpt lat="55.7404935" lon="48.7434689"><time>2021-10-23T14:57:14.397</time></trkpt><trkpt lat="55.7405166" lon="48.7435477"><time>2021-10-23T14:57:18.410</time></trkpt><trkpt lat="55.7405425" lon="48.7436261"><time>2021-10-23T14:57:23.400</time></trkpt><trkpt lat="55.7405771" lon="48.7437045"><time>2021-10-23T14:57:28.387</time></trkpt><trkpt lat="55.7406071" lon="48.7437797"><time>2021-10-23T14:57:32.190</time></trkpt><trkpt lat="55.7406376" lon="48.7438568"><time>2021-10-23T14:57:36.190</time></trkpt><trkpt lat="55.7406684" lon="48.7439189"><time>2021-10-23T14:57:40.183</time></trkpt><trkpt lat="55.7406871" lon="48.7439975"><time>2021-10-23T14:57:45.193</time></trkpt><trkpt lat="55.7407092" lon="48.7440689"><time>2021-10-23T14:57:50.187</time></trkpt><trkpt lat="55.7407613" lon="48.7441565"><time>2021-10-23T14:57:57.227</time></trkpt><trkpt lat="55.7407955" lon="48.7442284"><time>2021-10-23T14:58:02.193</time></trkpt><trkpt lat="55.7408269" lon="48.7442954"><time>2021-10-23T14:58:06.187</time></trkpt><trkpt lat="55.7408576" lon="48.7443551"><time>2021-10-23T14:58:10.190</time></trkpt><trkpt lat="55.7408839" lon="48.7444248"><time>2021-10-23T14:58:14.193</time></trkpt><trkpt lat="55.7409756" lon="48.7446627"><time>2021-10-23T14:58:30.397</time></trkpt><trkpt lat="55.7410048" lon="48.7447358"><time>2021-10-23T14:58:34.210</time></trkpt><trkpt lat="55.7410405" lon="48.7447971"><time>2021-10-23T14:58:38.387</time></trkpt><trkpt lat="55.7410631" lon="48.7448667"><time>2021-10-23T14:58:42.183</time></trkpt><trkpt lat="55.7410978" lon="48.7449409"><time>2021-10-23T14:58:46.410</time></trkpt><trkpt lat="55.7411291" lon="48.7450037"><time>2021-10-23T14:58:50.397</time></trkpt><trkpt lat="55.7411561" lon="48.7450758"><time>2021-10-23T14:58:54.390</time></trkpt><trkpt lat="55.7411822" lon="48.7451418"><time>2021-10-23T14:58:59.180</time></trkpt><trkpt lat="55.7412208" lon="48.7452188"><time>2021-10-23T14:59:04.187</time></trkpt><trkpt lat="55.7412509" lon="48.7452870"><time>2021-10-23T14:59:08.357</time></trkpt><trkpt lat="55.7412946" lon="48.7453537"><time>2021-10-23T14:59:13.360</time></trkpt><trkpt lat="55.7413252" lon="48.7454261"><time>2021-10-23T14:59:17.410</time></trkpt><trkpt lat="55.7413667" lon="48.7455059"><time>2021-10-23T14:59:21.407</time></trkpt><trkpt lat="55.7414050" lon="48.7455758"><time>2021-10-23T14:59:25.413</time></trkpt><trkpt lat="55.7414490" lon="48.7456477"><time>2021-10-23T14:59:29.187</time></trkpt><trkpt lat="55.7414857" lon="48.7456991"><time>2021-10-23T14:59:33.370</time></trkpt><trkpt lat="55.7415158" lon="48.7457804"><time>2021-10-23T14:59:37.400</time></trkpt><trkpt lat="55.7415489" lon="48.7458405"><time>2021-10-23T14:59:42.190</time></trkpt><trkpt lat="55.7415846" lon="48.7459044"><time>2021-10-23T14:59:47.187</time></trkpt><trkpt lat="55.7416210" lon="48.7459768"><time>2021-10-23T14:59:52.397</time></trkpt><trkpt lat="55.7416517" lon="48.7460408"><time>2021-10-23T14:59:56.397</time></trkpt><trkpt lat="55.7416809" lon="48.7461038"><time>2021-10-23T15:00:00.387</time></trkpt><trkpt lat="55.7417191" lon="48.7461710"><time>2021-10-23T15:00:04.400</time></trkpt><trkpt lat="55.7417558" lon="48.7462251"><time>2021-10-23T15:00:08.220</time></trkpt><trkpt lat="55.7417868" lon="48.7462857"><time>2021-10-23T15:00:13.380</time></trkpt><trkpt lat="55.7418143" lon="48.7463545"><time>2021-10-23T15:00:18.397</time></trkpt><trkpt lat="55.7418393" lon="48.7464262"><time>2021-10-23T15:00:25.380</time></trkpt><trkpt lat="55.7418718" lon="48.7464867"><time>2021-10-23T15:00:30.380</time></trkpt><trkpt lat="55.7419056" lon="48.7465477"><time>2021-10-23T15:00:35.393</time></trkpt><trkpt lat="55.7419415" lon="48.7466038"><time>2021-10-23T15:00:44.390</time></trkpt><trkpt lat="55.7419771" lon="48.7466641"><time>2021-10-23T15:00:48.193</time></trkpt><trkpt lat="55.7420170" lon="48.7467392"><time>2021-10-23T15:00:52.383</time></trkpt><trkpt lat="55.7420498" lon="48.7467952"><time>2021-10-23T15:00:56.397</time></trkpt><trkpt lat="55.7420818" lon="48.7468664"><time>2021-10-23T15:01:01.383</time></trkpt><trkpt lat="55.7421176" lon="48.7469245"><time>2021-10-23T15:01:05.183</time></trkpt><trkpt lat="55.7421603" lon="48.7469796"><time>2021-10-23T15:01:10.400</time></trkpt><trkpt lat="55.7422005" lon="48.7470355"><time>2021-10-23T15:01:15.400</time></trkpt><trkpt lat="55.7422329" lon="48.7470959"><time>2021-10-23T15:01:20.413</time></trkpt><trkpt lat="55.7422719" lon="48.7471362"><time>2021-10-23T15:01:24.417</time></trkpt><trkpt lat="55.7423009" lon="48.7472178"><time>2021-10-23T15:01:29.417</time></trkpt><trkpt lat="55.7423365" lon="48.7472926"><time>2021-10-23T15:01:34.420</time></trkpt><trkpt lat="55.7423693" lon="48.7473534"><time>2021-10-23T15:01:39.403</time></trkpt><trkpt lat="55.7424046" lon="48.7474144"><time>2021-10-23T15:01:43.383</time></trkpt><trkpt lat="55.7424462" lon="48.7474610"><time>2021-10-23T15:01:47.187</time></trkpt><trkpt lat="55.7424863" lon="48.7475086"><time>2021-10-23T15:01:51.187</time></trkpt><trkpt lat="55.7425252" lon="48.7475523"><time>2021-10-23T15:01:55.187</time></trkpt><trkpt lat="55.7425655" lon="48.7476144"><time>2021-10-23T15:01:59.193</time></trkpt><trkpt lat="55.7426067" lon="48.7476816"><time>2021-10-23T15:02:04.190</time></trkpt><trkpt lat="55.7426417" lon="48.7477425"><time>2021-10-23T15:02:09.400</time></trkpt><trkpt lat="55.7426831" lon="48.7477910"><time>2021-10-23T15:02:15.197</time></trkpt><trkpt lat="55.7427167" lon="48.7478443"><time>2021-10-23T15:02:19.403</time></trkpt><trkpt lat="55.7427495" lon="48.7479103"><time>2021-10-23T15:02:23.187</time></trkpt><trkpt lat="55.7427855" lon="48.7479662"><time>2021-10-23T15:02:28.187</time></trkpt><trkpt lat="55.7428199" lon="48.7480423"><time>2021-10-23T15:02:34.190</time></trkpt><trkpt lat="55.7428603" lon="48.7480935"><time>2021-10-23T15:02:38.240</time></trkpt><trkpt lat="55.7429079" lon="48.7481106"><time>2021-10-23T15:02:43.190</time></trkpt><trkpt lat="55.7429622" lon="48.7481002"><time>2021-10-23T15:02:48.187</time></trkpt><trkpt lat="55.7430161" lon="48.7480914"><time>2021-10-23T15:02:52.190</time></trkpt><trkpt lat="55.7430669" lon="48.7480878"><time>2021-10-23T15:02:56.187</time></trkpt><trkpt lat="55.7431189" lon="48.7480960"><time>2021-10-23T15:03:00.193</time></trkpt><trkpt lat="55.7431645" lon="48.7480939"><time>2021-10-23T15:03:04.193</time></trkpt><trkpt lat="55.7432136" lon="48.7480852"><time>2021-10-23T15:03:08.193</time></trkpt><trkpt lat="55.7432615" lon="48.7480793"><time>2021-10-23T15:03:12.190</time></trkpt><trkpt lat="55.7433150" lon="48.7480860"><time>2021-10-23T15:03:17.187</time></trkpt><trkpt lat="55.7433609" lon="48.7480883"><time>2021-10-23T15:03:21.403</time></trkpt><trkpt lat="55.7434146" lon="48.7480758"><time>2021-10-23T15:03:26.183</time></trkpt><trkpt lat="55.7434644" lon="48.7480494"><time>2021-10-23T15:03:31.400</time></trkpt><trkpt lat="55.7435206" lon="48.7480211"><time>2021-10-23T15:03:37.193</time></trkpt><trkpt lat="55.7435576" lon="48.7479636"><time>2021-10-23T15:03:41.190</time></trkpt><trkpt lat="55.7435931" lon="48.7479015"><time>2021-10-23T15:03:45.363</time></trkpt><trkpt lat="55.7436323" lon="48.7478365"><time>2021-10-23T15:03:50.187</time></trkpt><trkpt lat="55.7436663" lon="48.7477686"><time>2021-10-23T15:03:54.193</time></trkpt><trkpt lat="55.7436986" lon="48.7476980"><time>2021-10-23T15:03:58.400</time></trkpt><trkpt lat="55.7437356" lon="48.7476098"><time>2021-10-23T15:04:03.393</time></trkpt><trkpt lat="55.7437680" lon="48.7475260"><time>2021-10-23T15:04:07.383</time></trkpt><trkpt lat="55.7437984" lon="48.7474457"><time>2021-10-23T15:04:11.363</time></trkpt><trkpt lat="55.7438226" lon="48.7473690"><time>2021-10-23T15:04:15.360</time></trkpt><trkpt lat="55.7438535" lon="48.7472982"><time>2021-10-23T15:04:19.363</time></trkpt><trkpt lat="55.7438907" lon="48.7472303"><time>2021-10-23T15:04:23.373</time></trkpt><trkpt lat="55.7439276" lon="48.7471510"><time>2021-10-23T15:04:28.377</time></trkpt><trkpt lat="55.7439589" lon="48.7470724"><time>2021-10-23T15:04:32.373</time></trkpt><trkpt lat="55.7439863" lon="48.7470040"><time>2021-10-23T15:04:36.360</time></trkpt><trkpt lat="55.7440128" lon="48.7469335"><time>2021-10-23T15:04:39.390</time></trkpt><trkpt lat="55.7440410" lon="48.7468592"><time>2021-10-23T15:04:43.397</time></trkpt><trkpt lat="55.7440756" lon="48.7467861"><time>2021-10-23T15:04:48.357</time></trkpt><trkpt lat="55.7441067" lon="48.7467228"><time>2021-10-23T15:04:52.187</time></trkpt><trkpt lat="55.7441439" lon="48.7466709"><time>2021-10-23T15:04:58.187</time></trkpt><trkpt lat="55.7441686" lon="48.7465917"><time>2021-10-23T15:05:03.193</time></trkpt><trkpt lat="55.7441904" lon="48.7465174"><time>2021-10-23T15:05:07.190</time></trkpt><trkpt lat="55.7442188" lon="48.7464450"><time>2021-10-23T15:05:11.190</time></trkpt><trkpt lat="55.7442406" lon="48.7463750"><time>2021-10-23T15:05:14.190</time></trkpt><trkpt lat="55.7442681" lon="48.7463020"><time>2021-10-23T15:05:18.187</time></trkpt><trkpt lat="55.7442959" lon="48.7462290"><time>2021-10-23T15:05:22.190</time></trkpt><trkpt lat="55.7443352" lon="48.7461750"><time>2021-10-23T15:05:27.190</time></trkpt><trkpt lat="55.7443730" lon="48.7461097"><time>2021-10-23T15:05:32.363</time></trkpt><trkpt lat="55.7444105" lon="48.7460461"><time>2021-10-23T15:05:37.200</time></trkpt><trkpt lat="55.7444432" lon="48.7459645"><time>2021-10-23T15:05:42.383</time></trkpt><trkpt lat="55.7444779" lon="48.7458807"><time>2021-10-23T15:05:46.387</time></trkpt><trkpt lat="55.7444987" lon="48.7458097"><time>2021-10-23T15:05:50.403</time></trkpt><trkpt lat="55.7445297" lon="48.7457326"><time>2021-10-23T15:05:54.197</time></trkpt><trkpt lat="55.7445559" lon="48.7456559"><time>2021-10-23T15:05:58.357</time></trkpt><trkpt lat="55.7445860" lon="48.7455845"><time>2021-10-23T15:06:02.230</time></trkpt><trkpt lat="55.7446117" lon="48.7455031"><time>2021-10-23T15:06:06.417</time></trkpt><trkpt lat="55.7446411" lon="48.7454274"><time>2021-10-23T15:06:10.407</time></trkpt><trkpt lat="55.7446657" lon="48.7453407"><time>2021-10-23T15:06:14.193</time></trkpt><trkpt lat="55.7446990" lon="48.7452571"><time>2021-10-23T15:06:19.397</time></trkpt><trkpt lat="55.7447267" lon="48.7451669"><time>2021-10-23T15:06:23.380</time></trkpt><trkpt lat="55.7447560" lon="48.7450834"><time>2021-10-23T15:06:28.387</time></trkpt><trkpt lat="55.7447718" lon="48.7449962"><time>2021-10-23T15:06:32.393</time></trkpt><trkpt lat="55.7447961" lon="48.7449276"><time>2021-10-23T15:06:36.400</time></trkpt><trkpt lat="55.7448173" lon="48.7448505"><time>2021-10-23T15:06:40.403</time></trkpt><trkpt lat="55.7448519" lon="48.7447741"><time>2021-10-23T15:06:44.393</time></trkpt><trkpt lat="55.7448857" lon="48.7447125"><time>2021-10-23T15:06:48.380</time></trkpt><trkpt lat="55.7449134" lon="48.7446320"><time>2021-10-23T15:06:52.363</time></trkpt><trkpt lat="55.7449379" lon="48.7445565"><time>2021-10-23T15:06:56.390</time></trkpt><trkpt lat="55.7449620" lon="48.7444829"><time>2021-10-23T15:07:00.417</time></trkpt><trkpt lat="55.7449685" lon="48.7443968"><time>2021-10-23T15:07:05.410</time></trkpt><trkpt lat="55.7449797" lon="48.7443113"><time>2021-10-23T15:07:10.377</time></trkpt><trkpt lat="55.7449988" lon="48.7442261"><time>2021-10-23T15:07:15.190</time></trkpt><trkpt lat="55.7450253" lon="48.7441564"><time>2021-10-23T15:07:19.383</time></trkpt><trkpt lat="55.7450552" lon="48.7440833"><time>2021-10-23T15:07:23.457</time></trkpt><trkpt lat="55.7450906" lon="48.7440068"><time>2021-10-23T15:07:27.383</time></trkpt><trkpt lat="55.7451287" lon="48.7439277"><time>2021-10-23T15:07:31.393</time></trkpt><trkpt lat="55.7451617" lon="48.7438659"><time>2021-10-23T15:07:35.403</time></trkpt><trkpt lat="55.7452030" lon="48.7438201"><time>2021-10-23T15:07:41.187</time></trkpt><trkpt lat="55.7452584" lon="48.7438570"><time>2021-10-23T15:07:44.363</time></trkpt><trkpt lat="55.7453080" lon="48.7439120"><time>2021-10-23T15:07:48.400</time></trkpt><trkpt lat="55.7453555" lon="48.7439320"><time>2021-10-23T15:07:51.407</time></trkpt><trkpt lat="55.7454056" lon="48.7439340"><time>2021-10-23T15:07:55.197</time></trkpt><trkpt lat="55.7454529" lon="48.7439531"><time>2021-10-23T15:07:58.190</time></trkpt><trkpt lat="55.7454962" lon="48.7439795"><time>2021-10-23T15:08:01.203</time></trkpt><trkpt lat="55.7455428" lon="48.7440443"><time>2021-10-23T15:08:05.387</time></trkpt><trkpt lat="55.7455846" lon="48.7440977"><time>2021-10-23T15:08:09.403</time></trkpt><trkpt lat="55.7456389" lon="48.7441201"><time>2021-10-23T15:08:13.400</time></trkpt><trkpt lat="55.7456813" lon="48.7440874"><time>2021-10-23T15:08:17.380</time></trkpt><trkpt lat="55.7457176" lon="48.7440225"><time>2021-10-23T15:08:22.400</time></trkpt><trkpt lat="55.7457536" lon="48.7439428"><time>2021-10-23T15:08:26.390</time></trkpt><trkpt lat="55.7457858" lon="48.7438673"><time>2021-10-23T15:08:31.393</time></trkpt><trkpt lat="55.7458212" lon="48.7438168"><time>2021-10-23T15:08:34.417</time></trkpt><trkpt lat="55.7458630" lon="48.7437536"><time>2021-10-23T15:08:38.403</time></trkpt><trkpt lat="55.7459138" lon="48.7437134"><time>2021-10-23T15:08:41.417</time></trkpt><trkpt lat="55.7459279" lon="48.7436305"><time>2021-10-23T15:08:50.400</time></trkpt><trkpt lat="55.7459502" lon="48.7435404"><time>2021-10-23T15:08:54.197</time></trkpt><trkpt lat="55.7459649" lon="48.7434637"><time>2021-10-23T15:08:58.370</time></trkpt><trkpt lat="55.7459900" lon="48.7433759"><time>2021-10-23T15:09:02.197</time></trkpt><trkpt lat="55.7460086" lon="48.7432897"><time>2021-10-23T15:09:05.190</time></trkpt><trkpt lat="55.7460332" lon="48.7432158"><time>2021-10-23T15:09:09.393</time></trkpt><trkpt lat="55.7460616" lon="48.7431333"><time>2021-10-23T15:09:13.387</time></trkpt><trkpt lat="55.7460852" lon="48.7430496"><time>2021-10-23T15:09:18.373</time></trkpt><trkpt lat="55.7460989" lon="48.7429705"><time>2021-10-23T15:09:22.397</time></trkpt><trkpt lat="55.7461291" lon="48.7428888"><time>2021-10-23T15:09:26.393</time></trkpt><trkpt lat="55.7461521" lon="48.7428094"><time>2021-10-23T15:09:30.393</time></trkpt><trkpt lat="55.7461806" lon="48.7427233"><time>2021-10-23T15:09:34.390</time></trkpt><trkpt lat="55.7462144" lon="48.7426559"><time>2021-10-23T15:09:39.417</time></trkpt><trkpt lat="55.7462385" lon="48.7425714"><time>2021-10-23T15:09:43.370</time></trkpt><trkpt lat="55.7462824" lon="48.7425242"><time>2021-10-23T15:09:49.423</time></trkpt><trkpt lat="55.7463306" lon="48.7425193"><time>2021-10-23T15:09:53.373</time></trkpt><trkpt lat="55.7463796" lon="48.7425138"><time>2021-10-23T15:09:56.193</time></trkpt><trkpt lat="55.7464274" lon="48.7424869"><time>2021-10-23T15:10:01.203</time></trkpt><trkpt lat="55.7464750" lon="48.7424627"><time>2021-10-23T15:10:06.197</time></trkpt><trkpt lat="55.7465260" lon="48.7424478"><time>2021-10-23T15:10:10.387</time></trkpt><trkpt lat="55.7465846" lon="48.7424406"><time>2021-10-23T15:10:15.387</time></trkpt><trkpt lat="55.7466340" lon="48.7424368"><time>2021-10-23T15:10:18.407</time></trkpt><trkpt lat="55.7466814" lon="48.7424208"><time>2021-10-23T15:10:23.197</time></trkpt><trkpt lat="55.7467352" lon="48.7423999"><time>2021-10-23T15:10:27.190</time></trkpt><trkpt lat="55.7467725" lon="48.7423419"><time>2021-10-23T15:10:30.403</time></trkpt><trkpt lat="55.7468140" lon="48.7422942"><time>2021-10-23T15:10:34.397</time></trkpt><trkpt lat="55.7468406" lon="48.7422287"><time>2021-10-23T15:10:37.400</time></trkpt><trkpt lat="55.7468707" lon="48.7421452"><time>2021-10-23T15:10:41.397</time></trkpt><trkpt lat="55.7468987" lon="48.7420812"><time>2021-10-23T15:10:44.400</time></trkpt><trkpt lat="55.7469151" lon="48.7419920"><time>2021-10-23T15:10:48.400</time></trkpt><trkpt lat="55.7469356" lon="48.7419014"><time>2021-10-23T15:10:53.407</time></trkpt><trkpt lat="55.7469658" lon="48.7418366"><time>2021-10-23T15:10:57.363</time></trkpt><trkpt lat="55.7469958" lon="48.7417522"><time>2021-10-23T15:11:01.367</time></trkpt><trkpt lat="55.7470250" lon="48.7416873"><time>2021-10-23T15:11:05.190</time></trkpt><trkpt lat="55.7470539" lon="48.7416053"><time>2021-10-23T15:11:10.197</time></trkpt><trkpt lat="55.7470759" lon="48.7415287"><time>2021-10-23T15:11:14.200</time></trkpt><trkpt lat="55.7471005" lon="48.7414544"><time>2021-10-23T15:11:18.380</time></trkpt><trkpt lat="55.7471235" lon="48.7413787"><time>2021-10-23T15:11:22.397</time></trkpt><trkpt lat="55.7471551" lon="48.7413047"><time>2021-10-23T15:11:26.450</time></trkpt><trkpt lat="55.7471822" lon="48.7412279"><time>2021-10-23T15:11:30.397</time></trkpt><trkpt lat="55.7472096" lon="48.7411531"><time>2021-10-23T15:11:36.193</time></trkpt><trkpt lat="55.7471754" lon="48.7410866"><time>2021-10-23T15:11:43.187</time></trkpt><trkpt lat="55.7471336" lon="48.7410439"><time>2021-10-23T15:11:54.187</time></trkpt><trkpt lat="55.7471578" lon="48.7409936"><time>2021-10-23T15:12:11.360</time></trkpt><trkpt lat="55.7471735" lon="48.7409998"><time>2021-10-23T15:12:14.190</time></trkpt><trkpt lat="55.7472064" lon="48.7410601"><time>2021-10-23T15:12:19.187</time></trkpt><trkpt lat="55.7472510" lon="48.7410116"><time>2021-10-23T15:12:24.190</time></trkpt><trkpt lat="55.7472740" lon="48.7409276"><time>2021-10-23T15:12:30.217</time></trkpt><trkpt lat="55.7472957" lon="48.7408432"><time>2021-10-23T15:12:35.367</time></trkpt><trkpt lat="55.7473166" lon="48.7407682"><time>2021-10-23T15:12:39.360</time></trkpt><trkpt lat="55.7473438" lon="48.7406808"><time>2021-10-23T15:12:43.403</time></trkpt><trkpt lat="55.7473743" lon="48.7406081"><time>2021-10-23T15:12:47.420</time></trkpt><trkpt lat="55.7474116" lon="48.7405351"><time>2021-10-23T15:12:52.393</time></trkpt><trkpt lat="55.7474550" lon="48.7404749"><time>2021-10-23T15:12:56.193</time></trkpt><trkpt lat="55.7474939" lon="48.7404232"><time>2021-10-23T15:13:01.390</time></trkpt><trkpt lat="55.7475246" lon="48.7403606"><time>2021-10-23T15:13:14.197</time></trkpt><trkpt lat="55.7475676" lon="48.7403346"><time>2021-10-23T15:13:18.477</time></trkpt><trkpt lat="55.7476178" lon="48.7403596"><time>2021-10-23T15:13:22.197</time></trkpt><trkpt lat="55.7476620" lon="48.7403941"><time>2021-10-23T15:13:29.190</time></trkpt><trkpt lat="55.7476962" lon="48.7403293"><time>2021-10-23T15:13:35.190</time></trkpt><trkpt lat="55.7477240" lon="48.7402510"><time>2021-10-23T15:13:41.397</time></trkpt><trkpt lat="55.7477619" lon="48.7401622"><time>2021-10-23T15:13:45.403</time></trkpt><trkpt lat="55.7477806" lon="48.7400880"><time>2021-10-23T15:13:49.380</time></trkpt><trkpt lat="55.7478036" lon="48.7399957"><time>2021-10-23T15:13:53.363</time></trkpt><trkpt lat="55.7478190" lon="48.7399066"><time>2021-10-23T15:13:58.443</time></trkpt><trkpt lat="55.7478417" lon="48.7398355"><time>2021-10-23T15:14:02.187</time></trkpt><trkpt lat="55.7478725" lon="48.7397533"><time>2021-10-23T15:14:06.387</time></trkpt><trkpt lat="55.7478906" lon="48.7396803"><time>2021-10-23T15:14:11.330</time></trkpt><trkpt lat="55.7479026" lon="48.7395812"><time>2021-10-23T15:14:15.193</time></trkpt><trkpt lat="55.7479265" lon="48.7395016"><time>2021-10-23T15:14:19.377</time></trkpt><trkpt lat="55.7479425" lon="48.7394125"><time>2021-10-23T15:14:23.360</time></trkpt><trkpt lat="55.7479567" lon="48.7393283"><time>2021-10-23T15:14:27.397</time></trkpt><trkpt lat="55.7479571" lon="48.7392337"><time>2021-10-23T15:14:32.193</time></trkpt><trkpt lat="55.7479463" lon="48.7391504"><time>2021-10-23T15:14:35.387</time></trkpt><trkpt lat="55.7479388" lon="48.7390675"><time>2021-10-23T15:14:42.367</time></trkpt><trkpt lat="55.7479257" lon="48.7389872"><time>2021-10-23T15:14:49.360</time></trkpt><trkpt lat="55.7479039" lon="48.7388950"><time>2021-10-23T15:14:54.197</time></trkpt><trkpt lat="55.7478804" lon="48.7388248"><time>2021-10-23T15:14:57.433</time></trkpt><trkpt lat="55.7478689" lon="48.7387409"><time>2021-10-23T15:15:01.190</time></trkpt><trkpt lat="55.7478598" lon="48.7386629"><time>2021-10-23T15:15:04.403</time></trkpt><trkpt lat="55.7478368" lon="48.7385873"><time>2021-10-23T15:15:08.403</time></trkpt><trkpt lat="55.7478260" lon="48.7385041"><time>2021-10-23T15:15:12.393</time></trkpt><trkpt lat="55.7478043" lon="48.7384178"><time>2021-10-23T15:15:16.200</time></trkpt><trkpt lat="55.7477851" lon="48.7383239"><time>2021-10-23T15:15:20.227</time></trkpt><trkpt lat="55.7478168" lon="48.7382534"><time>2021-10-23T15:15:25.197</time></trkpt><trkpt lat="55.7478643" lon="48.7382395"><time>2021-10-23T15:15:28.390</time></trkpt><trkpt lat="55.7479175" lon="48.7382296"><time>2021-10-23T15:15:33.390</time></trkpt><trkpt lat="55.7479602" lon="48.7382004"><time>2021-10-23T15:15:36.407</time></trkpt><trkpt lat="55.7480094" lon="48.7381828"><time>2021-10-23T15:15:40.363</time></trkpt><trkpt lat="55.7480723" lon="48.7381589"><time>2021-10-23T15:15:44.397</time></trkpt><trkpt lat="55.7481255" lon="48.7381378"><time>2021-10-23T15:15:47.400</time></trkpt><trkpt lat="55.7481738" lon="48.7381142"><time>2021-10-23T15:15:51.400</time></trkpt><trkpt lat="55.7482142" lon="48.7380454"><time>2021-10-23T15:15:55.197</time></trkpt><trkpt lat="55.7482269" lon="48.7379669"><time>2021-10-23T15:15:59.243</time></trkpt><trkpt lat="55.7482399" lon="48.7378828"><time>2021-10-23T15:16:03.193</time></trkpt><trkpt lat="55.7482759" lon="48.7378267"><time>2021-10-23T15:16:07.400</time></trkpt><trkpt lat="55.7483076" lon="48.7377644"><time>2021-10-23T15:16:12.387</time></trkpt><trkpt lat="55.7483217" lon="48.7376873"><time>2021-10-23T15:16:16.363</time></trkpt><trkpt lat="55.7483403" lon="48.7376138"><time>2021-10-23T15:16:24.387</time></trkpt><trkpt lat="55.7483829" lon="48.7375480"><time>2021-10-23T15:16:30.417</time></trkpt><trkpt lat="55.7484294" lon="48.7375452"><time>2021-10-23T15:16:33.360</time></trkpt><trkpt lat="55.7484759" lon="48.7375690"><time>2021-10-23T15:16:37.373</time></trkpt><trkpt lat="55.7485209" lon="48.7375280"><time>2021-10-23T15:16:43.407</time></trkpt><trkpt lat="55.7485581" lon="48.7374768"><time>2021-10-23T15:16:48.387</time></trkpt><trkpt lat="55.7486009" lon="48.7374364"><time>2021-10-23T15:16:53.387</time></trkpt><trkpt lat="55.7486485" lon="48.7374149"><time>2021-10-23T15:16:57.390</time></trkpt><trkpt lat="55.7486828" lon="48.7373600"><time>2021-10-23T15:17:07.190</time></trkpt><trkpt lat="55.7487123" lon="48.7373137"><time>2021-10-23T15:17:47.510</time></trkpt><trkpt lat="55.7487170" lon="48.7373052"><time>2021-10-23T15:17:55.197</time></trkpt><trkpt lat="55.7486751" lon="48.7373369"><time>2021-10-23T15:18:08.190</time></trkpt><trkpt lat="55.7486337" lon="48.7373864"><time>2021-10-23T15:18:17.193</time></trkpt><trkpt lat="55.7486020" lon="48.7374579"><time>2021-10-23T15:18:25.193</time></trkpt><trkpt lat="55.7485599" lon="48.7374985"><time>2021-10-23T15:18:34.197</time></trkpt><trkpt lat="55.7485161" lon="48.7375417"><time>2021-10-23T15:18:38.197</time></trkpt><trkpt lat="55.7484740" lon="48.7375901"><time>2021-10-23T15:18:45.200</time></trkpt><trkpt lat="55.7484266" lon="48.7375548"><time>2021-10-23T15:18:51.193</time></trkpt><trkpt lat="55.7483784" lon="48.7375767"><time>2021-10-23T15:18:57.207</time></trkpt><trkpt lat="55.7483550" lon="48.7376540"><time>2021-10-23T15:19:07.197</time></trkpt><trkpt lat="55.7483137" lon="48.7377006"><time>2021-10-23T15:19:12.203</time></trkpt><trkpt lat="55.7483251" lon="48.7377836"><time>2021-10-23T15:19:18.190</time></trkpt><trkpt lat="55.7483595" lon="48.7378387"><time>2021-10-23T15:19:26.197</time></trkpt><trkpt lat="55.7483965" lon="48.7378930"><time>2021-10-23T15:19:30.200</time></trkpt><trkpt lat="55.7484425" lon="48.7379174"><time>2021-10-23T15:19:34.223</time></trkpt><trkpt lat="55.7484909" lon="48.7379633"><time>2021-10-23T15:19:38.193</time></trkpt><trkpt lat="55.7484966" lon="48.7380533"><time>2021-10-23T15:19:43.197</time></trkpt><trkpt lat="55.7485105" lon="48.7381470"><time>2021-10-23T15:19:47.200</time></trkpt><trkpt lat="55.7485214" lon="48.7382354"><time>2021-10-23T15:19:52.203</time></trkpt><trkpt lat="55.7485295" lon="48.7383250"><time>2021-10-23T15:19:56.200</time></trkpt><trkpt lat="55.7485378" lon="48.7384094"><time>2021-10-23T15:20:01.203</time></trkpt><trkpt lat="55.7485620" lon="48.7384940"><time>2021-10-23T15:20:06.210</time></trkpt><trkpt lat="55.7485925" lon="48.7385642"><time>2021-10-23T15:20:10.197</time></trkpt><trkpt lat="55.7486415" lon="48.7385667"><time>2021-10-23T15:20:17.197</time></trkpt><trkpt lat="55.7486931" lon="48.7385642"><time>2021-10-23T15:20:21.190</time></trkpt><trkpt lat="55.7487390" lon="48.7385708"><time>2021-10-23T15:20:25.193</time></trkpt><trkpt lat="55.7487919" lon="48.7385907"><time>2021-10-23T15:20:29.193</time></trkpt><trkpt lat="55.7488422" lon="48.7386089"><time>2021-10-23T15:20:34.197</time></trkpt><trkpt lat="55.7488949" lon="48.7386150"><time>2021-10-23T15:20:38.193</time></trkpt><trkpt lat="55.7489401" lon="48.7386109"><time>2021-10-23T15:20:41.197</time></trkpt><trkpt lat="55.7489855" lon="48.7385931"><time>2021-10-23T15:20:45.193</time></trkpt><trkpt lat="55.7490326" lon="48.7385915"><time>2021-10-23T15:20:50.200</time></trkpt><trkpt lat="55.7490801" lon="48.7386140"><time>2021-10-23T15:20:54.200</time></trkpt><trkpt lat="55.7491289" lon="48.7386309"><time>2021-10-23T15:20:58.200</time></trkpt><trkpt lat="55.7491809" lon="48.7386620"><time>2021-10-23T15:21:03.197</time></trkpt><trkpt lat="55.7492388" lon="48.7386881"><time>2021-10-23T15:21:08.197</time></trkpt><trkpt lat="55.7492897" lon="48.7387085"><time>2021-10-23T15:21:12.197</time></trkpt><trkpt lat="55.7493462" lon="48.7387367"><time>2021-10-23T15:21:16.207</time></trkpt><trkpt lat="55.7493929" lon="48.7387574"><time>2021-10-23T15:21:20.220</time></trkpt><trkpt lat="55.7494420" lon="48.7387900"><time>2021-10-23T15:21:25.193</time></trkpt><trkpt lat="55.7494917" lon="48.7388179"><time>2021-10-23T15:21:30.207</time></trkpt><trkpt lat="55.7495334" lon="48.7388483"><time>2021-10-23T15:21:34.200</time></trkpt><trkpt lat="55.7495788" lon="48.7388965"><time>2021-10-23T15:21:39.207</time></trkpt><trkpt lat="55.7496158" lon="48.7389642"><time>2021-10-23T15:21:44.197</time></trkpt><trkpt lat="55.7496536" lon="48.7390127"><time>2021-10-23T15:21:49.197</time></trkpt><trkpt lat="55.7496975" lon="48.7390697"><time>2021-10-23T15:21:54.203</time></trkpt><trkpt lat="55.7497389" lon="48.7391295"><time>2021-10-23T15:21:58.203</time></trkpt><trkpt lat="55.7497746" lon="48.7391944"><time>2021-10-23T15:22:02.197</time></trkpt><trkpt lat="55.7498167" lon="48.7392534"><time>2021-10-23T15:22:06.193</time></trkpt><trkpt lat="55.7498576" lon="48.7393024"><time>2021-10-23T15:22:10.197</time></trkpt><trkpt lat="55.7498796" lon="48.7393752"><time>2021-10-23T15:22:15.200</time></trkpt><trkpt lat="55.7498959" lon="48.7394604"><time>2021-10-23T15:22:19.193</time></trkpt><trkpt lat="55.7499066" lon="48.7395443"><time>2021-10-23T15:22:22.197</time></trkpt><trkpt lat="55.7499158" lon="48.7396293"><time>2021-10-23T15:22:26.200</time></trkpt><trkpt lat="55.7499216" lon="48.7397213"><time>2021-10-23T15:22:30.200</time></trkpt><trkpt lat="55.7499291" lon="48.7398150"><time>2021-10-23T15:22:34.203</time></trkpt><trkpt lat="55.7499315" lon="48.7399161"><time>2021-10-23T15:22:39.200</time></trkpt><trkpt lat="55.7499212" lon="48.7399980"><time>2021-10-23T15:22:43.197</time></trkpt><trkpt lat="55.7499108" lon="48.7400861"><time>2021-10-23T15:22:47.197</time></trkpt><trkpt lat="55.7498930" lon="48.7401638"><time>2021-10-23T15:22:52.317</time></trkpt><trkpt lat="55.7498714" lon="48.7402438"><time>2021-10-23T15:22:56.200</time></trkpt><trkpt lat="55.7498460" lon="48.7403258"><time>2021-10-23T15:23:01.197</time></trkpt><trkpt lat="55.7498315" lon="48.7404046"><time>2021-10-23T15:23:06.200</time></trkpt><trkpt lat="55.7498582" lon="48.7404817"><time>2021-10-23T15:23:10.200</time></trkpt><trkpt lat="55.7498931" lon="48.7405321"><time>2021-10-23T15:23:13.197</time></trkpt><trkpt lat="55.7499356" lon="48.7405772"><time>2021-10-23T15:23:17.193</time></trkpt><trkpt lat="55.7499822" lon="48.7406158"><time>2021-10-23T15:23:21.197</time></trkpt><trkpt lat="55.7500284" lon="48.7406349"><time>2021-10-23T15:23:25.203</time></trkpt><trkpt lat="55.7500844" lon="48.7405913"><time>2021-10-23T15:23:29.203</time></trkpt><trkpt lat="55.7501321" lon="48.7405621"><time>2021-10-23T15:23:32.193</time></trkpt><trkpt lat="55.7501794" lon="48.7405826"><time>2021-10-23T15:23:36.197</time></trkpt><trkpt lat="55.7502320" lon="48.7406024"><time>2021-10-23T15:23:41.193</time></trkpt><trkpt lat="55.7502823" lon="48.7406311"><time>2021-10-23T15:23:46.190</time></trkpt><trkpt lat="55.7503293" lon="48.7406851"><time>2021-10-23T15:23:51.197</time></trkpt><trkpt lat="55.7503717" lon="48.7407187"><time>2021-10-23T15:23:55.197</time></trkpt><trkpt lat="55.7504195" lon="48.7407466"><time>2021-10-23T15:23:59.203</time></trkpt><trkpt lat="55.7504603" lon="48.7407873"><time>2021-10-23T15:24:03.193</time></trkpt><trkpt lat="55.7505071" lon="48.7408078"><time>2021-10-23T15:24:07.193</time></trkpt><trkpt lat="55.7505580" lon="48.7408286"><time>2021-10-23T15:24:11.210</time></trkpt><trkpt lat="55.7505976" lon="48.7408695"><time>2021-10-23T15:24:14.197</time></trkpt><trkpt lat="55.7506502" lon="48.7408866"><time>2021-10-23T15:24:18.197</time></trkpt><trkpt lat="55.7507055" lon="48.7409001"><time>2021-10-23T15:24:23.197</time></trkpt><trkpt lat="55.7507527" lon="48.7409313"><time>2021-10-23T15:24:27.197</time></trkpt><trkpt lat="55.7507929" lon="48.7409716"><time>2021-10-23T15:24:31.200</time></trkpt><trkpt lat="55.7508311" lon="48.7410153"><time>2021-10-23T15:24:35.193</time></trkpt><trkpt lat="55.7508759" lon="48.7410481"><time>2021-10-23T15:24:39.200</time></trkpt><trkpt lat="55.7509152" lon="48.7410966"><time>2021-10-23T15:24:43.200</time></trkpt><trkpt lat="55.7509220" lon="48.7411797"><time>2021-10-23T15:24:48.197</time></trkpt><trkpt lat="55.7509021" lon="48.7412773"><time>2021-10-23T15:24:52.210</time></trkpt><trkpt lat="55.7508820" lon="48.7413557"><time>2021-10-23T15:24:56.197</time></trkpt><trkpt lat="55.7508692" lon="48.7414438"><time>2021-10-23T15:25:01.190</time></trkpt><trkpt lat="55.7508551" lon="48.7415442"><time>2021-10-23T15:25:05.203</time></trkpt><trkpt lat="55.7508594" lon="48.7416387"><time>2021-10-23T15:25:09.203</time></trkpt><trkpt lat="55.7508824" lon="48.7417210"><time>2021-10-23T15:25:15.207</time></trkpt><trkpt lat="55.7509358" lon="48.7417554"><time>2021-10-23T15:25:21.193</time></trkpt><trkpt lat="55.7509832" lon="48.7418140"><time>2021-10-23T15:25:25.197</time></trkpt><trkpt lat="55.7510212" lon="48.7418653"><time>2021-10-23T15:25:27.200</time></trkpt><trkpt lat="55.7510629" lon="48.7419344"><time>2021-10-23T15:25:29.200</time></trkpt><trkpt lat="55.7510960" lon="48.7419931"><time>2021-10-23T15:25:31.203</time></trkpt><trkpt lat="55.7511418" lon="48.7420377"><time>2021-10-23T15:25:36.193</time></trkpt><trkpt lat="55.7511798" lon="48.7420980"><time>2021-10-23T15:25:40.213</time></trkpt><trkpt lat="55.7512359" lon="48.7421219"><time>2021-10-23T15:25:44.203</time></trkpt><trkpt lat="55.7512866" lon="48.7421380"><time>2021-10-23T15:25:49.403</time></trkpt><trkpt lat="55.7513402" lon="48.7421567"><time>2021-10-23T15:25:55.377</time></trkpt><trkpt lat="55.7513803" lon="48.7422104"><time>2021-10-23T15:26:02.200</time></trkpt><trkpt lat="55.7514108" lon="48.7422756"><time>2021-10-23T15:26:07.427</time></trkpt><trkpt lat="55.7514612" lon="48.7423078"><time>2021-10-23T15:26:11.193</time></trkpt><trkpt lat="55.7515175" lon="48.7423222"><time>2021-10-23T15:26:15.407</time></trkpt><trkpt lat="55.7515758" lon="48.7423372"><time>2021-10-23T15:26:19.423</time></trkpt><trkpt lat="55.7516280" lon="48.7423521"><time>2021-10-23T15:26:23.407</time></trkpt><trkpt lat="55.7516740" lon="48.7423699"><time>2021-10-23T15:26:28.403</time></trkpt><trkpt lat="55.7517179" lon="48.7423888"><time>2021-10-23T15:26:33.370</time></trkpt><trkpt lat="55.7517695" lon="48.7424118"><time>2021-10-23T15:26:38.380</time></trkpt><trkpt lat="55.7518245" lon="48.7424018"><time>2021-10-23T15:26:55.373</time></trkpt><trkpt lat="55.7518746" lon="48.7424006"><time>2021-10-23T15:26:58.400</time></trkpt><trkpt lat="55.7519220" lon="48.7424021"><time>2021-10-23T15:27:01.410</time></trkpt><trkpt lat="55.7519762" lon="48.7424027"><time>2021-10-23T15:27:05.413</time></trkpt><trkpt lat="55.7520308" lon="48.7423961"><time>2021-10-23T15:27:09.203</time></trkpt><trkpt lat="55.7520811" lon="48.7423500"><time>2021-10-23T15:27:11.420</time></trkpt><trkpt lat="55.7521116" lon="48.7422870"><time>2021-10-23T15:27:14.403</time></trkpt><trkpt lat="55.7521593" lon="48.7422874"><time>2021-10-23T15:27:18.400</time></trkpt><trkpt lat="55.7522172" lon="48.7422948"><time>2021-10-23T15:27:21.423</time></trkpt><trkpt lat="55.7522667" lon="48.7422918"><time>2021-10-23T15:27:25.410</time></trkpt><trkpt lat="55.7523179" lon="48.7423055"><time>2021-10-23T15:27:30.430</time></trkpt><trkpt lat="55.7523613" lon="48.7422672"><time>2021-10-23T15:27:36.197</time></trkpt><trkpt lat="55.7523721" lon="48.7421757"><time>2021-10-23T15:27:40.407</time></trkpt><trkpt lat="55.7523876" lon="48.7420792"><time>2021-10-23T15:27:45.410</time></trkpt><trkpt lat="55.7524073" lon="48.7420036"><time>2021-10-23T15:27:49.400</time></trkpt><trkpt lat="55.7524297" lon="48.7419301"><time>2021-10-23T15:27:53.373</time></trkpt><trkpt lat="55.7524498" lon="48.7418423"><time>2021-10-23T15:27:59.200</time></trkpt><trkpt lat="55.7524601" lon="48.7417480"><time>2021-10-23T15:28:04.393</time></trkpt><trkpt lat="55.7524731" lon="48.7416713"><time>2021-10-23T15:28:08.420</time></trkpt><trkpt lat="55.7524918" lon="48.7415973"><time>2021-10-23T15:28:12.210</time></trkpt><trkpt lat="55.7525178" lon="48.7415211"><time>2021-10-23T15:28:17.393</time></trkpt><trkpt lat="55.7525718" lon="48.7415000"><time>2021-10-23T15:28:22.407</time></trkpt><trkpt lat="55.7526255" lon="48.7414717"><time>2021-10-23T15:28:26.410</time></trkpt><trkpt lat="55.7526815" lon="48.7414354"><time>2021-10-23T15:28:30.417</time></trkpt><trkpt lat="55.7527186" lon="48.7413883"><time>2021-10-23T15:28:34.403</time></trkpt><trkpt lat="55.7527467" lon="48.7413044"><time>2021-10-23T15:28:39.390</time></trkpt><trkpt lat="55.7527662" lon="48.7412275"><time>2021-10-23T15:28:43.423</time></trkpt><trkpt lat="55.7527974" lon="48.7411555"><time>2021-10-23T15:28:47.457</time></trkpt><trkpt lat="55.7528185" lon="48.7410654"><time>2021-10-23T15:28:52.203</time></trkpt><trkpt lat="55.7528363" lon="48.7409735"><time>2021-10-23T15:28:58.383</time></trkpt><trkpt lat="55.7528528" lon="48.7408796"><time>2021-10-23T15:29:03.403</time></trkpt><trkpt lat="55.7528765" lon="48.7407891"><time>2021-10-23T15:29:08.370</time></trkpt><trkpt lat="55.7528989" lon="48.7406976"><time>2021-10-23T15:29:12.193</time></trkpt><trkpt lat="55.7529121" lon="48.7406162"><time>2021-10-23T15:29:15.403</time></trkpt><trkpt lat="55.7529281" lon="48.7405362"><time>2021-10-23T15:29:19.197</time></trkpt><trkpt lat="55.7529429" lon="48.7404529"><time>2021-10-23T15:29:23.397</time></trkpt><trkpt lat="55.7529544" lon="48.7403555"><time>2021-10-23T15:29:27.430</time></trkpt><trkpt lat="55.7529574" lon="48.7402750"><time>2021-10-23T15:29:31.407</time></trkpt><trkpt lat="55.7529642" lon="48.7401854"><time>2021-10-23T15:29:36.400</time></trkpt><trkpt lat="55.7529740" lon="48.7400944"><time>2021-10-23T15:29:43.390</time></trkpt><trkpt lat="55.7529903" lon="48.7400110"><time>2021-10-23T15:29:47.190</time></trkpt><trkpt lat="55.7530051" lon="48.7399336"><time>2021-10-23T15:29:51.387</time></trkpt><trkpt lat="55.7530282" lon="48.7398427"><time>2021-10-23T15:29:55.403</time></trkpt><trkpt lat="55.7530366" lon="48.7397611"><time>2021-10-23T15:29:58.393</time></trkpt><trkpt lat="55.7530424" lon="48.7396685"><time>2021-10-23T15:30:02.397</time></trkpt><trkpt lat="55.7530480" lon="48.7395748"><time>2021-10-23T15:30:06.403</time></trkpt><trkpt lat="55.7530545" lon="48.7394917"><time>2021-10-23T15:30:10.390</time></trkpt><trkpt lat="55.7530667" lon="48.7393967"><time>2021-10-23T15:30:15.193</time></trkpt><trkpt lat="55.7530845" lon="48.7393142"><time>2021-10-23T15:30:20.213</time></trkpt><trkpt lat="55.7530969" lon="48.7392350"><time>2021-10-23T15:30:24.407</time></trkpt><trkpt lat="55.7531046" lon="48.7391514"><time>2021-10-23T15:30:29.193</time></trkpt><trkpt lat="55.7531192" lon="48.7390609"><time>2021-10-23T15:30:34.190</time></trkpt><trkpt lat="55.7531411" lon="48.7389851"><time>2021-10-23T15:30:40.200</time></trkpt><trkpt lat="55.7531917" lon="48.7389562"><time>2021-10-23T15:30:46.367</time></trkpt><trkpt lat="55.7532403" lon="48.7389748"><time>2021-10-23T15:30:51.200</time></trkpt><trkpt lat="55.7532845" lon="48.7389940"><time>2021-10-23T15:30:55.200</time></trkpt><trkpt lat="55.7533306" lon="48.7389994"><time>2021-10-23T15:31:00.197</time></trkpt><trkpt lat="55.7533323" lon="48.7390256"><time>2021-10-23T15:31:08.520</time></trkpt><trkpt lat="55.7533181" lon="48.7390978"><time>2021-10-23T15:31:21.387</time></trkpt><trkpt lat="55.7533065" lon="48.7391834"><time>2021-10-23T15:31:25.377</time></trkpt><trkpt lat="55.7533025" lon="48.7392757"><time>2021-10-23T15:31:29.227</time></trkpt><trkpt lat="55.7532994" lon="48.7393552"><time>2021-10-23T15:31:33.427</time></trkpt><trkpt lat="55.7532996" lon="48.7394382"><time>2021-10-23T15:31:39.370</time></trkpt><trkpt lat="55.7533440" lon="48.7394561"><time>2021-10-23T15:31:45.407</time></trkpt><trkpt lat="55.7533554" lon="48.7395899"><time>2021-10-23T15:31:49.697</time></trkpt><trkpt lat="55.7533452" lon="48.7396831"><time>2021-10-23T15:31:53.387</time></trkpt><trkpt lat="55.7533359" lon="48.7397939"><time>2021-10-23T15:31:57.260</time></trkpt><trkpt lat="55.7533210" lon="48.7398817"><time>2021-10-23T15:32:01.210</time></trkpt><trkpt lat="55.7533097" lon="48.7399756"><time>2021-10-23T15:32:05.213</time></trkpt><trkpt lat="55.7533254" lon="48.7400530"><time>2021-10-23T15:32:10.403</time></trkpt><trkpt lat="55.7533513" lon="48.7401258"><time>2021-10-23T15:32:22.407</time></trkpt><trkpt lat="55.7533904" lon="48.7401956"><time>2021-10-23T15:32:27.400</time></trkpt><trkpt lat="55.7534363" lon="48.7402251"><time>2021-10-23T15:32:30.420</time></trkpt><trkpt lat="55.7534793" lon="48.7402624"><time>2021-10-23T15:32:34.200</time></trkpt><trkpt lat="55.7535214" lon="48.7403013"><time>2021-10-23T15:32:41.390</time></trkpt><trkpt lat="55.7535672" lon="48.7403443"><time>2021-10-23T15:32:50.377</time></trkpt><trkpt lat="55.7536254" lon="48.7403295"><time>2021-10-23T15:32:53.377</time></trkpt><trkpt lat="55.7536874" lon="48.7403316"><time>2021-10-23T15:32:56.207</time></trkpt><trkpt lat="55.7537450" lon="48.7403408"><time>2021-10-23T15:32:59.417</time></trkpt><trkpt lat="55.7537933" lon="48.7403711"><time>2021-10-23T15:33:03.493</time></trkpt><trkpt lat="55.7538399" lon="48.7403999"><time>2021-10-23T15:33:07.390</time></trkpt><trkpt lat="55.7538919" lon="48.7404103"><time>2021-10-23T15:33:10.380</time></trkpt><trkpt lat="55.7539494" lon="48.7404232"><time>2021-10-23T15:33:13.370</time></trkpt><trkpt lat="55.7539827" lon="48.7404978"><time>2021-10-23T15:33:18.403</time></trkpt><trkpt lat="55.7540195" lon="48.7405468"><time>2021-10-23T15:33:22.193</time></trkpt><trkpt lat="55.7540573" lon="48.7405927"><time>2021-10-23T15:33:27.210</time></trkpt><trkpt lat="55.7541015" lon="48.7406186"><time>2021-10-23T15:33:31.387</time></trkpt><trkpt lat="55.7541476" lon="48.7406364"><time>2021-10-23T15:33:35.190</time></trkpt><trkpt lat="55.7542033" lon="48.7406307"><time>2021-10-23T15:33:38.190</time></trkpt><trkpt lat="55.7542505" lon="48.7406172"><time>2021-10-23T15:33:41.197</time></trkpt><trkpt lat="55.7542992" lon="48.7406084"><time>2021-10-23T15:33:45.197</time></trkpt><trkpt lat="55.7543437" lon="48.7406221"><time>2021-10-23T15:33:48.400</time></trkpt><trkpt lat="55.7543893" lon="48.7406297"><time>2021-10-23T15:33:52.370</time></trkpt><trkpt lat="55.7544303" lon="48.7405843"><time>2021-10-23T15:34:04.313</time></trkpt><trkpt lat="55.7544600" lon="48.7404965"><time>2021-10-23T15:34:07.403</time></trkpt><trkpt lat="55.7544856" lon="48.7404010"><time>2021-10-23T15:34:11.407</time></trkpt><trkpt lat="55.7545071" lon="48.7403189"><time>2021-10-23T15:34:14.373</time></trkpt><trkpt lat="55.7545270" lon="48.7402428"><time>2021-10-23T15:34:19.200</time></trkpt><trkpt lat="55.7545463" lon="48.7401613"><time>2021-10-23T15:34:24.370</time></trkpt><trkpt lat="55.7545618" lon="48.7400646"><time>2021-10-23T15:34:28.410</time></trkpt><trkpt lat="55.7545852" lon="48.7399946"><time>2021-10-23T15:34:32.400</time></trkpt><trkpt lat="55.7546063" lon="48.7399185"><time>2021-10-23T15:34:36.403</time></trkpt><trkpt lat="55.7546186" lon="48.7398378"><time>2021-10-23T15:34:40.397</time></trkpt><trkpt lat="55.7546394" lon="48.7397577"><time>2021-10-23T15:34:44.400</time></trkpt><trkpt lat="55.7546548" lon="48.7396720"><time>2021-10-23T15:34:48.397</time></trkpt><trkpt lat="55.7546731" lon="48.7395896"><time>2021-10-23T15:34:52.360</time></trkpt><trkpt lat="55.7546877" lon="48.7395081"><time>2021-10-23T15:34:56.393</time></trkpt><trkpt lat="55.7546939" lon="48.7394263"><time>2021-10-23T15:35:00.403</time></trkpt><trkpt lat="55.7547016" lon="48.7393378"><time>2021-10-23T15:35:05.407</time></trkpt><trkpt lat="55.7547194" lon="48.7392599"><time>2021-10-23T15:35:10.397</time></trkpt><trkpt lat="55.7547379" lon="48.7391790"><time>2021-10-23T15:35:16.197</time></trkpt><trkpt lat="55.7547700" lon="48.7391195"><time>2021-10-23T15:35:34.397</time></trkpt><trkpt lat="55.7548167" lon="48.7390912"><time>2021-10-23T15:35:40.410</time></trkpt><trkpt lat="55.7548659" lon="48.7390608"><time>2021-10-23T15:35:45.370</time></trkpt><trkpt lat="55.7549008" lon="48.7389929"><time>2021-10-23T15:35:50.357</time></trkpt><trkpt lat="55.7549425" lon="48.7389516"><time>2021-10-23T15:35:57.377</time></trkpt><trkpt lat="55.7549880" lon="48.7389226"><time>2021-10-23T15:36:02.370</time></trkpt><trkpt lat="55.7550270" lon="48.7388640"><time>2021-10-23T15:36:07.373</time></trkpt><trkpt lat="55.7550662" lon="48.7387867"><time>2021-10-23T15:36:12.370</time></trkpt><trkpt lat="55.7550965" lon="48.7387140"><time>2021-10-23T15:36:17.363</time></trkpt><trkpt lat="55.7551259" lon="48.7386463"><time>2021-10-23T15:36:22.197</time></trkpt><trkpt lat="55.7551581" lon="48.7385793"><time>2021-10-23T15:36:27.197</time></trkpt><trkpt lat="55.7551966" lon="48.7385135"><time>2021-10-23T15:36:32.413</time></trkpt><trkpt lat="55.7552348" lon="48.7384528"><time>2021-10-23T15:36:37.197</time></trkpt><trkpt lat="55.7552695" lon="48.7383848"><time>2021-10-23T15:36:43.390</time></trkpt><trkpt lat="55.7553120" lon="48.7383409"><time>2021-10-23T15:36:48.423</time></trkpt><trkpt lat="55.7553660" lon="48.7383040"><time>2021-10-23T15:36:52.400</time></trkpt><trkpt lat="55.7554086" lon="48.7382736"><time>2021-10-23T15:36:56.363</time></trkpt><trkpt lat="55.7554398" lon="48.7382104"><time>2021-10-23T15:37:01.387</time></trkpt><trkpt lat="55.7554784" lon="48.7381425"><time>2021-10-23T15:37:08.390</time></trkpt><trkpt lat="55.7555107" lon="48.7380654"><time>2021-10-23T15:37:17.200</time></trkpt><trkpt lat="55.7555439" lon="48.7380006"><time>2021-10-23T15:37:21.197</time></trkpt><trkpt lat="55.7555837" lon="48.7379304"><time>2021-10-23T15:37:26.397</time></trkpt><trkpt lat="55.7556273" lon="48.7378954"><time>2021-10-23T15:37:31.417</time></trkpt><trkpt lat="55.7556816" lon="48.7378598"><time>2021-10-23T15:37:36.257</time></trkpt><trkpt lat="55.7557309" lon="48.7378205"><time>2021-10-23T15:37:41.410</time></trkpt><trkpt lat="55.7557531" lon="48.7377504"><time>2021-10-23T15:37:48.417</time></trkpt><trkpt lat="55.7557852" lon="48.7376828"><time>2021-10-23T15:37:53.423</time></trkpt><trkpt lat="55.7558269" lon="48.7376256"><time>2021-10-23T15:37:58.403</time></trkpt><trkpt lat="55.7558756" lon="48.7375840"><time>2021-10-23T15:38:02.383</time></trkpt><trkpt lat="55.7559275" lon="48.7375424"><time>2021-10-23T15:38:07.393</time></trkpt><trkpt lat="55.7559695" lon="48.7375086"><time>2021-10-23T15:38:12.393</time></trkpt><trkpt lat="55.7560052" lon="48.7374460"><time>2021-10-23T15:38:17.400</time></trkpt><trkpt lat="55.7560445" lon="48.7373939"><time>2021-10-23T15:38:22.197</time></trkpt><trkpt lat="55.7560868" lon="48.7373402"><time>2021-10-23T15:38:27.413</time></trkpt><trkpt lat="55.7561337" lon="48.7373019"><time>2021-10-23T15:38:31.400</time></trkpt><trkpt lat="55.7561719" lon="48.7372521"><time>2021-10-23T15:38:36.393</time></trkpt><trkpt lat="55.7562118" lon="48.7372073"><time>2021-10-23T15:38:40.410</time></trkpt><trkpt lat="55.7562585" lon="48.7371630"><time>2021-10-23T15:38:44.403</time></trkpt><trkpt lat="55.7563053" lon="48.7371226"><time>2021-10-23T15:38:48.423</time></trkpt><trkpt lat="55.7563342" lon="48.7370581"><time>2021-10-23T15:38:55.403</time></trkpt><trkpt lat="55.7563790" lon="48.7370375"><time>2021-10-23T15:39:00.377</time></trkpt><trkpt lat="55.7564221" lon="48.7369796"><time>2021-10-23T15:39:05.410</time></trkpt><trkpt lat="55.7564658" lon="48.7369342"><time>2021-10-23T15:39:08.397</time></trkpt><trkpt lat="55.7565064" lon="48.7368976"><time>2021-10-23T15:39:11.400</time></trkpt><trkpt lat="55.7565467" lon="48.7368496"><time>2021-10-23T15:39:16.410</time></trkpt><trkpt lat="55.7565932" lon="48.7368450"><time>2021-10-23T15:39:20.403</time></trkpt><trkpt lat="55.7566436" lon="48.7368358"><time>2021-10-23T15:39:24.203</time></trkpt><trkpt lat="55.7566895" lon="48.7368119"><time>2021-10-23T15:39:29.427</time></trkpt><trkpt lat="55.7567249" lon="48.7367592"><time>2021-10-23T15:39:34.383</time></trkpt><trkpt lat="55.7567538" lon="48.7366796"><time>2021-10-23T15:39:39.410</time></trkpt><trkpt lat="55.7567824" lon="48.7366064"><time>2021-10-23T15:39:44.370</time></trkpt><trkpt lat="55.7568217" lon="48.7365522"><time>2021-10-23T15:39:49.400</time></trkpt><trkpt lat="55.7568586" lon="48.7364950"><time>2021-10-23T15:39:54.400</time></trkpt><trkpt lat="55.7569035" lon="48.7364515"><time>2021-10-23T15:40:00.413</time></trkpt><trkpt lat="55.7569442" lon="48.7364068"><time>2021-10-23T15:40:04.200</time></trkpt><trkpt lat="55.7569871" lon="48.7363663"><time>2021-10-23T15:40:08.403</time></trkpt><trkpt lat="55.7570324" lon="48.7363085"><time>2021-10-23T15:40:13.400</time></trkpt><trkpt lat="55.7570756" lon="48.7362621"><time>2021-10-23T15:40:17.417</time></trkpt><trkpt lat="55.7571210" lon="48.7362033"><time>2021-10-23T15:40:22.200</time></trkpt><trkpt lat="55.7571632" lon="48.7361463"><time>2021-10-23T15:40:27.373</time></trkpt><trkpt lat="55.7572074" lon="48.7361079"><time>2021-10-23T15:40:31.403</time></trkpt><trkpt lat="55.7572533" lon="48.7360547"><time>2021-10-23T15:40:35.197</time></trkpt><trkpt lat="55.7572922" lon="48.7359958"><time>2021-10-23T15:40:39.397</time></trkpt><trkpt lat="55.7573377" lon="48.7359523"><time>2021-10-23T15:40:43.410</time></trkpt><trkpt lat="55.7573862" lon="48.7359116"><time>2021-10-23T15:40:47.393</time></trkpt><trkpt lat="55.7574305" lon="48.7358691"><time>2021-10-23T15:40:51.420</time></trkpt><trkpt lat="55.7574660" lon="48.7358168"><time>2021-10-23T15:40:56.387</time></trkpt><trkpt lat="55.7574911" lon="48.7357479"><time>2021-10-23T15:41:02.390</time></trkpt><trkpt lat="55.7575309" lon="48.7356974"><time>2021-10-23T15:41:05.380</time></trkpt><trkpt lat="55.7575769" lon="48.7356625"><time>2021-10-23T15:41:09.393</time></trkpt><trkpt lat="55.7576224" lon="48.7356263"><time>2021-10-23T15:41:13.413</time></trkpt><trkpt lat="55.7576612" lon="48.7355773"><time>2021-10-23T15:41:18.393</time></trkpt><trkpt lat="55.7577002" lon="48.7355205"><time>2021-10-23T15:41:22.397</time></trkpt><trkpt lat="55.7577400" lon="48.7354770"><time>2021-10-23T15:41:27.407</time></trkpt><trkpt lat="55.7577842" lon="48.7354320"><time>2021-10-23T15:41:32.417</time></trkpt><trkpt lat="55.7578311" lon="48.7353838"><time>2021-10-23T15:41:37.427</time></trkpt><trkpt lat="55.7578753" lon="48.7353299"><time>2021-10-23T15:41:42.373</time></trkpt><trkpt lat="55.7579210" lon="48.7352789"><time>2021-10-23T15:41:46.387</time></trkpt><trkpt lat="55.7579584" lon="48.7352192"><time>2021-10-23T15:41:51.403</time></trkpt><trkpt lat="55.7580007" lon="48.7351500"><time>2021-10-23T15:41:56.410</time></trkpt><trkpt lat="55.7580387" lon="48.7350953"><time>2021-10-23T15:42:00.417</time></trkpt><trkpt lat="55.7580728" lon="48.7350412"><time>2021-10-23T15:42:04.387</time></trkpt><trkpt lat="55.7581115" lon="48.7349830"><time>2021-10-23T15:42:08.403</time></trkpt><trkpt lat="55.7581402" lon="48.7349117"><time>2021-10-23T15:42:14.410</time></trkpt><trkpt lat="55.7581553" lon="48.7348247"><time>2021-10-23T15:42:19.393</time></trkpt><trkpt lat="55.7581722" lon="48.7347491"><time>2021-10-23T15:42:31.190</time></trkpt><trkpt lat="55.7581733" lon="48.7347492"><time>2021-10-23T15:42:34.027</time></trkpt><trkpt lat="55.7582155" lon="48.7348093"><time>2021-10-23T15:42:52.390</time></trkpt><trkpt lat="55.7582533" lon="48.7348562"><time>2021-10-23T15:42:58.410</time></trkpt><trkpt lat="55.7582570" lon="48.7349423"><time>2021-10-23T15:43:02.377</time></trkpt><trkpt lat="55.7582801" lon="48.7350199"><time>2021-10-23T15:43:08.397</time></trkpt><trkpt lat="55.7582824" lon="48.7351132"><time>2021-10-23T15:43:15.400</time></trkpt><trkpt lat="55.7582909" lon="48.7351919"><time>2021-10-23T15:43:24.377</time></trkpt><trkpt lat="55.7582992" lon="48.7352769"><time>2021-10-23T15:43:30.417</time></trkpt><trkpt lat="55.7582971" lon="48.7353605"><time>2021-10-23T15:43:36.430</time></trkpt><trkpt lat="55.7583042" lon="48.7354411"><time>2021-10-23T15:43:40.403</time></trkpt><trkpt lat="55.7583129" lon="48.7355273"><time>2021-10-23T15:43:44.417</time></trkpt><trkpt lat="55.7583124" lon="48.7356221"><time>2021-10-23T15:43:49.403</time></trkpt><trkpt lat="55.7583063" lon="48.7357015"><time>2021-10-23T15:43:53.197</time></trkpt><trkpt lat="55.7583037" lon="48.7357935"><time>2021-10-23T15:43:58.387</time></trkpt><trkpt lat="55.7583101" lon="48.7358796"><time>2021-10-23T15:44:02.403</time></trkpt><trkpt lat="55.7583158" lon="48.7359717"><time>2021-10-23T15:44:06.373</time></trkpt><trkpt lat="55.7583185" lon="48.7360515"><time>2021-10-23T15:44:09.380</time></trkpt><trkpt lat="55.7583215" lon="48.7361320"><time>2021-10-23T15:44:12.387</time></trkpt><trkpt lat="55.7583173" lon="48.7362287"><time>2021-10-23T15:44:18.373</time></trkpt><trkpt lat="55.7583254" lon="48.7363226"><time>2021-10-23T15:44:24.197</time></trkpt><trkpt lat="55.7583229" lon="48.7364238"><time>2021-10-23T15:44:29.397</time></trkpt><trkpt lat="55.7583219" lon="48.7365271"><time>2021-10-23T15:44:33.377</time></trkpt><trkpt lat="55.7583242" lon="48.7366157"><time>2021-10-23T15:44:38.373</time></trkpt><trkpt lat="55.7583333" lon="48.7367019"><time>2021-10-23T15:44:42.407</time></trkpt><trkpt lat="55.7583297" lon="48.7368024"><time>2021-10-23T15:44:47.403</time></trkpt><trkpt lat="55.7583318" lon="48.7369100"><time>2021-10-23T15:44:53.207</time></trkpt><trkpt lat="55.7583342" lon="48.7369994"><time>2021-10-23T15:44:58.393</time></trkpt><trkpt lat="55.7583434" lon="48.7370887"><time>2021-10-23T15:45:02.377</time></trkpt><trkpt lat="55.7583491" lon="48.7371819"><time>2021-10-23T15:45:08.417</time></trkpt><trkpt lat="55.7583505" lon="48.7372837"><time>2021-10-23T15:45:12.430</time></trkpt><trkpt lat="55.7583406" lon="48.7373784"><time>2021-10-23T15:45:17.440</time></trkpt><trkpt lat="55.7583361" lon="48.7374681"><time>2021-10-23T15:45:24.423</time></trkpt><trkpt lat="55.7583354" lon="48.7375707"><time>2021-10-23T15:45:28.420</time></trkpt><trkpt lat="55.7583359" lon="48.7376628"><time>2021-10-23T15:45:32.207</time></trkpt><trkpt lat="55.7583420" lon="48.7377565"><time>2021-10-23T15:45:36.197</time></trkpt><trkpt lat="55.7583406" lon="48.7378517"><time>2021-10-23T15:45:41.367</time></trkpt><trkpt lat="55.7583415" lon="48.7379349"><time>2021-10-23T15:45:47.403</time></trkpt><trkpt lat="55.7583565" lon="48.7380250"><time>2021-10-23T15:45:52.413</time></trkpt><trkpt lat="55.7583558" lon="48.7381145"><time>2021-10-23T15:45:57.387</time></trkpt><trkpt lat="55.7583506" lon="48.7381974"><time>2021-10-23T15:46:02.207</time></trkpt><trkpt lat="55.7583586" lon="48.7382818"><time>2021-10-23T15:46:05.630</time></trkpt><trkpt lat="55.7583481" lon="48.7383635"><time>2021-10-23T15:46:08.197</time></trkpt><trkpt lat="55.7583395" lon="48.7384519"><time>2021-10-23T15:46:12.197</time></trkpt><trkpt lat="55.7583288" lon="48.7385387"><time>2021-10-23T15:46:18.203</time></trkpt><trkpt lat="55.7583263" lon="48.7386265"><time>2021-10-23T15:46:23.200</time></trkpt><trkpt lat="55.7583202" lon="48.7387177"><time>2021-10-23T15:46:29.193</time></trkpt><trkpt lat="55.7583322" lon="48.7388056"><time>2021-10-23T15:46:36.193</time></trkpt><trkpt lat="55.7583507" lon="48.7389010"><time>2021-10-23T15:46:42.210</time></trkpt><trkpt lat="55.7583623" lon="48.7389975"><time>2021-10-23T15:46:47.197</time></trkpt><trkpt lat="55.7583626" lon="48.7390973"><time>2021-10-23T15:46:51.390</time></trkpt><trkpt lat="55.7583666" lon="48.7391979"><time>2021-10-23T15:46:55.400</time></trkpt><trkpt lat="55.7583727" lon="48.7393071"><time>2021-10-23T15:47:01.400</time></trkpt><trkpt lat="55.7583791" lon="48.7393895"><time>2021-10-23T15:47:05.393</time></trkpt><trkpt lat="55.7584088" lon="48.7395186"><time>2021-10-23T15:47:10.427</time></trkpt><trkpt lat="55.7584249" lon="48.7395997"><time>2021-10-23T15:47:14.397</time></trkpt><trkpt lat="55.7584497" lon="48.7396846"><time>2021-10-23T15:47:18.417</time></trkpt><trkpt lat="55.7584719" lon="48.7397577"><time>2021-10-23T15:47:22.407</time></trkpt><trkpt lat="55.7584904" lon="48.7398304"><time>2021-10-23T15:47:25.407</time></trkpt><trkpt lat="55.7585167" lon="48.7399007"><time>2021-10-23T15:47:30.203</time></trkpt><trkpt lat="55.7585439" lon="48.7399796"><time>2021-10-23T15:47:35.407</time></trkpt><trkpt lat="55.7585719" lon="48.7400671"><time>2021-10-23T15:47:45.417</time></trkpt><trkpt lat="55.7585963" lon="48.7401470"><time>2021-10-23T15:47:49.477</time></trkpt><trkpt lat="55.7586186" lon="48.7402224"><time>2021-10-23T15:47:53.397</time></trkpt><trkpt lat="55.7586363" lon="48.7402993"><time>2021-10-23T15:47:56.407</time></trkpt><trkpt lat="55.7586535" lon="48.7403964"><time>2021-10-23T15:48:02.383</time></trkpt><trkpt lat="55.7586830" lon="48.7404832"><time>2021-10-23T15:48:07.203</time></trkpt><trkpt lat="55.7587048" lon="48.7405531"><time>2021-10-23T15:48:10.190</time></trkpt><trkpt lat="55.7587323" lon="48.7406262"><time>2021-10-23T15:48:15.400</time></trkpt><trkpt lat="55.7587631" lon="48.7406898"><time>2021-10-23T15:48:19.377</time></trkpt><trkpt lat="55.7588034" lon="48.7407646"><time>2021-10-23T15:48:27.997</time></trkpt><trkpt lat="55.7588232" lon="48.7408452"><time>2021-10-23T15:48:32.203</time></trkpt><trkpt lat="55.7588353" lon="48.7409341"><time>2021-10-23T15:48:38.197</time></trkpt><trkpt lat="55.7588413" lon="48.7410292"><time>2021-10-23T15:48:45.200</time></trkpt><trkpt lat="55.7588694" lon="48.7411135"><time>2021-10-23T15:49:01.200</time></trkpt><trkpt lat="55.7588969" lon="48.7411796"><time>2021-10-23T15:49:05.207</time></trkpt><trkpt lat="55.7589214" lon="48.7412645"><time>2021-10-23T15:49:10.227</time></trkpt><trkpt lat="55.7589468" lon="48.7413324"><time>2021-10-23T15:49:14.200</time></trkpt><trkpt lat="55.7589755" lon="48.7414161"><time>2021-10-23T15:49:19.200</time></trkpt><trkpt lat="55.7590010" lon="48.7415070"><time>2021-10-23T15:49:24.193</time></trkpt><trkpt lat="55.7590193" lon="48.7415942"><time>2021-10-23T15:49:29.397</time></trkpt><trkpt lat="55.7590370" lon="48.7416774"><time>2021-10-23T15:49:33.397</time></trkpt><trkpt lat="55.7590443" lon="48.7417595"><time>2021-10-23T15:49:37.337</time></trkpt><trkpt lat="55.7590589" lon="48.7418362"><time>2021-10-23T15:49:40.407</time></trkpt><trkpt lat="55.7590686" lon="48.7419178"><time>2021-10-23T15:49:44.393</time></trkpt><trkpt lat="55.7590860" lon="48.7419974"><time>2021-10-23T15:49:47.393</time></trkpt><trkpt lat="55.7591001" lon="48.7420760"><time>2021-10-23T15:49:50.217</time></trkpt><trkpt lat="55.7591229" lon="48.7421592"><time>2021-10-23T15:49:54.410</time></trkpt><trkpt lat="55.7591646" lon="48.7422023"><time>2021-10-23T15:50:01.400</time></trkpt><trkpt lat="55.7591886" lon="48.7422853"><time>2021-10-23T15:50:06.417</time></trkpt><trkpt lat="55.7592085" lon="48.7423572"><time>2021-10-23T15:50:10.367</time></trkpt><trkpt lat="55.7592339" lon="48.7424422"><time>2021-10-23T15:50:15.400</time></trkpt><trkpt lat="55.7592569" lon="48.7425190"><time>2021-10-23T15:50:19.413</time></trkpt><trkpt lat="55.7592774" lon="48.7425929"><time>2021-10-23T15:50:23.203</time></trkpt><trkpt lat="55.7593155" lon="48.7426395"><time>2021-10-23T15:50:31.403</time></trkpt><trkpt lat="55.7593595" lon="48.7426017"><time>2021-10-23T15:50:34.203</time></trkpt><trkpt lat="55.7594035" lon="48.7425462"><time>2021-10-23T15:50:37.197</time></trkpt><trkpt lat="55.7594230" lon="48.7424709"><time>2021-10-23T15:50:42.380</time></trkpt><trkpt lat="55.7594721" lon="48.7424410"><time>2021-10-23T15:50:49.407</time></trkpt><trkpt lat="55.7595183" lon="48.7424501"><time>2021-10-23T15:50:53.403</time></trkpt><trkpt lat="55.7595688" lon="48.7424159"><time>2021-10-23T15:50:59.193</time></trkpt><trkpt lat="55.7596147" lon="48.7424002"><time>2021-10-23T15:51:06.197</time></trkpt><trkpt lat="55.7596661" lon="48.7423883"><time>2021-10-23T15:51:19.197</time></trkpt><trkpt lat="55.7597173" lon="48.7423788"><time>2021-10-23T15:51:23.200</time></trkpt><trkpt lat="55.7597704" lon="48.7423750"><time>2021-10-23T15:51:28.693</time></trkpt><trkpt lat="55.7598169" lon="48.7423687"><time>2021-10-23T15:51:34.197</time></trkpt><trkpt lat="55.7598698" lon="48.7423640"><time>2021-10-23T15:51:38.197</time></trkpt><trkpt lat="55.7599164" lon="48.7423594"><time>2021-10-23T15:51:42.197</time></trkpt><trkpt lat="55.7599648" lon="48.7423670"><time>2021-10-23T15:51:45.617</time></trkpt><trkpt lat="55.7600170" lon="48.7423909"><time>2021-10-23T15:51:50.263</time></trkpt><trkpt lat="55.7600655" lon="48.7424043"><time>2021-10-23T15:51:54.190</time></trkpt><trkpt lat="55.7601173" lon="48.7424126"><time>2021-10-23T15:51:59.193</time></trkpt><trkpt lat="55.7601756" lon="48.7424258"><time>2021-10-23T15:52:03.207</time></trkpt><trkpt lat="55.7602237" lon="48.7424408"><time>2021-10-23T15:52:06.197</time></trkpt><trkpt lat="55.7602763" lon="48.7424300"><time>2021-10-23T15:52:10.247</time></trkpt><trkpt lat="55.7603222" lon="48.7424470"><time>2021-10-23T15:52:15.197</time></trkpt><trkpt lat="55.7603722" lon="48.7424477"><time>2021-10-23T15:52:20.193</time></trkpt><trkpt lat="55.7604211" lon="48.7424474"><time>2021-10-23T15:52:25.193</time></trkpt><trkpt lat="55.7604722" lon="48.7424783"><time>2021-10-23T15:52:31.193</time></trkpt><trkpt lat="55.7605166" lon="48.7425040"><time>2021-10-23T15:52:37.197</time></trkpt><trkpt lat="55.7605632" lon="48.7425259"><time>2021-10-23T15:52:41.217</time></trkpt><trkpt lat="55.7606155" lon="48.7425359"><time>2021-10-23T15:52:45.197</time></trkpt><trkpt lat="55.7606701" lon="48.7425500"><time>2021-10-23T15:52:49.193</time></trkpt><trkpt lat="55.7607143" lon="48.7425702"><time>2021-10-23T15:52:53.197</time></trkpt><trkpt lat="55.7607595" lon="48.7425740"><time>2021-10-23T15:52:57.197</time></trkpt><trkpt lat="55.7608038" lon="48.7425894"><time>2021-10-23T15:53:02.193</time></trkpt><trkpt lat="55.7608583" lon="48.7426059"><time>2021-10-23T15:53:06.210</time></trkpt><trkpt lat="55.7609050" lon="48.7426346"><time>2021-10-23T15:53:10.193</time></trkpt><trkpt lat="55.7609613" lon="48.7426396"><time>2021-10-23T15:53:18.590</time></trkpt><trkpt lat="55.7610128" lon="48.7426521"><time>2021-10-23T15:53:22.197</time></trkpt><trkpt lat="55.7610652" lon="48.7426624"><time>2021-10-23T15:53:29.197</time></trkpt><trkpt lat="55.7611255" lon="48.7426746"><time>2021-10-23T15:53:34.193</time></trkpt><trkpt lat="55.7611716" lon="48.7427050"><time>2021-10-23T15:53:38.193</time></trkpt><trkpt lat="55.7612186" lon="48.7427169"><time>2021-10-23T15:53:43.193</time></trkpt><trkpt lat="55.7613006" lon="48.7427644"><time>2021-10-23T15:53:50.577</time></trkpt><trkpt lat="55.7613446" lon="48.7427826"><time>2021-10-23T15:53:53.197</time></trkpt><trkpt lat="55.7614014" lon="48.7428116"><time>2021-10-23T15:53:57.203</time></trkpt><trkpt lat="55.7614456" lon="48.7428357"><time>2021-10-23T15:54:01.193</time></trkpt><trkpt lat="55.7614906" lon="48.7428311"><time>2021-10-23T15:54:07.197</time></trkpt><trkpt lat="55.7615452" lon="48.7428462"><time>2021-10-23T15:54:11.217</time></trkpt><trkpt lat="55.7616024" lon="48.7428486"><time>2021-10-23T15:54:18.677</time></trkpt><trkpt lat="55.7616504" lon="48.7428475"><time>2021-10-23T15:54:27.190</time></trkpt><trkpt lat="55.7616963" lon="48.7428689"><time>2021-10-23T15:54:31.200</time></trkpt><trkpt lat="55.7617478" lon="48.7429054"><time>2021-10-23T15:54:36.230</time></trkpt><trkpt lat="55.7618030" lon="48.7429470"><time>2021-10-23T15:54:41.217</time></trkpt><trkpt lat="55.7618529" lon="48.7429620"><time>2021-10-23T15:54:45.200</time></trkpt><trkpt lat="55.7619013" lon="48.7429707"><time>2021-10-23T15:54:49.193</time></trkpt><trkpt lat="55.7619506" lon="48.7430048"><time>2021-10-23T15:54:54.197</time></trkpt><trkpt lat="55.7619894" lon="48.7430463"><time>2021-10-23T15:54:58.207</time></trkpt><trkpt lat="55.7620370" lon="48.7430603"><time>2021-10-23T15:55:03.197</time></trkpt><trkpt lat="55.7620819" lon="48.7430860"><time>2021-10-23T15:55:08.410</time></trkpt><trkpt lat="55.7621252" lon="48.7431075"><time>2021-10-23T15:55:13.200</time></trkpt><trkpt lat="55.7621751" lon="48.7431353"><time>2021-10-23T15:55:18.200</time></trkpt><trkpt lat="55.7622069" lon="48.7431917"><time>2021-10-23T15:55:22.197</time></trkpt><trkpt lat="55.7622416" lon="48.7432698"><time>2021-10-23T15:55:26.203</time></trkpt><trkpt lat="55.7622788" lon="48.7433185"><time>2021-10-23T15:55:30.197</time></trkpt><trkpt lat="55.7623327" lon="48.7433557"><time>2021-10-23T15:55:36.643</time></trkpt><trkpt lat="55.7623645" lon="48.7434273"><time>2021-10-23T15:55:40.200</time></trkpt><trkpt lat="55.7624060" lon="48.7434611"><time>2021-10-23T15:55:45.197</time></trkpt><trkpt lat="55.7624461" lon="48.7435127"><time>2021-10-23T15:55:50.203</time></trkpt><trkpt lat="55.7624779" lon="48.7435975"><time>2021-10-23T15:55:54.200</time></trkpt><trkpt lat="55.7625045" lon="48.7436729"><time>2021-10-23T15:55:58.200</time></trkpt><trkpt lat="55.7625417" lon="48.7437254"><time>2021-10-23T15:56:03.200</time></trkpt><trkpt lat="55.7625802" lon="48.7437845"><time>2021-10-23T15:56:08.197</time></trkpt><trkpt lat="55.7626232" lon="48.7438381"><time>2021-10-23T15:56:13.197</time></trkpt><trkpt lat="55.7626591" lon="48.7438908"><time>2021-10-23T15:56:17.203</time></trkpt><trkpt lat="55.7626996" lon="48.7439652"><time>2021-10-23T15:56:23.193</time></trkpt><trkpt lat="55.7627265" lon="48.7440410"><time>2021-10-23T15:56:27.207</time></trkpt><trkpt lat="55.7627405" lon="48.7441249"><time>2021-10-23T15:56:34.027</time></trkpt><trkpt lat="55.7627457" lon="48.7442158"><time>2021-10-23T15:56:37.203</time></trkpt><trkpt lat="55.7627646" lon="48.7443037"><time>2021-10-23T15:56:42.187</time></trkpt><trkpt lat="55.7627804" lon="48.7443834"><time>2021-10-23T15:56:46.190</time></trkpt><trkpt lat="55.7628032" lon="48.7444556"><time>2021-10-23T15:56:51.200</time></trkpt><trkpt lat="55.7628565" lon="48.7444778"><time>2021-10-23T15:56:58.383</time></trkpt><trkpt lat="55.7628996" lon="48.7445166"><time>2021-10-23T15:57:02.197</time></trkpt><trkpt lat="55.7629511" lon="48.7445340"><time>2021-10-23T15:57:06.200</time></trkpt><trkpt lat="55.7629971" lon="48.7445488"><time>2021-10-23T15:57:09.197</time></trkpt><trkpt lat="55.7630446" lon="48.7445520"><time>2021-10-23T15:57:14.197</time></trkpt><trkpt lat="55.7630952" lon="48.7445636"><time>2021-10-23T15:57:22.903</time></trkpt><trkpt lat="55.7631242" lon="48.7446288"><time>2021-10-23T15:57:26.193</time></trkpt><trkpt lat="55.7631626" lon="48.7446920"><time>2021-10-23T15:57:30.200</time></trkpt><trkpt lat="55.7632138" lon="48.7447245"><time>2021-10-23T15:57:35.200</time></trkpt><trkpt lat="55.7632416" lon="48.7448021"><time>2021-10-23T15:57:39.197</time></trkpt><trkpt lat="55.7632716" lon="48.7448829"><time>2021-10-23T15:57:44.197</time></trkpt><trkpt lat="55.7633074" lon="48.7449525"><time>2021-10-23T15:57:48.200</time></trkpt><trkpt lat="55.7633369" lon="48.7450387"><time>2021-10-23T15:57:52.200</time></trkpt><trkpt lat="55.7633758" lon="48.7451079"><time>2021-10-23T15:57:56.203</time></trkpt><trkpt lat="55.7634153" lon="48.7451643"><time>2021-10-23T15:58:01.203</time></trkpt><trkpt lat="55.7634497" lon="48.7452254"><time>2021-10-23T15:58:06.200</time></trkpt><trkpt lat="55.7634863" lon="48.7452741"><time>2021-10-23T15:58:10.200</time></trkpt><trkpt lat="55.7635180" lon="48.7453502"><time>2021-10-23T15:58:16.197</time></trkpt><trkpt lat="55.7635578" lon="48.7454053"><time>2021-10-23T15:58:20.207</time></trkpt><trkpt lat="55.7636046" lon="48.7454497"><time>2021-10-23T15:58:25.203</time></trkpt><trkpt lat="55.7636387" lon="48.7455038"><time>2021-10-23T15:58:29.203</time></trkpt><trkpt lat="55.7636831" lon="48.7455510"><time>2021-10-23T15:58:34.193</time></trkpt><trkpt lat="55.7637183" lon="48.7456039"><time>2021-10-23T15:58:38.197</time></trkpt><trkpt lat="55.7637645" lon="48.7456634"><time>2021-10-23T15:58:43.207</time></trkpt><trkpt lat="55.7637933" lon="48.7457404"><time>2021-10-23T15:58:51.200</time></trkpt><trkpt lat="55.7638233" lon="48.7458073"><time>2021-10-23T15:58:56.203</time></trkpt><trkpt lat="55.7638652" lon="48.7458558"><time>2021-10-23T15:59:00.203</time></trkpt><trkpt lat="55.7639109" lon="48.7459047"><time>2021-10-23T15:59:05.207</time></trkpt><trkpt lat="55.7639594" lon="48.7459613"><time>2021-10-23T15:59:09.203</time></trkpt><trkpt lat="55.7639965" lon="48.7460119"><time>2021-10-23T15:59:12.217</time></trkpt><trkpt lat="55.7640433" lon="48.7460817"><time>2021-10-23T15:59:18.057</time></trkpt><trkpt lat="55.7640883" lon="48.7460976"><time>2021-10-23T15:59:21.197</time></trkpt><trkpt lat="55.7641400" lon="48.7461269"><time>2021-10-23T15:59:27.213</time></trkpt><trkpt lat="55.7641855" lon="48.7461913"><time>2021-10-23T15:59:32.197</time></trkpt><trkpt lat="55.7642275" lon="48.7462289"><time>2021-10-23T15:59:37.207</time></trkpt><trkpt lat="55.7642754" lon="48.7462730"><time>2021-10-23T15:59:42.077</time></trkpt><trkpt lat="55.7643134" lon="48.7463284"><time>2021-10-23T15:59:44.200</time></trkpt><trkpt lat="55.7643509" lon="48.7463774"><time>2021-10-23T15:59:48.200</time></trkpt><trkpt lat="55.7643809" lon="48.7464550"><time>2021-10-23T15:59:52.207</time></trkpt><trkpt lat="55.7643983" lon="48.7465322"><time>2021-10-23T15:59:59.207</time></trkpt><trkpt lat="55.7644516" lon="48.7465432"><time>2021-10-23T16:00:05.197</time></trkpt><trkpt lat="55.7645013" lon="48.7465870"><time>2021-10-23T16:00:12.197</time></trkpt><trkpt lat="55.7645163" lon="48.7466642"><time>2021-10-23T16:00:19.203</time></trkpt><trkpt lat="55.7645474" lon="48.7467221"><time>2021-10-23T16:00:23.203</time></trkpt><trkpt lat="55.7645838" lon="48.7467835"><time>2021-10-23T16:00:27.197</time></trkpt><trkpt lat="55.7646266" lon="48.7468405"><time>2021-10-23T16:00:41.207</time></trkpt><trkpt lat="55.7646669" lon="48.7469043"><time>2021-10-23T16:00:46.200</time></trkpt><trkpt lat="55.7647169" lon="48.7469316"><time>2021-10-23T16:00:50.207</time></trkpt><trkpt lat="55.7647724" lon="48.7469675"><time>2021-10-23T16:00:54.197</time></trkpt><trkpt lat="55.7648197" lon="48.7470203"><time>2021-10-23T16:00:57.303</time></trkpt><trkpt lat="55.7648583" lon="48.7470669"><time>2021-10-23T16:01:02.650</time></trkpt><trkpt lat="55.7649153" lon="48.7471293"><time>2021-10-23T16:01:12.800</time></trkpt><trkpt lat="55.7649454" lon="48.7471884"><time>2021-10-23T16:01:19.217</time></trkpt><trkpt lat="55.7649820" lon="48.7472414"><time>2021-10-23T16:01:33.197</time></trkpt><trkpt lat="55.7649638" lon="48.7473289"><time>2021-10-23T16:02:04.197</time></trkpt><trkpt lat="55.7649606" lon="48.7474132"><time>2021-10-23T16:02:09.197</time></trkpt><trkpt lat="55.7649301" lon="48.7474750"><time>2021-10-23T16:02:20.197</time></trkpt><trkpt lat="55.7648884" lon="48.7475405"><time>2021-10-23T16:02:35.203</time></trkpt><trkpt lat="55.7648453" lon="48.7475971"><time>2021-10-23T16:02:41.197</time></trkpt><trkpt lat="55.7648052" lon="48.7476577"><time>2021-10-23T16:02:47.200</time></trkpt><trkpt lat="55.7647833" lon="48.7477278"><time>2021-10-23T16:02:53.197</time></trkpt><trkpt lat="55.7647518" lon="48.7478012"><time>2021-10-23T16:02:59.200</time></trkpt><trkpt lat="55.7647160" lon="48.7478653"><time>2021-10-23T16:03:06.197</time></trkpt><trkpt lat="55.7646914" lon="48.7479499"><time>2021-10-23T16:03:16.197</time></trkpt><trkpt lat="55.7646982" lon="48.7480341"><time>2021-10-23T16:03:23.240</time></trkpt><trkpt lat="55.7647297" lon="48.7481046"><time>2021-10-23T16:03:29.203</time></trkpt><trkpt lat="55.7647737" lon="48.7481374"><time>2021-10-23T16:03:44.200</time></trkpt><trkpt lat="55.7648084" lon="48.7482044"><time>2021-10-23T16:03:59.207</time></trkpt><trkpt lat="55.7648312" lon="48.7482787"><time>2021-10-23T16:04:04.200</time></trkpt><trkpt lat="55.7648639" lon="48.7483541"><time>2021-10-23T16:04:09.197</time></trkpt><trkpt lat="55.7648610" lon="48.7484397"><time>2021-10-23T16:04:14.200</time></trkpt><trkpt lat="55.7648457" lon="48.7485194"><time>2021-10-23T16:04:28.200</time></trkpt><trkpt lat="55.7648025" lon="48.7485559"><time>2021-10-23T16:04:35.197</time></trkpt><trkpt lat="55.7647943" lon="48.7486422"><time>2021-10-23T16:04:46.197</time></trkpt><trkpt lat="55.7647736" lon="48.7487213"><time>2021-10-23T16:04:54.380</time></trkpt><trkpt lat="55.7647866" lon="48.7487995"><time>2021-10-23T16:05:09.413</time></trkpt><trkpt lat="55.7648183" lon="48.7488596"><time>2021-10-23T16:05:16.200</time></trkpt><trkpt lat="55.7648477" lon="48.7489282"><time>2021-10-23T16:05:21.397</time></trkpt><trkpt lat="55.7648699" lon="48.7490119"><time>2021-10-23T16:05:26.393</time></trkpt><trkpt lat="55.7648781" lon="48.7491047"><time>2021-10-23T16:05:32.403</time></trkpt><trkpt lat="55.7648795" lon="48.7491925"><time>2021-10-23T16:05:42.407</time></trkpt><trkpt lat="55.7648469" lon="48.7492638"><time>2021-10-23T16:05:48.413</time></trkpt><trkpt lat="55.7648131" lon="48.7493205"><time>2021-10-23T16:05:52.383</time></trkpt><trkpt lat="55.7647706" lon="48.7493499"><time>2021-10-23T16:06:00.407</time></trkpt><trkpt lat="55.7647564" lon="48.7492634"><time>2021-10-23T16:06:17.200</time></trkpt><trkpt lat="55.7647531" lon="48.7493527"><time>2021-10-23T16:06:29.427</time></trkpt><trkpt lat="55.7648134" lon="48.7493646"><time>2021-10-23T16:06:36.207</time></trkpt><trkpt lat="55.7648532" lon="48.7493181"><time>2021-10-23T16:06:42.390</time></trkpt><trkpt lat="55.7648875" lon="48.7492592"><time>2021-10-23T16:06:46.220</time></trkpt><trkpt lat="55.7649124" lon="48.7491817"><time>2021-10-23T16:06:51.383</time></trkpt><trkpt lat="55.7648855" lon="48.7490985"><time>2021-10-23T16:06:56.403</time></trkpt><trkpt lat="55.7648660" lon="48.7490260"><time>2021-10-23T16:07:00.410</time></trkpt><trkpt lat="55.7648461" lon="48.7489532"><time>2021-10-23T16:07:04.417</time></trkpt><trkpt lat="55.7648213" lon="48.7488709"><time>2021-10-23T16:07:09.407</time></trkpt><trkpt lat="55.7647822" lon="48.7488166"><time>2021-10-23T16:07:14.400</time></trkpt><trkpt lat="55.7647378" lon="48.7487794"><time>2021-10-23T16:07:22.200</time></trkpt><trkpt lat="55.7646987" lon="48.7487227"><time>2021-10-23T16:07:27.397</time></trkpt><trkpt lat="55.7646583" lon="48.7486854"><time>2021-10-23T16:07:46.413</time></trkpt><trkpt lat="55.7646205" lon="48.7486078"><time>2021-10-23T16:07:50.400</time></trkpt><trkpt lat="55.7645941" lon="48.7485237"><time>2021-10-23T16:07:54.400</time></trkpt><trkpt lat="55.7645690" lon="48.7484409"><time>2021-10-23T16:08:00.393</time></trkpt><trkpt lat="55.7645368" lon="48.7483683"><time>2021-10-23T16:08:04.207</time></trkpt><trkpt lat="55.7645126" lon="48.7482815"><time>2021-10-23T16:08:09.403</time></trkpt><trkpt lat="55.7644808" lon="48.7482091"><time>2021-10-23T16:08:14.250</time></trkpt><trkpt lat="55.7644766" lon="48.7482976"><time>2021-10-23T16:08:31.407</time></trkpt><trkpt lat="55.7645059" lon="48.7483813"><time>2021-10-23T16:08:36.200</time></trkpt><trkpt lat="55.7645391" lon="48.7484485"><time>2021-10-23T16:08:42.197</time></trkpt><trkpt lat="55.7645718" lon="48.7485195"><time>2021-10-23T16:08:48.200</time></trkpt><trkpt lat="55.7646109" lon="48.7485739"><time>2021-10-23T16:08:55.210</time></trkpt><trkpt lat="55.7646415" lon="48.7486326"><time>2021-10-23T16:09:06.203</time></trkpt><trkpt lat="55.7646745" lon="48.7486884"><time>2021-10-23T16:09:26.200</time></trkpt><trkpt lat="55.7647243" lon="48.7486945"><time>2021-10-23T16:09:41.207</time></trkpt><trkpt lat="55.7647639" lon="48.7486555"><time>2021-10-23T16:09:53.203</time></trkpt><trkpt lat="55.7647953" lon="48.7485928"><time>2021-10-23T16:10:05.207</time></trkpt><trkpt lat="55.7647977" lon="48.7485841"><time>2021-10-23T16:10:27.417</time></trkpt><trkpt lat="55.7647447" lon="48.7486194"><time>2021-10-23T16:11:00.200</time></trkpt><trkpt lat="55.7646908" lon="48.7486519"><time>2021-10-23T16:11:08.207</time></trkpt><trkpt lat="55.7646480" lon="48.7486221"><time>2021-10-23T16:11:25.210</time></trkpt><trkpt lat="55.7646174" lon="48.7485439"><time>2021-10-23T16:11:51.413</time></trkpt><trkpt lat="55.7645838" lon="48.7484732"><time>2021-10-23T16:11:56.200</time></trkpt><trkpt lat="55.7645617" lon="48.7484011"><time>2021-10-23T16:12:01.407</time></trkpt><trkpt lat="55.7645389" lon="48.7483285"><time>2021-10-23T16:12:06.427</time></trkpt><trkpt lat="55.7645083" lon="48.7482611"><time>2021-10-23T16:12:14.403</time></trkpt><trkpt lat="55.7644770" lon="48.7481983"><time>2021-10-23T16:12:19.197</time></trkpt><trkpt lat="55.7644444" lon="48.7481308"><time>2021-10-23T16:12:27.403</time></trkpt><trkpt lat="55.7643978" lon="48.7481459"><time>2021-10-23T16:12:32.423</time></trkpt><trkpt lat="55.7643592" lon="48.7482005"><time>2021-10-23T16:12:37.393</time></trkpt><trkpt lat="55.7643173" lon="48.7482575"><time>2021-10-23T16:12:45.393</time></trkpt><trkpt lat="55.7642769" lon="48.7483005"><time>2021-10-23T16:12:51.377</time></trkpt><trkpt lat="55.7642259" lon="48.7483333"><time>2021-10-23T16:12:56.370</time></trkpt><trkpt lat="55.7641782" lon="48.7483666"><time>2021-10-23T16:13:02.397</time></trkpt><trkpt lat="55.7641291" lon="48.7484031"><time>2021-10-23T16:13:08.413</time></trkpt><trkpt lat="55.7640944" lon="48.7484693"><time>2021-10-23T16:13:14.203</time></trkpt><trkpt lat="55.7640517" lon="48.7485138"><time>2021-10-23T16:13:20.400</time></trkpt><trkpt lat="55.7640060" lon="48.7485586"><time>2021-10-23T16:13:26.207</time></trkpt><trkpt lat="55.7639613" lon="48.7485795"><time>2021-10-23T16:13:31.407</time></trkpt><trkpt lat="55.7639218" lon="48.7486201"><time>2021-10-23T16:13:37.197</time></trkpt><trkpt lat="55.7638856" lon="48.7486674"><time>2021-10-23T16:13:52.380</time></trkpt><trkpt lat="55.7638445" lon="48.7487043"><time>2021-10-23T16:13:59.410</time></trkpt><trkpt lat="55.7638145" lon="48.7487755"><time>2021-10-23T16:14:05.233</time></trkpt><trkpt lat="55.7637802" lon="48.7488285"><time>2021-10-23T16:14:11.407</time></trkpt><trkpt lat="55.7637470" lon="48.7488891"><time>2021-10-23T16:14:16.403</time></trkpt><trkpt lat="55.7637040" lon="48.7489234"><time>2021-10-23T16:14:21.417</time></trkpt><trkpt lat="55.7636552" lon="48.7489589"><time>2021-10-23T16:14:28.373</time></trkpt><trkpt lat="55.7636062" lon="48.7489659"><time>2021-10-23T16:14:33.213</time></trkpt><trkpt lat="55.7635594" lon="48.7490106"><time>2021-10-23T16:14:38.377</time></trkpt><trkpt lat="55.7635128" lon="48.7490569"><time>2021-10-23T16:14:43.387</time></trkpt><trkpt lat="55.7634731" lon="48.7491021"><time>2021-10-23T16:14:48.387</time></trkpt><trkpt lat="55.7634338" lon="48.7491441"><time>2021-10-23T16:14:53.380</time></trkpt><trkpt lat="55.7633949" lon="48.7491961"><time>2021-10-23T16:15:01.987</time></trkpt><trkpt lat="55.7633534" lon="48.7492425"><time>2021-10-23T16:15:07.373</time></trkpt><trkpt lat="55.7633145" lon="48.7492925"><time>2021-10-23T16:15:13.380</time></trkpt><trkpt lat="55.7632817" lon="48.7493491"><time>2021-10-23T16:15:18.377</time></trkpt><trkpt lat="55.7632367" lon="48.7493912"><time>2021-10-23T16:15:23.203</time></trkpt><trkpt lat="55.7631886" lon="48.7494256"><time>2021-10-23T16:15:29.417</time></trkpt><trkpt lat="55.7631459" lon="48.7494696"><time>2021-10-23T16:15:36.207</time></trkpt><trkpt lat="55.7631091" lon="48.7495182"><time>2021-10-23T16:15:41.393</time></trkpt><trkpt lat="55.7630615" lon="48.7495663"><time>2021-10-23T16:15:49.433</time></trkpt><trkpt lat="55.7630164" lon="48.7496061"><time>2021-10-23T16:15:54.417</time></trkpt><trkpt lat="55.7629758" lon="48.7496424"><time>2021-10-23T16:15:59.417</time></trkpt><trkpt lat="55.7629274" lon="48.7496683"><time>2021-10-23T16:16:05.430</time></trkpt><trkpt lat="55.7628770" lon="48.7497000"><time>2021-10-23T16:16:10.423</time></trkpt><trkpt lat="55.7628275" lon="48.7497306"><time>2021-10-23T16:16:15.410</time></trkpt><trkpt lat="55.7627861" lon="48.7497699"><time>2021-10-23T16:16:21.387</time></trkpt><trkpt lat="55.7627464" lon="48.7498101"><time>2021-10-23T16:16:29.427</time></trkpt><trkpt lat="55.7627039" lon="48.7498563"><time>2021-10-23T16:16:35.417</time></trkpt><trkpt lat="55.7626590" lon="48.7498959"><time>2021-10-23T16:16:40.430</time></trkpt><trkpt lat="55.7626111" lon="48.7499433"><time>2021-10-23T16:16:45.407</time></trkpt><trkpt lat="55.7625719" lon="48.7499892"><time>2021-10-23T16:16:50.427</time></trkpt><trkpt lat="55.7625274" lon="48.7500238"><time>2021-10-23T16:16:55.423</time></trkpt><trkpt lat="55.7624759" lon="48.7500533"><time>2021-10-23T16:17:00.437</time></trkpt><trkpt lat="55.7624292" lon="48.7500849"><time>2021-10-23T16:17:05.227</time></trkpt><trkpt lat="55.7623852" lon="48.7501217"><time>2021-10-23T16:17:10.417</time></trkpt><trkpt lat="55.7623387" lon="48.7501470"><time>2021-10-23T16:17:16.217</time></trkpt><trkpt lat="55.7622852" lon="48.7501548"><time>2021-10-23T16:17:23.203</time></trkpt><trkpt lat="55.7622419" lon="48.7501820"><time>2021-10-23T16:17:28.400</time></trkpt><trkpt lat="55.7621972" lon="48.7502108"><time>2021-10-23T16:17:33.417</time></trkpt><trkpt lat="55.7621496" lon="48.7502431"><time>2021-10-23T16:17:39.207</time></trkpt><trkpt lat="55.7621070" lon="48.7502978"><time>2021-10-23T16:17:45.410</time></trkpt><trkpt lat="55.7620680" lon="48.7503464"><time>2021-10-23T16:17:51.407</time></trkpt><trkpt lat="55.7620275" lon="48.7503856"><time>2021-10-23T16:17:56.427</time></trkpt><trkpt lat="55.7619770" lon="48.7504199"><time>2021-10-23T16:18:02.413</time></trkpt><trkpt lat="55.7619410" lon="48.7504775"><time>2021-10-23T16:18:07.203</time></trkpt><trkpt lat="55.7618981" lon="48.7505105"><time>2021-10-23T16:18:12.407</time></trkpt><trkpt lat="55.7618548" lon="48.7504891"><time>2021-10-23T16:18:17.380</time></trkpt><trkpt lat="55.7618121" lon="48.7505245"><time>2021-10-23T16:18:22.393</time></trkpt><trkpt lat="55.7617716" lon="48.7505600"><time>2021-10-23T16:18:28.197</time></trkpt><trkpt lat="55.7617330" lon="48.7506111"><time>2021-10-23T16:18:33.430</time></trkpt><trkpt lat="55.7616963" lon="48.7506579"><time>2021-10-23T16:18:38.417</time></trkpt><trkpt lat="55.7616467" lon="48.7506926"><time>2021-10-23T16:18:43.207</time></trkpt><trkpt lat="55.7616066" lon="48.7507299"><time>2021-10-23T16:18:48.433</time></trkpt><trkpt lat="55.7615667" lon="48.7507679"><time>2021-10-23T16:18:53.417</time></trkpt><trkpt lat="55.7615202" lon="48.7508001"><time>2021-10-23T16:18:58.423</time></trkpt><trkpt lat="55.7614771" lon="48.7508360"><time>2021-10-23T16:19:03.430</time></trkpt><trkpt lat="55.7614367" lon="48.7508827"><time>2021-10-23T16:19:09.387</time></trkpt><trkpt lat="55.7613976" lon="48.7509363"><time>2021-10-23T16:19:16.400</time></trkpt><trkpt lat="55.7613574" lon="48.7509836"><time>2021-10-23T16:19:21.397</time></trkpt><trkpt lat="55.7613177" lon="48.7510225"><time>2021-10-23T16:19:27.430</time></trkpt><trkpt lat="55.7612709" lon="48.7510312"><time>2021-10-23T16:19:33.207</time></trkpt><trkpt lat="55.7612219" lon="48.7510474"><time>2021-10-23T16:19:39.407</time></trkpt><trkpt lat="55.7611802" lon="48.7510897"><time>2021-10-23T16:19:45.403</time></trkpt><trkpt lat="55.7611337" lon="48.7511254"><time>2021-10-23T16:19:51.410</time></trkpt><trkpt lat="55.7610871" lon="48.7511343"><time>2021-10-23T16:19:59.377</time></trkpt><trkpt lat="55.7610439" lon="48.7511687"><time>2021-10-23T16:20:04.380</time></trkpt><trkpt lat="55.7610020" lon="48.7512189"><time>2021-10-23T16:20:11.420</time></trkpt><trkpt lat="55.7609582" lon="48.7512581"><time>2021-10-23T16:20:17.417</time></trkpt><trkpt lat="55.7609284" lon="48.7513260"><time>2021-10-23T16:20:24.420</time></trkpt><trkpt lat="55.7608766" lon="48.7513443"><time>2021-10-23T16:20:30.207</time></trkpt><trkpt lat="55.7608302" lon="48.7513663"><time>2021-10-23T16:20:37.327</time></trkpt><trkpt lat="55.7607904" lon="48.7514212"><time>2021-10-23T16:20:44.413</time></trkpt><trkpt lat="55.7607474" lon="48.7514484"><time>2021-10-23T16:20:49.413</time></trkpt><trkpt lat="55.7606968" lon="48.7514716"><time>2021-10-23T16:20:54.407</time></trkpt><trkpt lat="55.7606519" lon="48.7514978"><time>2021-10-23T16:20:59.377</time></trkpt><trkpt lat="55.7606082" lon="48.7515472"><time>2021-10-23T16:21:05.377</time></trkpt><trkpt lat="55.7605650" lon="48.7515803"><time>2021-10-23T16:21:10.420</time></trkpt><trkpt lat="55.7605212" lon="48.7516056"><time>2021-10-23T16:21:16.353</time></trkpt><trkpt lat="55.7604767" lon="48.7516322"><time>2021-10-23T16:21:23.387</time></trkpt><trkpt lat="55.7604303" lon="48.7516457"><time>2021-10-23T16:21:30.203</time></trkpt><trkpt lat="55.7603887" lon="48.7516802"><time>2021-10-23T16:21:37.430</time></trkpt><trkpt lat="55.7603458" lon="48.7517097"><time>2021-10-23T16:21:43.207</time></trkpt><trkpt lat="55.7602986" lon="48.7517368"><time>2021-10-23T16:21:50.387</time></trkpt><trkpt lat="55.7602469" lon="48.7517151"><time>2021-10-23T16:21:55.207</time></trkpt><trkpt lat="55.7602017" lon="48.7517051"><time>2021-10-23T16:21:59.410</time></trkpt><trkpt lat="55.7601466" lon="48.7517134"><time>2021-10-23T16:22:03.403</time></trkpt><trkpt lat="55.7601040" lon="48.7517419"><time>2021-10-23T16:22:08.387</time></trkpt><trkpt lat="55.7600507" lon="48.7517649"><time>2021-10-23T16:22:14.380</time></trkpt><trkpt lat="55.7600107" lon="48.7518066"><time>2021-10-23T16:22:19.413</time></trkpt><trkpt lat="55.7599836" lon="48.7518729"><time>2021-10-23T16:22:27.393</time></trkpt><trkpt lat="55.7599463" lon="48.7519186"><time>2021-10-23T16:22:33.213</time></trkpt><trkpt lat="55.7598969" lon="48.7519487"><time>2021-10-23T16:22:38.427</time></trkpt><trkpt lat="55.7598545" lon="48.7519756"><time>2021-10-23T16:22:42.417</time></trkpt><trkpt lat="55.7598095" lon="48.7519899"><time>2021-10-23T16:22:48.400</time></trkpt><trkpt lat="55.7597593" lon="48.7520115"><time>2021-10-23T16:22:55.393</time></trkpt><trkpt lat="55.7597128" lon="48.7520238"><time>2021-10-23T16:23:00.420</time></trkpt><trkpt lat="55.7596659" lon="48.7520633"><time>2021-10-23T16:23:06.203</time></trkpt><trkpt lat="55.7596221" lon="48.7521132"><time>2021-10-23T16:24:40.200</time></trkpt><trkpt lat="55.7595750" lon="48.7521346"><time>2021-10-23T16:24:46.387</time></trkpt><trkpt lat="55.7595289" lon="48.7521749"><time>2021-10-23T16:24:51.377</time></trkpt><trkpt lat="55.7594760" lon="48.7522034"><time>2021-10-23T16:25:04.383</time></trkpt><trkpt lat="55.7594272" lon="48.7522383"><time>2021-10-23T16:25:10.217</time></trkpt><trkpt lat="55.7593812" lon="48.7522815"><time>2021-10-23T16:25:16.207</time></trkpt><trkpt lat="55.7593376" lon="48.7523006"><time>2021-10-23T16:25:21.400</time></trkpt><trkpt lat="55.7592924" lon="48.7523328"><time>2021-10-23T16:25:26.407</time></trkpt><trkpt lat="55.7592461" lon="48.7523458"><time>2021-10-23T16:25:43.203</time></trkpt><trkpt lat="55.7591989" lon="48.7523725"><time>2021-10-23T16:25:51.203</time></trkpt><trkpt lat="55.7591570" lon="48.7524093"><time>2021-10-23T16:25:58.217</time></trkpt><trkpt lat="55.7591125" lon="48.7524338"><time>2021-10-23T16:26:03.207</time></trkpt><trkpt lat="55.7590705" lon="48.7524757"><time>2021-10-23T16:26:08.207</time></trkpt><trkpt lat="55.7590200" lon="48.7525005"><time>2021-10-23T16:26:13.387</time></trkpt><trkpt lat="55.7589761" lon="48.7525247"><time>2021-10-23T16:26:18.417</time></trkpt><trkpt lat="55.7589289" lon="48.7525557"><time>2021-10-23T16:26:23.403</time></trkpt><trkpt lat="55.7588746" lon="48.7525707"><time>2021-10-23T16:26:30.427</time></trkpt><trkpt lat="55.7588278" lon="48.7525929"><time>2021-10-23T16:26:36.457</time></trkpt><trkpt lat="55.7587857" lon="48.7526287"><time>2021-10-23T16:26:43.410</time></trkpt><trkpt lat="55.7587367" lon="48.7526511"><time>2021-10-23T16:26:49.407</time></trkpt><trkpt lat="55.7586906" lon="48.7526797"><time>2021-10-23T16:26:55.403</time></trkpt><trkpt lat="55.7586444" lon="48.7527243"><time>2021-10-23T16:27:02.400</time></trkpt><trkpt lat="55.7586009" lon="48.7527555"><time>2021-10-23T16:27:12.417</time></trkpt><trkpt lat="55.7585571" lon="48.7527927"><time>2021-10-23T16:27:17.397</time></trkpt><trkpt lat="55.7585135" lon="48.7528120"><time>2021-10-23T16:27:21.203</time></trkpt><trkpt lat="55.7584685" lon="48.7528328"><time>2021-10-23T16:27:25.393</time></trkpt><trkpt lat="55.7584121" lon="48.7528511"><time>2021-10-23T16:27:30.423</time></trkpt><trkpt lat="55.7583655" lon="48.7528704"><time>2021-10-23T16:27:35.403</time></trkpt><trkpt lat="55.7583190" lon="48.7529061"><time>2021-10-23T16:27:40.383</time></trkpt><trkpt lat="55.7582780" lon="48.7529439"><time>2021-10-23T16:27:45.400</time></trkpt><trkpt lat="55.7582350" lon="48.7529674"><time>2021-10-23T16:27:51.397</time></trkpt><trkpt lat="55.7581934" lon="48.7530052"><time>2021-10-23T16:27:58.433</time></trkpt><trkpt lat="55.7581479" lon="48.7530451"><time>2021-10-23T16:28:04.390</time></trkpt><trkpt lat="55.7581147" lon="48.7531038"><time>2021-10-23T16:28:12.413</time></trkpt><trkpt lat="55.7580676" lon="48.7531241"><time>2021-10-23T16:28:20.417</time></trkpt><trkpt lat="55.7580145" lon="48.7531582"><time>2021-10-23T16:28:25.207</time></trkpt><trkpt lat="55.7579642" lon="48.7531616"><time>2021-10-23T16:28:31.377</time></trkpt><trkpt lat="55.7579103" lon="48.7531899"><time>2021-10-23T16:28:36.207</time></trkpt><trkpt lat="55.7578648" lon="48.7532100"><time>2021-10-23T16:28:42.417</time></trkpt><trkpt lat="55.7578119" lon="48.7532432"><time>2021-10-23T16:28:48.403</time></trkpt><trkpt lat="55.7577653" lon="48.7532796"><time>2021-10-23T16:28:53.210</time></trkpt><trkpt lat="55.7577206" lon="48.7533212"><time>2021-10-23T16:28:59.413</time></trkpt><trkpt lat="55.7576756" lon="48.7533499"><time>2021-10-23T16:29:06.400</time></trkpt><trkpt lat="55.7576288" lon="48.7533716"><time>2021-10-23T16:29:16.213</time></trkpt><trkpt lat="55.7575829" lon="48.7533995"><time>2021-10-23T16:29:21.393</time></trkpt><trkpt lat="55.7575416" lon="48.7534339"><time>2021-10-23T16:29:26.410</time></trkpt><trkpt lat="55.7574939" lon="48.7534644"><time>2021-10-23T16:29:31.420</time></trkpt><trkpt lat="55.7574438" lon="48.7534836"><time>2021-10-23T16:29:35.410</time></trkpt><trkpt lat="55.7573901" lon="48.7534992"><time>2021-10-23T16:29:40.417</time></trkpt><trkpt lat="55.7573460" lon="48.7535314"><time>2021-10-23T16:29:45.207</time></trkpt><trkpt lat="55.7572943" lon="48.7535502"><time>2021-10-23T16:29:51.423</time></trkpt><trkpt lat="55.7572487" lon="48.7535794"><time>2021-10-23T16:29:57.213</time></trkpt><trkpt lat="55.7571972" lon="48.7536113"><time>2021-10-23T16:30:03.397</time></trkpt><trkpt lat="55.7571435" lon="48.7536348"><time>2021-10-23T16:30:08.200</time></trkpt><trkpt lat="55.7570880" lon="48.7536603"><time>2021-10-23T16:30:13.380</time></trkpt><trkpt lat="55.7570405" lon="48.7536761"><time>2021-10-23T16:30:18.213</time></trkpt><trkpt lat="55.7569913" lon="48.7536957"><time>2021-10-23T16:30:25.407</time></trkpt><trkpt lat="55.7569633" lon="48.7537616"><time>2021-10-23T16:31:10.203</time></trkpt><trkpt lat="55.7569112" lon="48.7537735"><time>2021-10-23T16:31:16.417</time></trkpt><trkpt lat="55.7568642" lon="48.7537821"><time>2021-10-23T16:31:21.407</time></trkpt><trkpt lat="55.7568168" lon="48.7537963"><time>2021-10-23T16:31:27.207</time></trkpt><trkpt lat="55.7567712" lon="48.7538270"><time>2021-10-23T16:31:33.380</time></trkpt><trkpt lat="55.7567234" lon="48.7538479"><time>2021-10-23T16:31:39.400</time></trkpt><trkpt lat="55.7566722" lon="48.7538628"><time>2021-10-23T16:31:45.417</time></trkpt><trkpt lat="55.7566281" lon="48.7538808"><time>2021-10-23T16:31:50.417</time></trkpt><trkpt lat="55.7565749" lon="48.7538968"><time>2021-10-23T16:31:56.363</time></trkpt><trkpt lat="55.7565339" lon="48.7539305"><time>2021-10-23T16:32:02.380</time></trkpt><trkpt lat="55.7564909" lon="48.7539749"><time>2021-10-23T16:32:17.207</time></trkpt><trkpt lat="55.7564409" lon="48.7539957"><time>2021-10-23T16:32:23.403</time></trkpt><trkpt lat="55.7563923" lon="48.7539953"><time>2021-10-23T16:32:28.210</time></trkpt><trkpt lat="55.7563436" lon="48.7540032"><time>2021-10-23T16:32:34.407</time></trkpt><trkpt lat="55.7562910" lon="48.7539999"><time>2021-10-23T16:32:39.383</time></trkpt><trkpt lat="55.7562421" lon="48.7539708"><time>2021-10-23T16:32:45.420</time></trkpt><trkpt lat="55.7561934" lon="48.7539292"><time>2021-10-23T16:32:51.423</time></trkpt><trkpt lat="55.7561454" lon="48.7538895"><time>2021-10-23T16:32:55.410</time></trkpt><trkpt lat="55.7560966" lon="48.7538449"><time>2021-10-23T16:32:59.210</time></trkpt><trkpt lat="55.7560515" lon="48.7538070"><time>2021-10-23T16:33:03.207</time></trkpt><trkpt lat="55.7560024" lon="48.7537798"><time>2021-10-23T16:33:06.207</time></trkpt><trkpt lat="55.7559512" lon="48.7537655"><time>2021-10-23T16:33:10.207</time></trkpt><trkpt lat="55.7558954" lon="48.7537529"><time>2021-10-23T16:33:15.423</time></trkpt><trkpt lat="55.7558429" lon="48.7537530"><time>2021-10-23T16:33:20.400</time></trkpt><trkpt lat="55.7557902" lon="48.7537609"><time>2021-10-23T16:33:25.417</time></trkpt><trkpt lat="55.7557373" lon="48.7537814"><time>2021-10-23T16:33:30.427</time></trkpt><trkpt lat="55.7556904" lon="48.7537746"><time>2021-10-23T16:33:34.433</time></trkpt><trkpt lat="55.7556424" lon="48.7537589"><time>2021-10-23T16:33:38.430</time></trkpt><trkpt lat="55.7556075" lon="48.7538308"><time>2021-10-23T16:33:44.387</time></trkpt><trkpt lat="55.7555835" lon="48.7539069"><time>2021-10-23T16:33:48.417</time></trkpt><trkpt lat="55.7555561" lon="48.7539716"><time>2021-10-23T16:33:53.400</time></trkpt><trkpt lat="55.7555285" lon="48.7540472"><time>2021-10-23T16:33:59.430</time></trkpt><trkpt lat="55.7555009" lon="48.7541124"><time>2021-10-23T16:34:04.210</time></trkpt><trkpt lat="55.7554647" lon="48.7541678"><time>2021-10-23T16:34:11.413</time></trkpt><trkpt lat="55.7554292" lon="48.7542191"><time>2021-10-23T16:34:15.407</time></trkpt><trkpt lat="55.7553873" lon="48.7542857"><time>2021-10-23T16:34:20.400</time></trkpt><trkpt lat="55.7553350" lon="48.7543305"><time>2021-10-23T16:34:24.393</time></trkpt><trkpt lat="55.7552874" lon="48.7543863"><time>2021-10-23T16:34:29.430</time></trkpt><trkpt lat="55.7552285" lon="48.7543831"><time>2021-10-23T16:34:33.427</time></trkpt><trkpt lat="55.7551805" lon="48.7543755"><time>2021-10-23T16:34:37.437</time></trkpt><trkpt lat="55.7551316" lon="48.7544133"><time>2021-10-23T16:34:42.380</time></trkpt><trkpt lat="55.7550888" lon="48.7544413"><time>2021-10-23T16:34:46.403</time></trkpt><trkpt lat="55.7550485" lon="48.7544806"><time>2021-10-23T16:34:51.423</time></trkpt><trkpt lat="55.7550028" lon="48.7544702"><time>2021-10-23T16:34:55.397</time></trkpt><trkpt lat="55.7549531" lon="48.7544595"><time>2021-10-23T16:34:59.377</time></trkpt><trkpt lat="55.7549055" lon="48.7544430"><time>2021-10-23T16:35:03.400</time></trkpt><trkpt lat="55.7548547" lon="48.7544578"><time>2021-10-23T16:35:08.207</time></trkpt><trkpt lat="55.7548028" lon="48.7544729"><time>2021-10-23T16:35:14.387</time></trkpt><trkpt lat="55.7547496" lon="48.7544736"><time>2021-10-23T16:35:20.387</time></trkpt><trkpt lat="55.7547019" lon="48.7544706"><time>2021-10-23T16:35:25.343</time></trkpt><trkpt lat="55.7546527" lon="48.7544960"><time>2021-10-23T16:35:32.367</time></trkpt><trkpt lat="55.7546027" lon="48.7545178"><time>2021-10-23T16:35:37.377</time></trkpt><trkpt lat="55.7545475" lon="48.7545322"><time>2021-10-23T16:35:42.377</time></trkpt><trkpt lat="55.7544987" lon="48.7545400"><time>2021-10-23T16:35:47.407</time></trkpt><trkpt lat="55.7544524" lon="48.7545535"><time>2021-10-23T16:35:52.377</time></trkpt><trkpt lat="55.7544053" lon="48.7545490"><time>2021-10-23T16:35:56.390</time></trkpt><trkpt lat="55.7543539" lon="48.7545464"><time>2021-10-23T16:36:03.380</time></trkpt><trkpt lat="55.7543016" lon="48.7545535"><time>2021-10-23T16:36:09.213</time></trkpt><trkpt lat="55.7542565" lon="48.7545665"><time>2021-10-23T16:36:14.400</time></trkpt><trkpt lat="55.7542063" lon="48.7545698"><time>2021-10-23T16:36:19.427</time></trkpt><trkpt lat="55.7541570" lon="48.7545790"><time>2021-10-23T16:36:24.213</time></trkpt><trkpt lat="55.7541077" lon="48.7545600"><time>2021-10-23T16:36:29.207</time></trkpt><trkpt lat="55.7540560" lon="48.7545511"><time>2021-10-23T16:36:34.427</time></trkpt><trkpt lat="55.7540061" lon="48.7545308"><time>2021-10-23T16:36:39.430</time></trkpt><trkpt lat="55.7539597" lon="48.7545587"><time>2021-10-23T16:36:44.420</time></trkpt><trkpt lat="55.7539062" lon="48.7545668"><time>2021-10-23T16:36:49.410</time></trkpt><trkpt lat="55.7538610" lon="48.7545728"><time>2021-10-23T16:36:54.417</time></trkpt><trkpt lat="55.7538144" lon="48.7545737"><time>2021-10-23T16:36:58.383</time></trkpt><trkpt lat="55.7537599" lon="48.7545743"><time>2021-10-23T16:37:04.377</time></trkpt><trkpt lat="55.7537128" lon="48.7545846"><time>2021-10-23T16:37:09.213</time></trkpt><trkpt lat="55.7536681" lon="48.7545977"><time>2021-10-23T16:37:15.400</time></trkpt><trkpt lat="55.7536198" lon="48.7546147"><time>2021-10-23T16:37:20.403</time></trkpt><trkpt lat="55.7535675" lon="48.7546269"><time>2021-10-23T16:37:26.210</time></trkpt><trkpt lat="55.7535136" lon="48.7546431"><time>2021-10-23T16:37:32.410</time></trkpt><trkpt lat="55.7534634" lon="48.7546298"><time>2021-10-23T16:37:38.400</time></trkpt><trkpt lat="55.7534319" lon="48.7546935"><time>2021-10-23T16:38:04.210</time></trkpt><trkpt lat="55.7533802" lon="48.7546995"><time>2021-10-23T16:38:10.217</time></trkpt><trkpt lat="55.7533299" lon="48.7546928"><time>2021-10-23T16:38:14.220</time></trkpt><trkpt lat="55.7532837" lon="48.7546929"><time>2021-10-23T16:38:18.210</time></trkpt><trkpt lat="55.7532359" lon="48.7546744"><time>2021-10-23T16:38:22.210</time></trkpt><trkpt lat="55.7531884" lon="48.7546381"><time>2021-10-23T16:38:26.210</time></trkpt><trkpt lat="55.7531502" lon="48.7545712"><time>2021-10-23T16:38:30.203</time></trkpt><trkpt lat="55.7531480" lon="48.7544840"><time>2021-10-23T16:38:35.217</time></trkpt><trkpt lat="55.7531503" lon="48.7544019"><time>2021-10-23T16:38:41.423</time></trkpt><trkpt lat="55.7531210" lon="48.7543402"><time>2021-10-23T16:38:46.307</time></trkpt><trkpt lat="55.7530835" lon="48.7542862"><time>2021-10-23T16:38:50.373</time></trkpt><trkpt lat="55.7530355" lon="48.7542518"><time>2021-10-23T16:38:55.207</time></trkpt><trkpt lat="55.7529871" lon="48.7542264"><time>2021-10-23T16:39:01.417</time></trkpt><trkpt lat="55.7529413" lon="48.7542342"><time>2021-10-23T16:39:07.203</time></trkpt><trkpt lat="55.7528918" lon="48.7542347"><time>2021-10-23T16:39:16.207</time></trkpt><trkpt lat="55.7528413" lon="48.7542335"><time>2021-10-23T16:39:24.207</time></trkpt><trkpt lat="55.7527942" lon="48.7542133"><time>2021-10-23T16:39:30.203</time></trkpt><trkpt lat="55.7527423" lon="48.7542217"><time>2021-10-23T16:39:38.430</time></trkpt><trkpt lat="55.7526984" lon="48.7541903"><time>2021-10-23T16:39:50.403</time></trkpt><trkpt lat="55.7526511" lon="48.7541700"><time>2021-10-23T16:39:56.400</time></trkpt><trkpt lat="55.7526002" lon="48.7541557"><time>2021-10-23T16:40:00.417</time></trkpt><trkpt lat="55.7525497" lon="48.7541241"><time>2021-10-23T16:40:04.407</time></trkpt><trkpt lat="55.7525019" lon="48.7541113"><time>2021-10-23T16:40:08.390</time></trkpt><trkpt lat="55.7524461" lon="48.7540732"><time>2021-10-23T16:40:12.427</time></trkpt><trkpt lat="55.7523985" lon="48.7540481"><time>2021-10-23T16:40:16.210</time></trkpt><trkpt lat="55.7523476" lon="48.7540593"><time>2021-10-23T16:40:23.207</time></trkpt><trkpt lat="55.7522998" lon="48.7540567"><time>2021-10-23T16:40:28.383</time></trkpt><trkpt lat="55.7522551" lon="48.7540382"><time>2021-10-23T16:40:32.207</time></trkpt><trkpt lat="55.7522069" lon="48.7540156"><time>2021-10-23T16:40:36.417</time></trkpt><trkpt lat="55.7521584" lon="48.7539865"><time>2021-10-23T16:40:40.430</time></trkpt><trkpt lat="55.7521080" lon="48.7539811"><time>2021-10-23T16:40:45.427</time></trkpt><trkpt lat="55.7520622" lon="48.7539924"><time>2021-10-23T16:40:51.407</time></trkpt><trkpt lat="55.7520184" lon="48.7540153"><time>2021-10-23T16:40:57.407</time></trkpt><trkpt lat="55.7519734" lon="48.7540431"><time>2021-10-23T16:41:03.407</time></trkpt><trkpt lat="55.7519282" lon="48.7540274"><time>2021-10-23T16:41:08.377</time></trkpt><trkpt lat="55.7518758" lon="48.7540302"><time>2021-10-23T16:41:14.393</time></trkpt><trkpt lat="55.7518307" lon="48.7540178"><time>2021-10-23T16:41:21.413</time></trkpt><trkpt lat="55.7517850" lon="48.7539746"><time>2021-10-23T16:41:27.420</time></trkpt><trkpt lat="55.7517416" lon="48.7539476"><time>2021-10-23T16:41:31.400</time></trkpt><trkpt lat="55.7516850" lon="48.7539243"><time>2021-10-23T16:41:35.413</time></trkpt><trkpt lat="55.7516410" lon="48.7539079"><time>2021-10-23T16:41:39.393</time></trkpt><trkpt lat="55.7515944" lon="48.7538831"><time>2021-10-23T16:41:44.393</time></trkpt><trkpt lat="55.7515492" lon="48.7538796"><time>2021-10-23T16:41:48.397</time></trkpt><trkpt lat="55.7515031" lon="48.7538877"><time>2021-10-23T16:41:53.403</time></trkpt><trkpt lat="55.7514804" lon="48.7537852"><time>2021-10-23T16:41:58.407</time></trkpt><trkpt lat="55.7514576" lon="48.7536974"><time>2021-10-23T16:42:01.393</time></trkpt><trkpt lat="55.7514224" lon="48.7536463"><time>2021-10-23T16:42:05.417</time></trkpt><trkpt lat="55.7513789" lon="48.7536128"><time>2021-10-23T16:42:14.407</time></trkpt><trkpt lat="55.7513392" lon="48.7535526"><time>2021-10-23T16:42:21.257</time></trkpt><trkpt lat="55.7512950" lon="48.7535325"><time>2021-10-23T16:42:27.437</time></trkpt><trkpt lat="55.7512510" lon="48.7534832"><time>2021-10-23T16:42:35.400</time></trkpt><trkpt lat="55.7512107" lon="48.7534413"><time>2021-10-23T16:42:39.377</time></trkpt><trkpt lat="55.7511729" lon="48.7533972"><time>2021-10-23T16:42:43.410</time></trkpt><trkpt lat="55.7511380" lon="48.7533376"><time>2021-10-23T16:42:48.407</time></trkpt><trkpt lat="55.7511039" lon="48.7532697"><time>2021-10-23T16:42:53.407</time></trkpt><trkpt lat="55.7510808" lon="48.7531965"><time>2021-10-23T16:43:01.430</time></trkpt><trkpt lat="55.7511246" lon="48.7531765"><time>2021-10-23T16:44:10.373</time></trkpt><trkpt lat="55.7511689" lon="48.7531619"><time>2021-10-23T16:45:46.400</time></trkpt><trkpt lat="55.7512138" lon="48.7531611"><time>2021-10-23T16:47:24.397</time></trkpt><trkpt lat="55.7511696" lon="48.7531768"><time>2021-10-23T16:48:48.213</time></trkpt><trkpt lat="55.7511232" lon="48.7531610"><time>2021-10-23T16:50:38.430</time></trkpt><trkpt lat="55.7511717" lon="48.7531496"><time>2021-10-23T16:51:31.417</time></trkpt><trkpt lat="55.7512115" lon="48.7531062"><time>2021-10-23T16:51:37.213</time></trkpt><trkpt lat="55.7512474" lon="48.7530514"><time>2021-10-23T16:51:43.217</time></trkpt><trkpt lat="55.7512743" lon="48.7529873"><time>2021-10-23T16:51:54.207</time></trkpt><trkpt lat="55.7513252" lon="48.7529963"><time>2021-10-23T16:52:02.207</time></trkpt><trkpt lat="55.7513701" lon="48.7530039"><time>2021-10-23T16:52:06.247</time></trkpt><trkpt lat="55.7514178" lon="48.7530172"><time>2021-10-23T16:52:09.210</time></trkpt><trkpt lat="55.7514737" lon="48.7530300"><time>2021-10-23T16:52:13.210</time></trkpt><trkpt lat="55.7515210" lon="48.7530417"><time>2021-10-23T16:52:17.757</time></trkpt><trkpt lat="55.7515726" lon="48.7530765"><time>2021-10-23T16:52:22.213</time></trkpt><trkpt lat="55.7516183" lon="48.7530762"><time>2021-10-23T16:52:50.207</time></trkpt><trkpt lat="55.7515897" lon="48.7530028"><time>2021-10-23T16:54:31.217</time></trkpt><trkpt lat="55.7515490" lon="48.7529567"><time>2021-10-23T16:54:39.217</time></trkpt><trkpt lat="55.7514977" lon="48.7529806"><time>2021-10-23T16:54:43.213</time></trkpt><trkpt lat="55.7514530" lon="48.7530160"><time>2021-10-23T16:54:45.217</time></trkpt><trkpt lat="55.7514123" lon="48.7530494"><time>2021-10-23T16:54:47.213</time></trkpt><trkpt lat="55.7513551" lon="48.7531146"><time>2021-10-23T16:54:50.213</time></trkpt><trkpt lat="55.7513082" lon="48.7531738"><time>2021-10-23T16:54:52.220</time></trkpt><trkpt lat="55.7512701" lon="48.7532226"><time>2021-10-23T16:54:54.213</time></trkpt><trkpt lat="55.7512312" lon="48.7532638"><time>2021-10-23T16:54:56.217</time></trkpt><trkpt lat="55.7511920" lon="48.7533074"><time>2021-10-23T16:54:58.213</time></trkpt><trkpt lat="55.7511497" lon="48.7533398"><time>2021-10-23T16:55:00.217</time></trkpt><trkpt lat="55.7510999" lon="48.7533491"><time>2021-10-23T16:55:02.217</time></trkpt><trkpt lat="55.7510637" lon="48.7532826"><time>2021-10-23T16:55:04.217</time></trkpt><trkpt lat="55.7510422" lon="48.7531607"><time>2021-10-23T16:55:06.213</time></trkpt><trkpt lat="55.7510364" lon="48.7530645"><time>2021-10-23T16:55:08.213</time></trkpt><trkpt lat="55.7510361" lon="48.7529641"><time>2021-10-23T16:55:10.213</time></trkpt><trkpt lat="55.7510373" lon="48.7528188"><time>2021-10-23T16:55:12.210</time></trkpt><trkpt lat="55.7510211" lon="48.7526685"><time>2021-10-23T16:55:14.213</time></trkpt><trkpt lat="55.7510089" lon="48.7525880"><time>2021-10-23T16:55:15.213</time></trkpt><trkpt lat="55.7509945" lon="48.7525086"><time>2021-10-23T16:55:16.213</time></trkpt><trkpt lat="55.7509848" lon="48.7524305"><time>2021-10-23T16:55:17.217</time></trkpt><trkpt lat="55.7509681" lon="48.7522767"><time>2021-10-23T16:55:19.220</time></trkpt><trkpt lat="55.7509762" lon="48.7521238"><time>2021-10-23T16:55:21.217</time></trkpt><trkpt lat="55.7509931" lon="48.7519199"><time>2021-10-23T16:55:23.210</time></trkpt><trkpt lat="55.7510034" lon="48.7518380"><time>2021-10-23T16:55:24.217</time></trkpt><trkpt lat="55.7510152" lon="48.7517400"><time>2021-10-23T16:55:25.217</time></trkpt><trkpt lat="55.7510279" lon="48.7516616"><time>2021-10-23T16:55:26.220</time></trkpt><trkpt lat="55.7510594" lon="48.7515380"><time>2021-10-23T16:55:28.217</time></trkpt><trkpt lat="55.7510664" lon="48.7513987"><time>2021-10-23T16:55:30.210</time></trkpt><trkpt lat="55.7510853" lon="48.7512690"><time>2021-10-23T16:55:32.233</time></trkpt><trkpt lat="55.7510968" lon="48.7511628"><time>2021-10-23T16:55:35.217</time></trkpt><trkpt lat="55.7511002" lon="48.7510357"><time>2021-10-23T16:55:37.213</time></trkpt><trkpt lat="55.7511015" lon="48.7509179"><time>2021-10-23T16:55:39.207</time></trkpt><trkpt lat="55.7511104" lon="48.7508142"><time>2021-10-23T16:55:41.213</time></trkpt><trkpt lat="55.7511243" lon="48.7506915"><time>2021-10-23T16:55:43.210</time></trkpt><trkpt lat="55.7511410" lon="48.7505608"><time>2021-10-23T16:55:45.210</time></trkpt><trkpt lat="55.7511544" lon="48.7504336"><time>2021-10-23T16:55:47.210</time></trkpt><trkpt lat="55.7511620" lon="48.7503027"><time>2021-10-23T16:55:49.223</time></trkpt><trkpt lat="55.7511748" lon="48.7501654"><time>2021-10-23T16:55:51.213</time></trkpt><trkpt lat="55.7511877" lon="48.7500453"><time>2021-10-23T16:55:53.217</time></trkpt><trkpt lat="55.7512004" lon="48.7499383"><time>2021-10-23T16:55:55.213</time></trkpt><trkpt lat="55.7512133" lon="48.7498483"><time>2021-10-23T16:55:57.217</time></trkpt><trkpt lat="55.7512171" lon="48.7497378"><time>2021-10-23T16:56:00.213</time></trkpt><trkpt lat="55.7512380" lon="48.7496153"><time>2021-10-23T16:56:02.223</time></trkpt><trkpt lat="55.7512654" lon="48.7495358"><time>2021-10-23T16:56:03.217</time></trkpt><trkpt lat="55.7512823" lon="48.7494564"><time>2021-10-23T16:56:04.217</time></trkpt><trkpt lat="55.7512999" lon="48.7493741"><time>2021-10-23T16:56:05.227</time></trkpt><trkpt lat="55.7513223" lon="48.7492947"><time>2021-10-23T16:56:06.223</time></trkpt><trkpt lat="55.7513477" lon="48.7492175"><time>2021-10-23T16:56:07.220</time></trkpt><trkpt lat="55.7513441" lon="48.7491292"><time>2021-10-23T16:56:08.220</time></trkpt><trkpt lat="55.7513627" lon="48.7490248"><time>2021-10-23T16:56:09.223</time></trkpt><trkpt lat="55.7513812" lon="48.7489371"><time>2021-10-23T16:56:10.220</time></trkpt><trkpt lat="55.7514228" lon="48.7487802"><time>2021-10-23T16:56:12.213</time></trkpt><trkpt lat="55.7514422" lon="48.7486982"><time>2021-10-23T16:56:13.213</time></trkpt><trkpt lat="55.7514592" lon="48.7486188"><time>2021-10-23T16:56:14.207</time></trkpt><trkpt lat="55.7514715" lon="48.7485131"><time>2021-10-23T16:56:15.217</time></trkpt><trkpt lat="55.7515053" lon="48.7484394"><time>2021-10-23T16:56:16.227</time></trkpt><trkpt lat="55.7515387" lon="48.7483409"><time>2021-10-23T16:56:17.213</time></trkpt><trkpt lat="55.7515661" lon="48.7482753"><time>2021-10-23T16:56:18.213</time></trkpt><trkpt lat="55.7515622" lon="48.7481806"><time>2021-10-23T16:56:19.213</time></trkpt><trkpt lat="55.7515963" lon="48.7480490"><time>2021-10-23T16:56:21.217</time></trkpt><trkpt lat="55.7516254" lon="48.7479441"><time>2021-10-23T16:56:22.217</time></trkpt><trkpt lat="55.7516436" lon="48.7478392"><time>2021-10-23T16:56:23.217</time></trkpt><trkpt lat="55.7516465" lon="48.7477524"><time>2021-10-23T16:56:24.217</time></trkpt><trkpt lat="55.7516588" lon="48.7476069"><time>2021-10-23T16:56:26.217</time></trkpt><trkpt lat="55.7516836" lon="48.7475008"><time>2021-10-23T16:56:28.217</time></trkpt><trkpt lat="55.7516998" lon="48.7473715"><time>2021-10-23T16:56:30.217</time></trkpt><trkpt lat="55.7517260" lon="48.7472473"><time>2021-10-23T16:56:32.220</time></trkpt><trkpt lat="55.7517538" lon="48.7471384"><time>2021-10-23T16:56:34.207</time></trkpt><trkpt lat="55.7517756" lon="48.7470278"><time>2021-10-23T16:56:36.217</time></trkpt><trkpt lat="55.7517985" lon="48.7469193"><time>2021-10-23T16:56:38.217</time></trkpt><trkpt lat="55.7518240" lon="48.7468310"><time>2021-10-23T16:56:40.207</time></trkpt><trkpt lat="55.7518484" lon="48.7467589"><time>2021-10-23T16:56:42.220</time></trkpt><trkpt lat="55.7518714" lon="48.7466744"><time>2021-10-23T16:56:44.210</time></trkpt><trkpt lat="55.7518932" lon="48.7465557"><time>2021-10-23T16:56:46.210</time></trkpt><trkpt lat="55.7519223" lon="48.7464045"><time>2021-10-23T16:56:48.217</time></trkpt><trkpt lat="55.7519533" lon="48.7462579"><time>2021-10-23T16:56:50.217</time></trkpt><trkpt lat="55.7519869" lon="48.7461111"><time>2021-10-23T16:56:52.217</time></trkpt><trkpt lat="55.7520169" lon="48.7459687"><time>2021-10-23T16:56:54.217</time></trkpt><trkpt lat="55.7520461" lon="48.7458381"><time>2021-10-23T16:56:56.213</time></trkpt><trkpt lat="55.7520890" lon="48.7457321"><time>2021-10-23T16:56:58.210</time></trkpt><trkpt lat="55.7521459" lon="48.7456447"><time>2021-10-23T16:57:00.220</time></trkpt><trkpt lat="55.7521988" lon="48.7455874"><time>2021-10-23T16:57:02.217</time></trkpt><trkpt lat="55.7522688" lon="48.7455322"><time>2021-10-23T16:57:04.213</time></trkpt><trkpt lat="55.7523482" lon="48.7454689"><time>2021-10-23T16:57:06.217</time></trkpt><trkpt lat="55.7523909" lon="48.7454422"><time>2021-10-23T16:57:07.213</time></trkpt><trkpt lat="55.7524753" lon="48.7454009"><time>2021-10-23T16:57:09.213</time></trkpt><trkpt lat="55.7525577" lon="48.7453493"><time>2021-10-23T16:57:11.213</time></trkpt><trkpt lat="55.7526386" lon="48.7453196"><time>2021-10-23T16:57:13.217</time></trkpt><trkpt lat="55.7527249" lon="48.7453268"><time>2021-10-23T16:57:15.213</time></trkpt><trkpt lat="55.7527688" lon="48.7453443"><time>2021-10-23T16:57:16.213</time></trkpt><trkpt lat="55.7528535" lon="48.7453907"><time>2021-10-23T16:57:18.213</time></trkpt><trkpt lat="55.7529368" lon="48.7454439"><time>2021-10-23T16:57:20.220</time></trkpt><trkpt lat="55.7530172" lon="48.7454928"><time>2021-10-23T16:57:22.217</time></trkpt><trkpt lat="55.7530990" lon="48.7455311"><time>2021-10-23T16:57:24.213</time></trkpt><trkpt lat="55.7531779" lon="48.7455672"><time>2021-10-23T16:57:26.217</time></trkpt><trkpt lat="55.7532472" lon="48.7455971"><time>2021-10-23T16:57:28.217</time></trkpt><trkpt lat="55.7533246" lon="48.7456439"><time>2021-10-23T16:57:30.213</time></trkpt><trkpt lat="55.7533978" lon="48.7457094"><time>2021-10-23T16:57:32.213</time></trkpt><trkpt lat="55.7534672" lon="48.7457736"><time>2021-10-23T16:57:34.217</time></trkpt><trkpt lat="55.7535342" lon="48.7458163"><time>2021-10-23T16:57:36.213</time></trkpt><trkpt lat="55.7535958" lon="48.7458201"><time>2021-10-23T16:57:38.213</time></trkpt><trkpt lat="55.7536442" lon="48.7457832"><time>2021-10-23T16:57:40.213</time></trkpt><trkpt lat="55.7536773" lon="48.7457159"><time>2021-10-23T16:57:42.213</time></trkpt><trkpt lat="55.7536998" lon="48.7456419"><time>2021-10-23T16:57:44.213</time></trkpt><trkpt lat="55.7537066" lon="48.7455619"><time>2021-10-23T16:57:48.213</time></trkpt><trkpt lat="55.7536975" lon="48.7454826"><time>2021-10-23T16:57:52.217</time></trkpt><trkpt lat="55.7537052" lon="48.7454011"><time>2021-10-23T16:57:56.217</time></trkpt><trkpt lat="55.7537171" lon="48.7453225"><time>2021-10-23T16:58:02.217</time></trkpt><trkpt lat="55.7537247" lon="48.7452406"><time>2021-10-23T16:58:05.213</time></trkpt><trkpt lat="55.7537160" lon="48.7451244"><time>2021-10-23T16:58:08.207</time></trkpt><trkpt lat="55.7536896" lon="48.7450597"><time>2021-10-23T16:58:10.220</time></trkpt><trkpt lat="55.7536363" lon="48.7450124"><time>2021-10-23T16:58:12.210</time></trkpt><trkpt lat="55.7535713" lon="48.7449613"><time>2021-10-23T16:58:14.217</time></trkpt><trkpt lat="55.7535011" lon="48.7448931"><time>2021-10-23T16:58:16.217</time></trkpt><trkpt lat="55.7534315" lon="48.7448348"><time>2021-10-23T16:58:18.223</time></trkpt><trkpt lat="55.7533708" lon="48.7448064"><time>2021-10-23T16:58:21.217</time></trkpt><trkpt lat="55.7533238" lon="48.7447989"><time>2021-10-23T16:58:23.223</time></trkpt><trkpt lat="55.7532583" lon="48.7447740"><time>2021-10-23T16:58:25.217</time></trkpt><trkpt lat="55.7531845" lon="48.7447296"><time>2021-10-23T16:58:27.217</time></trkpt><trkpt lat="55.7531082" lon="48.7446794"><time>2021-10-23T16:58:29.217</time></trkpt><trkpt lat="55.7530370" lon="48.7446359"><time>2021-10-23T16:58:31.227</time></trkpt><trkpt lat="55.7529737" lon="48.7445937"><time>2021-10-23T16:58:33.217</time></trkpt><trkpt lat="55.7529176" lon="48.7445601"><time>2021-10-23T16:58:35.217</time></trkpt><trkpt lat="55.7528657" lon="48.7445311"><time>2021-10-23T16:58:37.217</time></trkpt><trkpt lat="55.7528004" lon="48.7445062"><time>2021-10-23T16:58:39.213</time></trkpt><trkpt lat="55.7527304" lon="48.7444310"><time>2021-10-23T16:58:41.220</time></trkpt><trkpt lat="55.7526792" lon="48.7443437"><time>2021-10-23T16:58:43.217</time></trkpt><trkpt lat="55.7526532" lon="48.7442632"><time>2021-10-23T16:58:45.220</time></trkpt><trkpt lat="55.7526429" lon="48.7441817"><time>2021-10-23T16:58:47.217</time></trkpt><trkpt lat="55.7526392" lon="48.7440906"><time>2021-10-23T16:58:49.217</time></trkpt><trkpt lat="55.7526210" lon="48.7439651"><time>2021-10-23T16:58:51.217</time></trkpt><trkpt lat="55.7526034" lon="48.7438440"><time>2021-10-23T16:58:53.213</time></trkpt><trkpt lat="55.7526060" lon="48.7437393"><time>2021-10-23T16:58:55.217</time></trkpt><trkpt lat="55.7526288" lon="48.7436438"><time>2021-10-23T16:58:57.233</time></trkpt><trkpt lat="55.7526625" lon="48.7435704"><time>2021-10-23T16:58:59.217</time></trkpt><trkpt lat="55.7526945" lon="48.7434714"><time>2021-10-23T16:59:01.217</time></trkpt><trkpt lat="55.7527305" lon="48.7433603"><time>2021-10-23T16:59:03.213</time></trkpt><trkpt lat="55.7527669" lon="48.7432561"><time>2021-10-23T16:59:05.210</time></trkpt><trkpt lat="55.7527946" lon="48.7431392"><time>2021-10-23T16:59:07.213</time></trkpt><trkpt lat="55.7528219" lon="48.7430174"><time>2021-10-23T16:59:09.213</time></trkpt><trkpt lat="55.7528516" lon="48.7429076"><time>2021-10-23T16:59:11.223</time></trkpt><trkpt lat="55.7528748" lon="48.7428163"><time>2021-10-23T16:59:13.213</time></trkpt><trkpt lat="55.7528905" lon="48.7427258"><time>2021-10-23T16:59:15.213</time></trkpt><trkpt lat="55.7529094" lon="48.7426276"><time>2021-10-23T16:59:17.213</time></trkpt><trkpt lat="55.7529257" lon="48.7425284"><time>2021-10-23T16:59:19.213</time></trkpt><trkpt lat="55.7529434" lon="48.7424263"><time>2021-10-23T16:59:21.217</time></trkpt><trkpt lat="55.7529663" lon="48.7423238"><time>2021-10-23T16:59:23.207</time></trkpt><trkpt lat="55.7529868" lon="48.7422358"><time>2021-10-23T16:59:25.210</time></trkpt><trkpt lat="55.7530199" lon="48.7421573"><time>2021-10-23T16:59:28.220</time></trkpt><trkpt lat="55.7530413" lon="48.7420616"><time>2021-10-23T16:59:31.217</time></trkpt><trkpt lat="55.7530410" lon="48.7419501"><time>2021-10-23T16:59:33.213</time></trkpt><trkpt lat="55.7530512" lon="48.7418317"><time>2021-10-23T16:59:35.410</time></trkpt><trkpt lat="55.7530734" lon="48.7417275"><time>2021-10-23T16:59:37.387</time></trkpt><trkpt lat="55.7531044" lon="48.7416358"><time>2021-10-23T16:59:39.410</time></trkpt><trkpt lat="55.7531468" lon="48.7415132"><time>2021-10-23T16:59:41.213</time></trkpt><trkpt lat="55.7531894" lon="48.7413858"><time>2021-10-23T16:59:43.227</time></trkpt><trkpt lat="55.7532199" lon="48.7412682"><time>2021-10-23T16:59:45.403</time></trkpt><trkpt lat="55.7532472" lon="48.7411572"><time>2021-10-23T16:59:47.407</time></trkpt><trkpt lat="55.7532706" lon="48.7410751"><time>2021-10-23T16:59:50.420</time></trkpt><trkpt lat="55.7533030" lon="48.7409636"><time>2021-10-23T16:59:53.423</time></trkpt><trkpt lat="55.7533265" lon="48.7408528"><time>2021-10-23T16:59:55.423</time></trkpt><trkpt lat="55.7533560" lon="48.7407440"><time>2021-10-23T16:59:57.423</time></trkpt><trkpt lat="55.7533923" lon="48.7406556"><time>2021-10-23T16:59:59.407</time></trkpt><trkpt lat="55.7534150" lon="48.7405133"><time>2021-10-23T17:00:01.427</time></trkpt><trkpt lat="55.7534237" lon="48.7404274"><time>2021-10-23T17:00:02.427</time></trkpt><trkpt lat="55.7534445" lon="48.7402837"><time>2021-10-23T17:00:04.403</time></trkpt><trkpt lat="55.7534629" lon="48.7401367"><time>2021-10-23T17:00:06.407</time></trkpt><trkpt lat="55.7534655" lon="48.7400501"><time>2021-10-23T17:00:07.413</time></trkpt><trkpt lat="55.7534647" lon="48.7399561"><time>2021-10-23T17:00:08.407</time></trkpt><trkpt lat="55.7534612" lon="48.7398577"><time>2021-10-23T17:00:09.423</time></trkpt><trkpt lat="55.7534565" lon="48.7397563"><time>2021-10-23T17:00:10.400</time></trkpt><trkpt lat="55.7534524" lon="48.7396596"><time>2021-10-23T17:00:11.510</time></trkpt><trkpt lat="55.7534500" lon="48.7395782"><time>2021-10-23T17:00:12.383</time></trkpt><trkpt lat="55.7534427" lon="48.7394247"><time>2021-10-23T17:00:14.407</time></trkpt><trkpt lat="55.7534391" lon="48.7392937"><time>2021-10-23T17:00:16.410</time></trkpt><trkpt lat="55.7534415" lon="48.7391984"><time>2021-10-23T17:00:18.397</time></trkpt><trkpt lat="55.7534020" lon="48.7390888"><time>2021-10-23T17:00:21.420</time></trkpt><trkpt lat="55.7533369" lon="48.7390263"><time>2021-10-23T17:00:23.217</time></trkpt><trkpt lat="55.7532638" lon="48.7389880"><time>2021-10-23T17:00:25.437</time></trkpt><trkpt lat="55.7531846" lon="48.7389550"><time>2021-10-23T17:00:27.417</time></trkpt><trkpt lat="55.7531166" lon="48.7389237"><time>2021-10-23T17:00:29.437</time></trkpt><trkpt lat="55.7530552" lon="48.7388979"><time>2021-10-23T17:00:31.217</time></trkpt><trkpt lat="55.7529980" lon="48.7388816"><time>2021-10-23T17:00:33.443</time></trkpt><trkpt lat="55.7529486" lon="48.7388977"><time>2021-10-23T17:00:35.433</time></trkpt><trkpt lat="55.7529182" lon="48.7389651"><time>2021-10-23T17:00:37.217</time></trkpt><trkpt lat="55.7529000" lon="48.7390734"><time>2021-10-23T17:00:39.427</time></trkpt><trkpt lat="55.7528749" lon="48.7392049"><time>2021-10-23T17:00:41.407</time></trkpt><trkpt lat="55.7528512" lon="48.7393492"><time>2021-10-23T17:00:43.387</time></trkpt><trkpt lat="55.7528244" lon="48.7394986"><time>2021-10-23T17:00:45.440</time></trkpt><trkpt lat="55.7528019" lon="48.7396490"><time>2021-10-23T17:00:47.423</time></trkpt><trkpt lat="55.7527938" lon="48.7397367"><time>2021-10-23T17:00:48.227</time></trkpt><trkpt lat="55.7527801" lon="48.7398225"><time>2021-10-23T17:00:49.223</time></trkpt><trkpt lat="55.7527714" lon="48.7399041"><time>2021-10-23T17:00:50.423</time></trkpt><trkpt lat="55.7527562" lon="48.7399854"><time>2021-10-23T17:00:51.403</time></trkpt><trkpt lat="55.7527456" lon="48.7400751"><time>2021-10-23T17:00:52.410</time></trkpt><trkpt lat="55.7527339" lon="48.7401641"><time>2021-10-23T17:00:53.417</time></trkpt><trkpt lat="55.7527228" lon="48.7402438"><time>2021-10-23T17:00:54.407</time></trkpt><trkpt lat="55.7527116" lon="48.7403381"><time>2021-10-23T17:00:55.413</time></trkpt><trkpt lat="55.7526951" lon="48.7404156"><time>2021-10-23T17:00:56.217</time></trkpt><trkpt lat="55.7526583" lon="48.7406369"><time>2021-10-23T17:01:00.403</time></trkpt><trkpt lat="55.7526459" lon="48.7407556"><time>2021-10-23T17:01:02.420</time></trkpt><trkpt lat="55.7526281" lon="48.7408779"><time>2021-10-23T17:01:04.217</time></trkpt><trkpt lat="55.7526127" lon="48.7409902"><time>2021-10-23T17:01:06.383</time></trkpt><trkpt lat="55.7525922" lon="48.7411108"><time>2021-10-23T17:01:08.423</time></trkpt><trkpt lat="55.7525758" lon="48.7412219"><time>2021-10-23T17:01:10.427</time></trkpt><trkpt lat="55.7525551" lon="48.7413391"><time>2021-10-23T17:01:12.387</time></trkpt><trkpt lat="55.7525341" lon="48.7414574"><time>2021-10-23T17:01:14.417</time></trkpt><trkpt lat="55.7525220" lon="48.7415804"><time>2021-10-23T17:01:16.427</time></trkpt><trkpt lat="55.7525102" lon="48.7417092"><time>2021-10-23T17:01:18.217</time></trkpt><trkpt lat="55.7524862" lon="48.7418421"><time>2021-10-23T17:01:20.420</time></trkpt><trkpt lat="55.7524531" lon="48.7419747"><time>2021-10-23T17:01:22.423</time></trkpt><trkpt lat="55.7524303" lon="48.7420479"><time>2021-10-23T17:01:23.217</time></trkpt><trkpt lat="55.7524001" lon="48.7421635"><time>2021-10-23T17:01:25.410</time></trkpt><trkpt lat="55.7523804" lon="48.7422891"><time>2021-10-23T17:01:27.420</time></trkpt><trkpt lat="55.7523558" lon="48.7424204"><time>2021-10-23T17:01:29.417</time></trkpt><trkpt lat="55.7523235" lon="48.7425671"><time>2021-10-23T17:01:31.217</time></trkpt><trkpt lat="55.7523082" lon="48.7426423"><time>2021-10-23T17:01:32.213</time></trkpt><trkpt lat="55.7522944" lon="48.7427228"><time>2021-10-23T17:01:33.213</time></trkpt><trkpt lat="55.7522646" lon="48.7428608"><time>2021-10-23T17:01:35.223</time></trkpt><trkpt lat="55.7522326" lon="48.7430003"><time>2021-10-23T17:01:37.387</time></trkpt><trkpt lat="55.7521901" lon="48.7431336"><time>2021-10-23T17:01:39.397</time></trkpt><trkpt lat="55.7521518" lon="48.7432301"><time>2021-10-23T17:01:41.393</time></trkpt><trkpt lat="55.7521140" lon="48.7433069"><time>2021-10-23T17:01:43.410</time></trkpt><trkpt lat="55.7520718" lon="48.7433669"><time>2021-10-23T17:01:45.220</time></trkpt><trkpt lat="55.7519969" lon="48.7434414"><time>2021-10-23T17:01:47.407</time></trkpt><trkpt lat="55.7519566" lon="48.7434779"><time>2021-10-23T17:01:48.413</time></trkpt><trkpt lat="55.7518753" lon="48.7435459"><time>2021-10-23T17:01:50.417</time></trkpt><trkpt lat="55.7517980" lon="48.7435992"><time>2021-10-23T17:01:52.410</time></trkpt><trkpt lat="55.7517187" lon="48.7436273"><time>2021-10-23T17:01:54.407</time></trkpt><trkpt lat="55.7516419" lon="48.7436053"><time>2021-10-23T17:01:56.387</time></trkpt><trkpt lat="55.7515686" lon="48.7435313"><time>2021-10-23T17:01:58.217</time></trkpt><trkpt lat="55.7515020" lon="48.7434625"><time>2021-10-23T17:02:00.383</time></trkpt><trkpt lat="55.7514326" lon="48.7434003"><time>2021-10-23T17:02:02.387</time></trkpt><trkpt lat="55.7513689" lon="48.7433558"><time>2021-10-23T17:02:04.390</time></trkpt><trkpt lat="55.7513054" lon="48.7433014"><time>2021-10-23T17:02:06.210</time></trkpt><trkpt lat="55.7512558" lon="48.7432386"><time>2021-10-23T17:02:08.393</time></trkpt><trkpt lat="55.7512218" lon="48.7431429"><time>2021-10-23T17:02:11.393</time></trkpt><trkpt lat="55.7511701" lon="48.7431392"><time>2021-10-23T17:02:14.410</time></trkpt><trkpt lat="55.7511261" lon="48.7431589"><time>2021-10-23T17:02:17.423</time></trkpt><trkpt lat="55.7510990" lon="48.7432268"><time>2021-10-23T17:02:20.407</time></trkpt><trkpt lat="55.7510661" lon="48.7433030"><time>2021-10-23T17:02:23.220</time></trkpt><trkpt lat="55.7510448" lon="48.7433752"><time>2021-10-23T17:02:26.427</time></trkpt><trkpt lat="55.7510172" lon="48.7434811"><time>2021-10-23T17:02:29.430</time></trkpt><trkpt lat="55.7509995" lon="48.7435724"><time>2021-10-23T17:02:32.417</time></trkpt><trkpt lat="55.7509819" lon="48.7436709"><time>2021-10-23T17:02:35.423</time></trkpt><trkpt lat="55.7509475" lon="48.7437282"><time>2021-10-23T17:02:41.217</time></trkpt><trkpt lat="55.7509392" lon="48.7438198"><time>2021-10-23T17:02:50.430</time></trkpt><trkpt lat="55.7509176" lon="48.7438905"><time>2021-10-23T17:02:53.423</time></trkpt><trkpt lat="55.7509115" lon="48.7439757"><time>2021-10-23T17:02:59.430</time></trkpt><trkpt lat="55.7509033" lon="48.7440628"><time>2021-10-23T17:03:04.427</time></trkpt><trkpt lat="55.7508931" lon="48.7441473"><time>2021-10-23T17:03:09.413</time></trkpt><trkpt lat="55.7508537" lon="48.7441956"><time>2021-10-23T17:03:15.400</time></trkpt><trkpt lat="55.7508199" lon="48.7442583"><time>2021-10-23T17:03:17.443</time></trkpt><trkpt lat="55.7507807" lon="48.7443163"><time>2021-10-23T17:03:19.433</time></trkpt><trkpt lat="55.7507425" lon="48.7443783"><time>2021-10-23T17:03:21.420</time></trkpt><trkpt lat="55.7507199" lon="48.7444703"><time>2021-10-23T17:03:23.440</time></trkpt><trkpt lat="55.7507055" lon="48.7445839"><time>2021-10-23T17:03:25.423</time></trkpt><trkpt lat="55.7506896" lon="48.7446842"><time>2021-10-23T17:03:27.370</time></trkpt><trkpt lat="55.7506632" lon="48.7447823"><time>2021-10-23T17:03:29.397</time></trkpt><trkpt lat="55.7506364" lon="48.7448524"><time>2021-10-23T17:03:31.420</time></trkpt><trkpt lat="55.7505861" lon="48.7449179"><time>2021-10-23T17:03:34.217</time></trkpt><trkpt lat="55.7505265" lon="48.7449607"><time>2021-10-23T17:03:37.217</time></trkpt><trkpt lat="55.7504948" lon="48.7450316"><time>2021-10-23T17:03:39.400</time></trkpt><trkpt lat="55.7504697" lon="48.7450992"><time>2021-10-23T17:03:41.423</time></trkpt><trkpt lat="55.7504328" lon="48.7451605"><time>2021-10-23T17:03:44.427</time></trkpt><trkpt lat="55.7504054" lon="48.7452253"><time>2021-10-23T17:03:51.430</time></trkpt><trkpt lat="55.7504425" lon="48.7452757"><time>2021-10-23T17:04:02.210</time></trkpt><trkpt lat="55.7504835" lon="48.7453285"><time>2021-10-23T17:04:43.213</time></trkpt><trkpt lat="55.7505193" lon="48.7453789"><time>2021-10-23T17:04:51.217</time></trkpt><trkpt lat="55.7505205" lon="48.7454601"><time>2021-10-23T17:04:55.223</time></trkpt><trkpt lat="55.7505009" lon="48.7455575"><time>2021-10-23T17:04:59.217</time></trkpt><trkpt lat="55.7504916" lon="48.7456433"><time>2021-10-23T17:05:03.220</time></trkpt><trkpt lat="55.7504746" lon="48.7457270"><time>2021-10-23T17:05:08.217</time></trkpt><trkpt lat="55.7504468" lon="48.7456585"><time>2021-10-23T17:05:20.220</time></trkpt><trkpt lat="55.7503971" lon="48.7456415"><time>2021-10-23T17:05:25.220</time></trkpt><trkpt lat="55.7503459" lon="48.7456212"><time>2021-10-23T17:05:30.217</time></trkpt><trkpt lat="55.7503002" lon="48.7456137"><time>2021-10-23T17:05:36.283</time></trkpt><trkpt lat="55.7502527" lon="48.7455854"><time>2021-10-23T17:05:40.217</time></trkpt><trkpt lat="55.7502012" lon="48.7455334"><time>2021-10-23T17:05:44.220</time></trkpt><trkpt lat="55.7501485" lon="48.7454896"><time>2021-10-23T17:05:48.217</time></trkpt><trkpt lat="55.7500991" lon="48.7454453"><time>2021-10-23T17:05:52.217</time></trkpt><trkpt lat="55.7500530" lon="48.7454202"><time>2021-10-23T17:05:55.217</time></trkpt><trkpt lat="55.7500035" lon="48.7453480"><time>2021-10-23T17:05:58.223</time></trkpt><trkpt lat="55.7499680" lon="48.7452962"><time>2021-10-23T17:06:00.217</time></trkpt><trkpt lat="55.7499136" lon="48.7452252"><time>2021-10-23T17:06:03.223</time></trkpt><trkpt lat="55.7498660" lon="48.7451820"><time>2021-10-23T17:06:06.693</time></trkpt><trkpt lat="55.7498298" lon="48.7451207"><time>2021-10-23T17:06:09.223</time></trkpt><trkpt lat="55.7498170" lon="48.7450213"><time>2021-10-23T17:06:13.217</time></trkpt><trkpt lat="55.7497923" lon="48.7449465"><time>2021-10-23T17:06:17.213</time></trkpt><trkpt lat="55.7497791" lon="48.7450451"><time>2021-10-23T17:08:00.210</time></trkpt><trkpt lat="55.7497674" lon="48.7451370"><time>2021-10-23T17:08:01.210</time></trkpt><trkpt lat="55.7497586" lon="48.7452338"><time>2021-10-23T17:08:04.360</time></trkpt><trkpt lat="55.7498041" lon="48.7452274"><time>2021-10-23T17:08:09.210</time></trkpt><trkpt lat="55.7498323" lon="48.7452978"><time>2021-10-23T17:08:20.213</time></trkpt><trkpt lat="55.7498515" lon="48.7453700"><time>2021-10-23T17:08:39.217</time></trkpt><trkpt lat="55.7498908" lon="48.7454114"><time>2021-10-23T17:10:47.213</time></trkpt><trkpt lat="55.7498675" lon="48.7454996"><time>2021-10-23T17:10:51.220</time></trkpt><trkpt lat="55.7498462" lon="48.7455961"><time>2021-10-23T17:10:54.213</time></trkpt><trkpt lat="55.7498903" lon="48.7455498"><time>2021-10-23T17:11:02.213</time></trkpt><trkpt lat="55.7498929" lon="48.7456329"><time>2021-10-23T17:13:39.220</time></trkpt><trkpt lat="55.7499209" lon="48.7457247"><time>2021-10-23T17:13:41.213</time></trkpt><trkpt lat="55.7499288" lon="48.7458123"><time>2021-10-23T17:13:44.217</time></trkpt><trkpt lat="55.7499131" lon="48.7457256"><time>2021-10-23T17:13:50.217</time></trkpt><trkpt lat="55.7498997" lon="48.7458051"><time>2021-10-23T17:18:45.867</time></trkpt><trkpt lat="55.7498601" lon="48.7458527"><time>2021-10-23T17:18:55.217</time></trkpt><trkpt lat="55.7498621" lon="48.7459324"><time>2021-10-23T17:19:49.210</time></trkpt><trkpt lat="55.7498815" lon="48.7458425"><time>2021-10-23T17:21:25.213</time></trkpt><trkpt lat="55.7498930" lon="48.7457615"><time>2021-10-23T17:21:34.217</time></trkpt><trkpt lat="55.7499238" lon="48.7458295"><time>2021-10-23T17:28:14.390</time></trkpt><trkpt lat="55.7499524" lon="48.7459169"><time>2021-10-23T17:28:19.430</time></trkpt><trkpt lat="55.7501916" lon="48.7457633"><time>2021-10-23T17:28:21.403</time></trkpt><trkpt lat="55.7500512" lon="48.7458527"><time>2021-10-23T17:28:23.397</time></trkpt><trkpt lat="55.7500813" lon="48.7457750"><time>2021-10-23T17:28:24.383</time></trkpt><trkpt lat="55.7500174" lon="48.7457520"><time>2021-10-23T17:28:35.387</time></trkpt><trkpt lat="55.7499722" lon="48.7457930"><time>2021-10-23T17:28:37.383</time></trkpt><trkpt lat="55.7499530" lon="48.7457045"><time>2021-10-23T17:28:46.213</time></trkpt><trkpt lat="55.7499502" lon="48.7456152"><time>2021-10-23T17:28:49.227</time></trkpt><trkpt lat="55.7499440" lon="48.7455236"><time>2021-10-23T17:28:52.427</time></trkpt><trkpt lat="55.7498925" lon="48.7454665"><time>2021-10-23T17:28:54.383</time></trkpt><trkpt lat="55.7498428" lon="48.7454435"><time>2021-10-23T17:28:56.427</time></trkpt><trkpt lat="55.7497958" lon="48.7454169"><time>2021-10-23T17:28:58.407</time></trkpt><trkpt lat="55.7498283" lon="48.7453616"><time>2021-10-23T17:30:31.213</time></trkpt><trkpt lat="55.7498773" lon="48.7453773"><time>2021-10-23T17:32:32.400</time></trkpt><trkpt lat="55.7499262" lon="48.7453246"><time>2021-10-23T17:32:40.587</time></trkpt><trkpt lat="55.7497192" lon="48.7464121"><time>2021-10-23T17:42:49.213</time></trkpt><trkpt lat="55.7497832" lon="48.7464070"><time>2021-10-23T17:42:59.217</time></trkpt><trkpt lat="55.7498285" lon="48.7463761"><time>2021-10-23T17:43:00.217</time></trkpt><trkpt lat="55.7498769" lon="48.7463460"><time>2021-10-23T17:43:01.213</time></trkpt><trkpt lat="55.7499209" lon="48.7463170"><time>2021-10-23T17:43:02.213</time></trkpt><trkpt lat="55.7499564" lon="48.7462612"><time>2021-10-23T17:43:04.213</time></trkpt><trkpt lat="55.7499004" lon="48.7462705"><time>2021-10-23T17:43:07.217</time></trkpt><trkpt lat="55.7498580" lon="48.7462050"><time>2021-10-23T17:43:09.210</time></trkpt><trkpt lat="55.7498241" lon="48.7461319"><time>2021-10-23T17:43:11.217</time></trkpt><trkpt lat="55.7498044" lon="48.7460543"><time>2021-10-23T17:43:15.217</time></trkpt><trkpt lat="55.7498206" lon="48.7459434"><time>2021-10-23T17:43:17.217</time></trkpt><trkpt lat="55.7498361" lon="48.7458582"><time>2021-10-23T17:43:19.220</time></trkpt><trkpt lat="55.7498560" lon="48.7457694"><time>2021-10-23T17:43:24.463</time></trkpt><trkpt lat="55.7498549" lon="48.7456847"><time>2021-10-23T17:45:40.217</time></trkpt><trkpt lat="55.7498120" lon="48.7457222"><time>2021-10-23T17:48:34.213</time></trkpt><trkpt lat="55.7497855" lon="48.7457882"><time>2021-10-23T17:48:44.217</time></trkpt><trkpt lat="55.7495128" lon="48.7459516"><time>2021-10-23T17:49:07.330</time></trkpt><trkpt lat="55.7495377" lon="48.7460266"><time>2021-10-23T17:49:15.220</time></trkpt><trkpt lat="55.7495793" lon="48.7460954"><time>2021-10-23T17:49:18.220</time></trkpt><trkpt lat="55.7496342" lon="48.7460713"><time>2021-10-23T17:49:51.220</time></trkpt><trkpt lat="55.7496789" lon="48.7460275"><time>2021-10-23T17:49:55.217</time></trkpt><trkpt lat="55.7497338" lon="48.7459968"><time>2021-10-23T17:51:53.213</time></trkpt><trkpt lat="55.7497693" lon="48.7459447"><time>2021-10-23T17:51:54.220</time></trkpt><trkpt lat="55.7498341" lon="48.7458849"><time>2021-10-23T17:51:56.210</time></trkpt><trkpt lat="55.7499178" lon="48.7458908"><time>2021-10-23T17:51:58.217</time></trkpt><trkpt lat="55.7499668" lon="48.7458715"><time>2021-10-23T17:52:00.223</time></trkpt><trkpt lat="55.7499793" lon="48.7457738"><time>2021-10-23T17:52:02.210</time></trkpt><trkpt lat="55.7499632" lon="48.7456628"><time>2021-10-23T17:52:04.217</time></trkpt><trkpt lat="55.7499433" lon="48.7455840"><time>2021-10-23T17:52:06.213</time></trkpt><trkpt lat="55.7499069" lon="48.7455235"><time>2021-10-23T17:52:10.217</time></trkpt><trkpt lat="55.7498711" lon="48.7455887"><time>2021-10-23T17:52:13.217</time></trkpt><trkpt lat="55.7498436" lon="48.7456939"><time>2021-10-23T17:52:16.217</time></trkpt><trkpt lat="55.7498190" lon="48.7457662"><time>2021-10-23T17:52:21.213</time></trkpt><trkpt lat="55.7498307" lon="48.7458517"><time>2021-10-23T17:53:23.217</time></trkpt><trkpt lat="55.7497908" lon="48.7459062"><time>2021-10-23T17:59:18.213</time></trkpt><trkpt lat="55.7497586" lon="48.7459617"><time>2021-10-23T18:00:56.213</time></trkpt><trkpt lat="55.7497862" lon="48.7458709"><time>2021-10-23T18:03:52.217</time></trkpt><trkpt lat="55.7497940" lon="48.7457893"><time>2021-10-23T18:04:09.210</time></trkpt><trkpt lat="55.7498153" lon="48.7457096"><time>2021-10-23T18:04:12.337</time></trkpt><trkpt lat="55.7498416" lon="48.7456262"><time>2021-10-23T18:04:14.213</time></trkpt><trkpt lat="55.7498977" lon="48.7455508"><time>2021-10-23T18:04:17.210</time></trkpt><trkpt lat="55.7499423" lon="48.7454872"><time>2021-10-23T18:04:20.207</time></trkpt><trkpt lat="55.7499694" lon="48.7454167"><time>2021-10-23T18:04:27.207</time></trkpt><trkpt lat="55.7499254" lon="48.7453868"><time>2021-10-23T18:07:02.217</time></trkpt><trkpt lat="55.7498813" lon="48.7454288"><time>2021-10-23T18:08:09.210</time></trkpt><trkpt lat="55.7498611" lon="48.7455254"><time>2021-10-23T18:08:13.210</time></trkpt><trkpt lat="55.7498515" lon="48.7456105"><time>2021-10-23T18:08:19.210</time></trkpt><trkpt lat="55.7498720" lon="48.7456818"><time>2021-10-23T18:08:23.217</time></trkpt><trkpt lat="55.7498808" lon="48.7457642"><time>2021-10-23T18:08:30.220</time></trkpt><trkpt lat="55.7498565" lon="48.7458478"><time>2021-10-23T18:08:35.213</time></trkpt><trkpt lat="55.7498116" lon="48.7458832"><time>2021-10-23T18:09:12.213</time></trkpt><trkpt lat="55.7497520" lon="48.7458756"><time>2021-10-23T18:09:14.217</time></trkpt><trkpt lat="55.7497110" lon="48.7459090"><time>2021-10-23T18:09:16.210</time></trkpt><trkpt lat="55.7496655" lon="48.7459188"><time>2021-10-23T18:09:20.210</time></trkpt><trkpt lat="55.7496321" lon="48.7459726"><time>2021-10-23T18:09:50.217</time></trkpt><trkpt lat="55.7496070" lon="48.7460397"><time>2021-10-23T18:12:27.213</time></trkpt><trkpt lat="55.7496546" lon="48.7460792"><time>2021-10-23T18:14:13.217</time></trkpt><trkpt lat="55.7496986" lon="48.7460114"><time>2021-10-23T18:14:25.213</time></trkpt><trkpt lat="55.7497164" lon="48.7459094"><time>2021-10-23T18:14:28.207</time></trkpt><trkpt lat="55.7497470" lon="48.7458352"><time>2021-10-23T18:14:41.210</time></trkpt><trkpt lat="55.7497770" lon="48.7457327"><time>2021-10-23T18:14:47.210</time></trkpt><trkpt lat="55.7498204" lon="48.7456024"><time>2021-10-23T18:14:49.210</time></trkpt><trkpt lat="55.7498766" lon="48.7455131"><time>2021-10-23T18:14:51.207</time></trkpt><trkpt lat="55.7499080" lon="48.7454369"><time>2021-10-23T18:14:54.213</time></trkpt><trkpt lat="55.7499348" lon="48.7453340"><time>2021-10-23T18:14:56.210</time></trkpt><trkpt lat="55.7499606" lon="48.7451918"><time>2021-10-23T18:14:58.207</time></trkpt><trkpt lat="55.7499711" lon="48.7446139"><time>2021-10-23T18:14:59.210</time></trkpt><trkpt lat="55.7499199" lon="48.7448090"><time>2021-10-23T18:15:01.207</time></trkpt><trkpt lat="55.7499007" lon="48.7449368"><time>2021-10-23T18:15:04.210</time></trkpt><trkpt lat="55.7498990" lon="48.7450393"><time>2021-10-23T18:15:05.257</time></trkpt><trkpt lat="55.7498820" lon="48.7451591"><time>2021-10-23T18:15:08.207</time></trkpt><trkpt lat="55.7499130" lon="48.7452169"><time>2021-10-23T18:15:18.207</time></trkpt><trkpt lat="55.7498935" lon="48.7453057"><time>2021-10-23T18:15:21.207</time></trkpt><trkpt lat="55.7499371" lon="48.7452021"><time>2021-10-23T18:15:25.210</time></trkpt><trkpt lat="55.7499457" lon="48.7450983"><time>2021-10-23T18:15:27.207</time></trkpt><trkpt lat="55.7499331" lon="48.7449974"><time>2021-10-23T18:15:30.210</time></trkpt><trkpt lat="55.7501093" lon="48.7452464"><time>2021-10-23T18:15:32.207</time></trkpt><trkpt lat="55.7501180" lon="48.7451443"><time>2021-10-23T18:15:37.210</time></trkpt><trkpt lat="55.7501423" lon="48.7452120"><time>2021-10-23T18:15:46.210</time></trkpt><trkpt lat="55.7501007" lon="48.7452452"><time>2021-10-23T18:15:51.210</time></trkpt><trkpt lat="55.7500550" lon="48.7452864"><time>2021-10-23T18:15:56.207</time></trkpt><trkpt lat="55.7500028" lon="48.7451911"><time>2021-10-23T18:16:00.210</time></trkpt><trkpt lat="55.7500470" lon="48.7452275"><time>2021-10-23T18:16:06.210</time></trkpt><trkpt lat="55.7499951" lon="48.7452789"><time>2021-10-23T18:16:11.213</time></trkpt><trkpt lat="55.7499509" lon="48.7453106"><time>2021-10-23T18:16:16.203</time></trkpt><trkpt lat="55.7499252" lon="48.7454117"><time>2021-10-23T18:16:21.207</time></trkpt><trkpt lat="55.7499580" lon="48.7454756"><time>2021-10-23T18:16:25.210</time></trkpt><trkpt lat="55.7500026" lon="48.7454482"><time>2021-10-23T18:16:29.210</time></trkpt><trkpt lat="55.7500251" lon="48.7453470"><time>2021-10-23T18:16:35.213</time></trkpt><trkpt lat="55.7500237" lon="48.7452530"><time>2021-10-23T18:16:38.213</time></trkpt><trkpt lat="55.7499674" lon="48.7451824"><time>2021-10-23T18:16:41.207</time></trkpt><trkpt lat="55.7499810" lon="48.7452599"><time>2021-10-23T18:16:48.217</time></trkpt><trkpt lat="55.7499587" lon="48.7453414"><time>2021-10-23T18:21:03.210</time></trkpt><trkpt lat="55.7499601" lon="48.7454296"><time>2021-10-23T18:21:09.213</time></trkpt><trkpt lat="55.7499594" lon="48.7455106"><time>2021-10-23T18:21:34.213</time></trkpt><trkpt lat="55.7499522" lon="48.7455899"><time>2021-10-23T18:23:05.213</time></trkpt><trkpt lat="55.7499365" lon="48.7456684"><time>2021-10-23T18:24:11.217</time></trkpt><trkpt lat="55.7499187" lon="48.7457457"><time>2021-10-23T18:24:21.213</time></trkpt><trkpt lat="55.7498785" lon="48.7457936"><time>2021-10-23T18:24:40.213</time></trkpt><trkpt lat="55.7498603" lon="48.7457204"><time>2021-10-23T18:26:05.217</time></trkpt><trkpt lat="55.7498573" lon="48.7455985"><time>2021-10-23T18:26:07.217</time></trkpt><trkpt lat="55.7498392" lon="48.7456795"><time>2021-10-23T18:26:22.217</time></trkpt><trkpt lat="55.7498201" lon="48.7457628"><time>2021-10-23T18:26:47.220</time></trkpt><trkpt lat="55.7497755" lon="48.7457815"><time>2021-10-23T18:26:55.217</time></trkpt><trkpt lat="55.7497796" lon="48.7458640"><time>2021-10-23T18:34:26.217</time></trkpt><trkpt lat="55.7497855" lon="48.7457799"><time>2021-10-23T18:35:28.217</time></trkpt><trkpt lat="55.7497937" lon="48.7456890"><time>2021-10-23T18:35:30.217</time></trkpt><trkpt lat="55.7498086" lon="48.7455969"><time>2021-10-23T18:35:33.217</time></trkpt><trkpt lat="55.7498122" lon="48.7456774"><time>2021-10-23T18:35:54.220</time></trkpt><trkpt lat="55.7498312" lon="48.7457611"><time>2021-10-23T18:37:07.213</time></trkpt><trkpt lat="55.7498475" lon="48.7458355"><time>2021-10-23T18:37:54.213</time></trkpt><trkpt lat="55.7498681" lon="48.7457608"><time>2021-10-23T18:56:05.420</time></trkpt><trkpt lat="55.7498384" lon="48.7456748"><time>2021-10-23T19:23:54.400</time></trkpt><trkpt lat="55.7498005" lon="48.7457258"><time>2021-10-23T19:24:05.383</time></trkpt><trkpt lat="55.7497750" lon="48.7457922"><time>2021-10-23T19:24:28.420</time></trkpt><trkpt lat="55.7497644" lon="48.7458248"><time>2021-10-23T19:28:02.217</time></trkpt><trkpt lat="55.7479575" lon="48.7392703"><time>2021-10-24T14:07:35.903</time></trkpt></trkseg></trk></gpx>